﻿<?xml version="1.0" encoding="utf-8"?><gpx creator="Garmin Desktop App" version="1.1" xsi:schemaLocation="http://www.topografix.com/GPX/1/1 http://www.topografix.com/GPX/1/1/gpx.xsd http://www.garmin.com/xmlschemas/WaypointExtension/v1 http://www8.garmin.com/xmlschemas/WaypointExtensionv1.xsd http://www.garmin.com/xmlschemas/TrackPointExtension/v1 http://www.garmin.com/xmlschemas/TrackPointExtensionv1.xsd http://www.garmin.com/xmlschemas/GpxExtensions/v3 http://www8.garmin.com/xmlschemas/GpxExtensionsv3.xsd http://www.garmin.com/xmlschemas/ActivityExtension/v1 http://www8.garmin.com/xmlschemas/ActivityExtensionv1.xsd http://www.garmin.com/xmlschemas/AdventuresExtensions/v1 http://www8.garmin.com/xmlschemas/AdventuresExtensionv1.xsd http://www.garmin.com/xmlschemas/PressureExtension/v1 http://www.garmin.com/xmlschemas/PressureExtensionv1.xsd http://www.garmin.com/xmlschemas/TripExtensions/v1 http://www.garmin.com/xmlschemas/TripExtensionsv1.xsd http://www.garmin.com/xmlschemas/TripMetaDataExtensions/v1 http://www.garmin.com/xmlschemas/TripMetaDataExtensionsv1.xsd http://www.garmin.com/xmlschemas/ViaPointTransportationModeExtensions/v1 http://www.garmin.com/xmlschemas/ViaPointTransportationModeExtensionsv1.xsd http://www.garmin.com/xmlschemas/CreationTimeExtension/v1 http://www.garmin.com/xmlschemas/CreationTimeExtensionsv1.xsd http://www.garmin.com/xmlschemas/AccelerationExtension/v1 http://www.garmin.com/xmlschemas/AccelerationExtensionv1.xsd http://www.garmin.com/xmlschemas/PowerExtension/v1 http://www.garmin.com/xmlschemas/PowerExtensionv1.xsd http://www.garmin.com/xmlschemas/VideoExtension/v1 http://www.garmin.com/xmlschemas/VideoExtensionv1.xsd" xmlns="http://www.topografix.com/GPX/1/1" xmlns:xsi="http://www.w3.org/2001/XMLSchema-instance" xmlns:wptx1="http://www.garmin.com/xmlschemas/WaypointExtension/v1" xmlns:gpxtrx="http://www.garmin.com/xmlschemas/GpxExtensions/v3" xmlns:gpxtpx="http://www.garmin.com/xmlschemas/TrackPointExtension/v1" xmlns:gpxx="http://www.garmin.com/xmlschemas/GpxExtensions/v3" xmlns:trp="http://www.garmin.com/xmlschemas/TripExtensions/v1" xmlns:adv="http://www.garmin.com/xmlschemas/AdventuresExtensions/v1" xmlns:prs="http://www.garmin.com/xmlschemas/PressureExtension/v1" xmlns:tmd="http://www.garmin.com/xmlschemas/TripMetaDataExtensions/v1" xmlns:vptm="http://www.garmin.com/xmlschemas/ViaPointTransportationModeExtensions/v1" xmlns:ctx="http://www.garmin.com/xmlschemas/CreationTimeExtension/v1" xmlns:gpxacc="http://www.garmin.com/xmlschemas/AccelerationExtension/v1" xmlns:gpxpx="http://www.garmin.com/xmlschemas/PowerExtension/v1" xmlns:vidx1="http://www.garmin.com/xmlschemas/VideoExtension/v1">

  <metadata>
    <link href="http://www.garmin.com">
      <text>Garmin International</text>
    </link>
    <time>2021-02-20T10:46:17Z</time>
    <bounds maxlat="46.677409764379263" maxlon="8.562210062518716" minlat="46.664263419806957" minlon="8.527908967807889" />
  </metadata>

  <trk>
    <name>ponte-sospeso2013-08-04</name>
    <extensions>
      <gpxx:TrackExtension>
        <gpxx:DisplayColor>Yellow</gpxx:DisplayColor>
      </gpxx:TrackExtension>
    </extensions>
    <trkseg>
      <trkpt lat="46.664263419806957" lon="8.557827500626445">
        <ele>1212.8399999999999</ele>
        <time>2013-08-04T07:51:36Z</time>
      </trkpt>
      <trkpt lat="46.664280686527491" lon="8.557811575010419">
        <ele>1212.3599999999999</ele>
        <time>2013-08-04T07:51:57Z</time>
      </trkpt>
      <trkpt lat="46.664264593273401" lon="8.557813335210085">
        <ele>1212.8399999999999</ele>
        <time>2013-08-04T07:52:17Z</time>
      </trkpt>
      <trkpt lat="46.664267024025321" lon="8.557785842567682">
        <ele>1212.8399999999999</ele>
        <time>2013-08-04T07:52:38Z</time>
      </trkpt>
      <trkpt lat="46.664290241897106" lon="8.557786848396063">
        <ele>1213.3199999999999</ele>
        <time>2013-08-04T07:52:43Z</time>
      </trkpt>
      <trkpt lat="46.664320500567555" lon="8.557835295796394">
        <ele>1212.8399999999999</ele>
        <time>2013-08-04T07:52:58Z</time>
      </trkpt>
      <trkpt lat="46.664360901340842" lon="8.557904530316591">
        <ele>1213.8</ele>
        <time>2013-08-04T07:53:17Z</time>
      </trkpt>
      <trkpt lat="46.664345813915133" lon="8.557945266366005">
        <ele>1214.28</ele>
        <time>2013-08-04T07:53:36Z</time>
      </trkpt>
      <trkpt lat="46.664361404255033" lon="8.557879636064172">
        <ele>1214.28</ele>
        <time>2013-08-04T07:53:57Z</time>
      </trkpt>
      <trkpt lat="46.664388729259372" lon="8.557895394042134">
        <ele>1213.8</ele>
        <time>2013-08-04T07:54:15Z</time>
      </trkpt>
      <trkpt lat="46.664401553571224" lon="8.557956498116255">
        <ele>1214.28</ele>
        <time>2013-08-04T07:54:28Z</time>
      </trkpt>
      <trkpt lat="46.664444468915462" lon="8.558016680181027">
        <ele>1216.21</ele>
        <time>2013-08-04T07:54:40Z</time>
      </trkpt>
      <trkpt lat="46.664475817233324" lon="8.558048699051142">
        <ele>1217.6500000000001</ele>
        <time>2013-08-04T07:54:53Z</time>
      </trkpt>
      <trkpt lat="46.664504818618298" lon="8.558056661859155">
        <ele>1220.05</ele>
        <time>2013-08-04T07:55:06Z</time>
      </trkpt>
      <trkpt lat="46.664542788639665" lon="8.558028414845467">
        <ele>1221.97</ele>
        <time>2013-08-04T07:55:17Z</time>
      </trkpt>
      <trkpt lat="46.66458553634584" lon="8.557984158396721">
        <ele>1224.3800000000001</ele>
        <time>2013-08-04T07:55:32Z</time>
      </trkpt>
      <trkpt lat="46.664631385356188" lon="8.558034533634782">
        <ele>1226.78</ele>
        <time>2013-08-04T07:55:46Z</time>
      </trkpt>
      <trkpt lat="46.664693243801594" lon="8.558104438707233">
        <ele>1229.1800000000001</ele>
        <time>2013-08-04T07:56:01Z</time>
      </trkpt>
      <trkpt lat="46.664757197722793" lon="8.558164620772004">
        <ele>1231.1099999999999</ele>
        <time>2013-08-04T07:56:15Z</time>
      </trkpt>
      <trkpt lat="46.664784606546164" lon="8.558087088167667">
        <ele>1233.03</ele>
        <time>2013-08-04T07:56:27Z</time>
      </trkpt>
      <trkpt lat="46.664829617366195" lon="8.558102259412408">
        <ele>1234.47</ele>
        <time>2013-08-04T07:56:39Z</time>
      </trkpt>
      <trkpt lat="46.664877813309431" lon="8.55808918364346">
        <ele>1236.8699999999999</ele>
        <time>2013-08-04T07:56:51Z</time>
      </trkpt>
      <trkpt lat="46.664928188547492" lon="8.558036293834448">
        <ele>1237.8299999999999</ele>
        <time>2013-08-04T07:57:02Z</time>
      </trkpt>
      <trkpt lat="46.664988622069359" lon="8.558016931638122">
        <ele>1239.28</ele>
        <time>2013-08-04T07:57:15Z</time>
      </trkpt>
      <trkpt lat="46.665034554898739" lon="8.557968065142632">
        <ele>1241.6800000000001</ele>
        <time>2013-08-04T07:57:28Z</time>
      </trkpt>
      <trkpt lat="46.665071519091725" lon="8.557953480631113">
        <ele>1243.1199999999999</ele>
        <time>2013-08-04T07:57:40Z</time>
      </trkpt>
      <trkpt lat="46.665102448314428" lon="8.557959934696555">
        <ele>1245.53</ele>
        <time>2013-08-04T07:57:55Z</time>
      </trkpt>
      <trkpt lat="46.665134718641639" lon="8.557912074029446">
        <ele>1246.97</ele>
        <time>2013-08-04T07:58:07Z</time>
      </trkpt>
      <trkpt lat="46.665193559601903" lon="8.557874104008079">
        <ele>1249.8499999999999</ele>
        <time>2013-08-04T07:58:22Z</time>
      </trkpt>
      <trkpt lat="46.665264135226607" lon="8.557878797873855">
        <ele>1251.77</ele>
        <time>2013-08-04T07:58:37Z</time>
      </trkpt>
      <trkpt lat="46.665326412767172" lon="8.557868991047144">
        <ele>1253.7</ele>
        <time>2013-08-04T07:58:50Z</time>
      </trkpt>
      <trkpt lat="46.66536346077919" lon="8.557918863371015">
        <ele>1254.6600000000001</ele>
        <time>2013-08-04T07:59:04Z</time>
      </trkpt>
      <trkpt lat="46.665403610095382" lon="8.557993127033114">
        <ele>1257.0599999999999</ele>
        <time>2013-08-04T07:59:18Z</time>
      </trkpt>
      <trkpt lat="46.665459517389536" lon="8.557892628014088">
        <ele>1259.46</ele>
        <time>2013-08-04T07:59:31Z</time>
      </trkpt>
      <trkpt lat="46.665475694462657" lon="8.557829679921269">
        <ele>1260.4300000000001</ele>
        <time>2013-08-04T07:59:41Z</time>
      </trkpt>
      <trkpt lat="46.665477706119418" lon="8.557772180065513">
        <ele>1262.3499999999999</ele>
        <time>2013-08-04T07:59:53Z</time>
      </trkpt>
      <trkpt lat="46.66546949185431" lon="8.557724570855498">
        <ele>1262.8299999999999</ele>
        <time>2013-08-04T08:00:09Z</time>
      </trkpt>
      <trkpt lat="46.665418613702059" lon="8.55760445818305">
        <ele>1264.27</ele>
        <time>2013-08-04T08:00:22Z</time>
      </trkpt>
      <trkpt lat="46.665396401658654" lon="8.557475879788399">
        <ele>1266.6700000000001</ele>
        <time>2013-08-04T08:00:37Z</time>
      </trkpt>
      <trkpt lat="46.66540889069438" lon="8.557398179545999">
        <ele>1267.6400000000001</ele>
        <time>2013-08-04T08:00:48Z</time>
      </trkpt>
      <trkpt lat="46.665402688086033" lon="8.55729659087956">
        <ele>1269.5599999999999</ele>
        <time>2013-08-04T08:01:03Z</time>
      </trkpt>
      <trkpt lat="46.66538642719388" lon="8.557249652221799">
        <ele>1270.04</ele>
        <time>2013-08-04T08:01:19Z</time>
      </trkpt>
      <trkpt lat="46.665398832410574" lon="8.557187458500266">
        <ele>1271.48</ele>
        <time>2013-08-04T08:01:31Z</time>
      </trkpt>
      <trkpt lat="46.665402939543128" lon="8.557161055505276">
        <ele>1271.96</ele>
        <time>2013-08-04T08:01:44Z</time>
      </trkpt>
      <trkpt lat="46.66540595702827" lon="8.557151416316629">
        <ele>1271.96</ele>
        <time>2013-08-04T08:01:52Z</time>
      </trkpt>
      <trkpt lat="46.665421547368169" lon="8.557043876498938">
        <ele>1273.8800000000001</ele>
        <time>2013-08-04T08:02:04Z</time>
      </trkpt>
      <trkpt lat="46.665468066930771" lon="8.556984532624483">
        <ele>1276.77</ele>
        <time>2013-08-04T08:02:16Z</time>
      </trkpt>
      <trkpt lat="46.66548122651875" lon="8.556911442428827">
        <ele>1278.21</ele>
        <time>2013-08-04T08:02:27Z</time>
      </trkpt>
      <trkpt lat="46.665475107729435" lon="8.556838436052203">
        <ele>1281.0899999999999</ele>
        <time>2013-08-04T08:02:41Z</time>
      </trkpt>
      <trkpt lat="46.665502768009901" lon="8.556733746081591">
        <ele>1283.02</ele>
        <time>2013-08-04T08:02:53Z</time>
      </trkpt>
      <trkpt lat="46.6655149217695" lon="8.556633330881596">
        <ele>1284.46</ele>
        <time>2013-08-04T08:03:07Z</time>
      </trkpt>
      <trkpt lat="46.665528416633606" lon="8.556518582627177">
        <ele>1286.8599999999999</ele>
        <time>2013-08-04T08:03:22Z</time>
      </trkpt>
      <trkpt lat="46.665553310886025" lon="8.556426884606481">
        <ele>1289.27</ele>
        <time>2013-08-04T08:03:35Z</time>
      </trkpt>
      <trkpt lat="46.665565464645624" lon="8.556333091109991">
        <ele>1291.1900000000001</ele>
        <time>2013-08-04T08:03:48Z</time>
      </trkpt>
      <trkpt lat="46.665592789649963" lon="8.556231083348393">
        <ele>1293.5899999999999</ele>
        <time>2013-08-04T08:04:02Z</time>
      </trkpt>
      <trkpt lat="46.665637716650963" lon="8.556314902380109">
        <ele>1295.03</ele>
        <time>2013-08-04T08:04:14Z</time>
      </trkpt>
      <trkpt lat="46.665714075788856" lon="8.556442139670253">
        <ele>1296.96</ele>
        <time>2013-08-04T08:04:30Z</time>
      </trkpt>
      <trkpt lat="46.665753470733762" lon="8.556517995893955">
        <ele>1298.4000000000001</ele>
        <time>2013-08-04T08:04:41Z</time>
      </trkpt>
      <trkpt lat="46.665804516524076" lon="8.55662377551198">
        <ele>1300.3199999999999</ele>
        <time>2013-08-04T08:04:56Z</time>
      </trkpt>
      <trkpt lat="46.6658672131598" lon="8.556701224297285">
        <ele>1303.2</ele>
        <time>2013-08-04T08:05:12Z</time>
      </trkpt>
      <trkpt lat="46.665918342769146" lon="8.556769033893943">
        <ele>1304.6500000000001</ele>
        <time>2013-08-04T08:05:25Z</time>
      </trkpt>
      <trkpt lat="46.665961258113384" lon="8.556847237050533">
        <ele>1306.0899999999999</ele>
        <time>2013-08-04T08:05:38Z</time>
      </trkpt>
      <trkpt lat="46.666020518168807" lon="8.55690180324018">
        <ele>1308.01</ele>
        <time>2013-08-04T08:05:51Z</time>
      </trkpt>
      <trkpt lat="46.66606368497014" lon="8.556983107700944">
        <ele>1309.9300000000001</ele>
        <time>2013-08-04T08:06:06Z</time>
      </trkpt>
      <trkpt lat="46.666044406592846" lon="8.556963829323649">
        <ele>1309.9300000000001</ele>
        <time>2013-08-04T08:06:16Z</time>
      </trkpt>
      <trkpt lat="46.666039880365133" lon="8.5569784976542">
        <ele>1308.97</ele>
        <time>2013-08-04T08:06:32Z</time>
      </trkpt>
      <trkpt lat="46.666059158742428" lon="8.556974055245519">
        <ele>1309.45</ele>
        <time>2013-08-04T08:07:01Z</time>
      </trkpt>
      <trkpt lat="46.666069636121392" lon="8.556924602016807">
        <ele>1310.9000000000001</ele>
        <time>2013-08-04T08:07:15Z</time>
      </trkpt>
      <trkpt lat="46.666081873700023" lon="8.556831395253539">
        <ele>1314.26</ele>
        <time>2013-08-04T08:07:28Z</time>
      </trkpt>
      <trkpt lat="46.666076593101025" lon="8.556703319773078">
        <ele>1316.1800000000001</ele>
        <time>2013-08-04T08:07:41Z</time>
      </trkpt>
      <trkpt lat="46.6660968773067" lon="8.556594355031848">
        <ele>1319.0699999999999</ele>
        <time>2013-08-04T08:07:54Z</time>
      </trkpt>
      <trkpt lat="46.666121520102024" lon="8.556480864062905">
        <ele>1320.99</ele>
        <time>2013-08-04T08:08:06Z</time>
      </trkpt>
      <trkpt lat="46.666121101006866" lon="8.556465860456228">
        <ele>1321.47</ele>
        <time>2013-08-04T08:08:08Z</time>
      </trkpt>
      <trkpt lat="46.666120262816548" lon="8.556375503540039">
        <ele>1322.4300000000001</ele>
        <time>2013-08-04T08:08:15Z</time>
      </trkpt>
      <trkpt lat="46.666126633062959" lon="8.556249523535371">
        <ele>1325.3099999999999</ele>
        <time>2013-08-04T08:08:30Z</time>
      </trkpt>
      <trkpt lat="46.666166530922055" lon="8.556202920153737">
        <ele>1327.72</ele>
        <time>2013-08-04T08:08:43Z</time>
      </trkpt>
      <trkpt lat="46.66615990921855" lon="8.556179199367762">
        <ele>1328.2</ele>
        <time>2013-08-04T08:08:46Z</time>
      </trkpt>
      <trkpt lat="46.666151862591505" lon="8.556148856878281">
        <ele>1328.2</ele>
        <time>2013-08-04T08:08:48Z</time>
      </trkpt>
      <trkpt lat="46.666154377162457" lon="8.556113401427865">
        <ele>1328.2</ele>
        <time>2013-08-04T08:08:50Z</time>
      </trkpt>
      <trkpt lat="46.666147587820888" lon="8.556072749197483">
        <ele>1328.2</ele>
        <time>2013-08-04T08:08:53Z</time>
      </trkpt>
      <trkpt lat="46.666174829006195" lon="8.555984990671277">
        <ele>1330.1199999999999</ele>
        <time>2013-08-04T08:09:06Z</time>
      </trkpt>
      <trkpt lat="46.6662263777107" lon="8.556002341210842">
        <ele>1332.52</ele>
        <time>2013-08-04T08:09:18Z</time>
      </trkpt>
      <trkpt lat="46.666252529248595" lon="8.556051542982459">
        <ele>1334.45</ele>
        <time>2013-08-04T08:09:32Z</time>
      </trkpt>
      <trkpt lat="46.666300473734736" lon="8.556065540760756">
        <ele>1336.3699999999999</ele>
        <time>2013-08-04T08:09:42Z</time>
      </trkpt>
      <trkpt lat="46.666351687163115" lon="8.55610191822052">
        <ele>1338.29</ele>
        <time>2013-08-04T08:09:55Z</time>
      </trkpt>
      <trkpt lat="46.666369875892997" lon="8.556152964010835">
        <ele>1338.77</ele>
        <time>2013-08-04T08:10:08Z</time>
      </trkpt>
      <trkpt lat="46.666397703811526" lon="8.556189928203821">
        <ele>1339.73</ele>
        <time>2013-08-04T08:10:21Z</time>
      </trkpt>
      <trkpt lat="46.666443720459938" lon="8.556280117481947">
        <ele>1342.1400000000001</ele>
        <time>2013-08-04T08:10:36Z</time>
      </trkpt>
      <trkpt lat="46.666480684652925" lon="8.556338455528021">
        <ele>1343.0999999999999</ele>
        <time>2013-08-04T08:10:50Z</time>
      </trkpt>
      <trkpt lat="46.66650683619082" lon="8.556449096649885">
        <ele>1344.54</ele>
        <time>2013-08-04T08:11:04Z</time>
      </trkpt>
      <trkpt lat="46.666543632745743" lon="8.556450102478266">
        <ele>1345.98</ele>
        <time>2013-08-04T08:11:15Z</time>
      </trkpt>
      <trkpt lat="46.666598366573453" lon="8.556529730558395">
        <ele>1348.8699999999999</ele>
        <time>2013-08-04T08:11:29Z</time>
      </trkpt>
      <trkpt lat="46.666646646335721" lon="8.556595025584102">
        <ele>1349.3499999999999</ele>
        <time>2013-08-04T08:11:43Z</time>
      </trkpt>
      <trkpt lat="46.666682101786137" lon="8.556605000048876">
        <ele>1350.79</ele>
        <time>2013-08-04T08:11:57Z</time>
      </trkpt>
      <trkpt lat="46.666711354628205" lon="8.556586727499962">
        <ele>1353.1900000000001</ele>
        <time>2013-08-04T08:12:15Z</time>
      </trkpt>
      <trkpt lat="46.666740858927369" lon="8.556524869054556">
        <ele>1355.5999999999999</ele>
        <time>2013-08-04T08:12:29Z</time>
      </trkpt>
      <trkpt lat="46.666769608855247" lon="8.556461334228516">
        <ele>1358</ele>
        <time>2013-08-04T08:12:41Z</time>
      </trkpt>
      <trkpt lat="46.666769105941057" lon="8.556404672563076">
        <ele>1359.9200000000001</ele>
        <time>2013-08-04T08:12:54Z</time>
      </trkpt>
      <trkpt lat="46.66677312925458" lon="8.556351363658905">
        <ele>1360.8800000000001</ele>
        <time>2013-08-04T08:13:11Z</time>
      </trkpt>
      <trkpt lat="46.666770027950406" lon="8.556331750005484">
        <ele>1360.4000000000001</ele>
        <time>2013-08-04T08:13:36Z</time>
      </trkpt>
      <trkpt lat="46.666766423732042" lon="8.556304425001144">
        <ele>1361.8399999999999</ele>
        <time>2013-08-04T08:13:52Z</time>
      </trkpt>
      <trkpt lat="46.666798274964094" lon="8.556208116933703">
        <ele>1364.73</ele>
        <time>2013-08-04T08:14:07Z</time>
      </trkpt>
      <trkpt lat="46.666807075962424" lon="8.556127902120352">
        <ele>1367.6099999999999</ele>
        <time>2013-08-04T08:14:21Z</time>
      </trkpt>
      <trkpt lat="46.666858121752739" lon="8.556190012022853">
        <ele>1370.02</ele>
        <time>2013-08-04T08:14:33Z</time>
      </trkpt>
      <trkpt lat="46.666900115087628" lon="8.556271651759744">
        <ele>1371.46</ele>
        <time>2013-08-04T08:14:46Z</time>
      </trkpt>
      <trkpt lat="46.666888715699315" lon="8.556217001751065">
        <ele>1371.9400000000001</ele>
        <time>2013-08-04T08:15:00Z</time>
      </trkpt>
      <trkpt lat="46.666887290775776" lon="8.556086495518684">
        <ele>1373.3800000000001</ele>
        <time>2013-08-04T08:15:12Z</time>
      </trkpt>
      <trkpt lat="46.666873125359416" lon="8.555934615433216">
        <ele>1375.3</ele>
        <time>2013-08-04T08:15:28Z</time>
      </trkpt>
      <trkpt lat="46.666880082339048" lon="8.55583461932838">
        <ele>1377.23</ele>
        <time>2013-08-04T08:15:40Z</time>
      </trkpt>
      <trkpt lat="46.666930709034204" lon="8.555811317637563">
        <ele>1379.6300000000001</ele>
        <time>2013-08-04T08:15:54Z</time>
      </trkpt>
      <trkpt lat="46.666973624378443" lon="8.555828081443906">
        <ele>1382.03</ele>
        <time>2013-08-04T08:16:07Z</time>
      </trkpt>
      <trkpt lat="46.667018551379442" lon="8.555882144719362">
        <ele>1384.4400000000001</ele>
        <time>2013-08-04T08:16:20Z</time>
      </trkpt>
      <trkpt lat="46.667043613269925" lon="8.555927071720362">
        <ele>1386.8399999999999</ele>
        <time>2013-08-04T08:16:32Z</time>
      </trkpt>
      <trkpt lat="46.667077224701643" lon="8.555961772799492">
        <ele>1388.76</ele>
        <time>2013-08-04T08:16:46Z</time>
      </trkpt>
      <trkpt lat="46.667118296027184" lon="8.555968143045902">
        <ele>1391.1700000000001</ele>
        <time>2013-08-04T08:16:57Z</time>
      </trkpt>
      <trkpt lat="46.667105806991458" lon="8.555926317349076">
        <ele>1394.05</ele>
        <time>2013-08-04T08:17:09Z</time>
      </trkpt>
      <trkpt lat="46.667117793112993" lon="8.555850544944406">
        <ele>1395.97</ele>
        <time>2013-08-04T08:17:20Z</time>
      </trkpt>
      <trkpt lat="46.667127432301641" lon="8.555730767548084">
        <ele>1398.3699999999999</ele>
        <time>2013-08-04T08:17:33Z</time>
      </trkpt>
      <trkpt lat="46.667122403159738" lon="8.555685756728053">
        <ele>1400.3</ele>
        <time>2013-08-04T08:17:45Z</time>
      </trkpt>
      <trkpt lat="46.667161546647549" lon="8.555603697896004">
        <ele>1401.74</ele>
        <time>2013-08-04T08:17:56Z</time>
      </trkpt>
      <trkpt lat="46.667210664600134" lon="8.55566656216979">
        <ele>1403.1800000000001</ele>
        <time>2013-08-04T08:18:13Z</time>
      </trkpt>
      <trkpt lat="46.667182920500636" lon="8.555617528036237">
        <ele>1405.5799999999999</ele>
        <time>2013-08-04T08:18:26Z</time>
      </trkpt>
      <trkpt lat="46.66718166321516" lon="8.555603278800845">
        <ele>1406.55</ele>
        <time>2013-08-04T08:18:40Z</time>
      </trkpt>
      <trkpt lat="46.667198846116662" lon="8.555510239675641">
        <ele>1407.51</ele>
        <time>2013-08-04T08:18:54Z</time>
      </trkpt>
      <trkpt lat="46.667181830853224" lon="8.555408399552107">
        <ele>1411.3499999999999</ele>
        <time>2013-08-04T08:19:08Z</time>
      </trkpt>
      <trkpt lat="46.667183339595795" lon="8.555295243859291">
        <ele>1413.76</ele>
        <time>2013-08-04T08:19:21Z</time>
      </trkpt>
      <trkpt lat="46.667190128937364" lon="8.555213436484337">
        <ele>1416.1600000000001</ele>
        <time>2013-08-04T08:19:35Z</time>
      </trkpt>
      <trkpt lat="46.667208066210151" lon="8.555087707936764">
        <ele>1418.0799999999999</ele>
        <time>2013-08-04T08:19:47Z</time>
      </trkpt>
      <trkpt lat="46.667201025411487" lon="8.555052252486348">
        <ele>1420.49</ele>
        <time>2013-08-04T08:20:01Z</time>
      </trkpt>
      <trkpt lat="46.667210832238197" lon="8.555028447881341">
        <ele>1422.4100000000001</ele>
        <time>2013-08-04T08:20:14Z</time>
      </trkpt>
      <trkpt lat="46.667274450883269" lon="8.555023921653628">
        <ele>1424.8099999999999</ele>
        <time>2013-08-04T08:20:29Z</time>
      </trkpt>
      <trkpt lat="46.667327173054218" lon="8.555030543357134">
        <ele>1427.21</ele>
        <time>2013-08-04T08:20:43Z</time>
      </trkpt>
      <trkpt lat="46.667373860254884" lon="8.555051665753126">
        <ele>1429.6199999999999</ele>
        <time>2013-08-04T08:20:57Z</time>
      </trkpt>
      <trkpt lat="46.667410740628839" lon="8.555109752342105">
        <ele>1431.54</ele>
        <time>2013-08-04T08:21:10Z</time>
      </trkpt>
      <trkpt lat="46.667431108653545" lon="8.555145291611552">
        <ele>1432.98</ele>
        <time>2013-08-04T08:21:25Z</time>
      </trkpt>
      <trkpt lat="46.667457846924663" lon="8.555138083174825">
        <ele>1434.4200000000001</ele>
        <time>2013-08-04T08:21:43Z</time>
      </trkpt>
      <trkpt lat="46.66748408228159" lon="8.555209580808878">
        <ele>1437.79</ele>
        <time>2013-08-04T08:22:00Z</time>
      </trkpt>
      <trkpt lat="46.66750168427825" lon="8.55524780228734">
        <ele>1439.23</ele>
        <time>2013-08-04T08:22:13Z</time>
      </trkpt>
      <trkpt lat="46.667513838037848" lon="8.55525903403759">
        <ele>1441.1500000000001</ele>
        <time>2013-08-04T08:22:25Z</time>
      </trkpt>
      <trkpt lat="46.667534792795777" lon="8.555190553888679">
        <ele>1442.5999999999999</ele>
        <time>2013-08-04T08:22:41Z</time>
      </trkpt>
      <trkpt lat="46.667561028152704" lon="8.555247383192182">
        <ele>1445</ele>
        <time>2013-08-04T08:22:56Z</time>
      </trkpt>
      <trkpt lat="46.667568320408463" lon="8.555305553600192">
        <ele>1446.4400000000001</ele>
        <time>2013-08-04T08:23:10Z</time>
      </trkpt>
      <trkpt lat="46.667616264894605" lon="8.555348385125399">
        <ele>1448.3599999999999</ele>
        <time>2013-08-04T08:23:23Z</time>
      </trkpt>
      <trkpt lat="46.667640740051866" lon="8.555401526391506">
        <ele>1449.8099999999999</ele>
        <time>2013-08-04T08:23:41Z</time>
      </trkpt>
      <trkpt lat="46.667654486373067" lon="8.555333884432912">
        <ele>1452.6900000000001</ele>
        <time>2013-08-04T08:23:58Z</time>
      </trkpt>
      <trkpt lat="46.667719110846519" lon="8.555413763970137">
        <ele>1455.5699999999999</ele>
        <time>2013-08-04T08:24:15Z</time>
      </trkpt>
      <trkpt lat="46.667765798047185" lon="8.555405801162124">
        <ele>1457.02</ele>
        <time>2013-08-04T08:24:29Z</time>
      </trkpt>
      <trkpt lat="46.667769234627485" lon="8.55542466044426">
        <ele>1459.4200000000001</ele>
        <time>2013-08-04T08:24:47Z</time>
      </trkpt>
      <trkpt lat="46.667761523276567" lon="8.555339416489005">
        <ele>1461.3399999999999</ele>
        <time>2013-08-04T08:25:00Z</time>
      </trkpt>
      <trkpt lat="46.667739227414131" lon="8.555295160040259">
        <ele>1463.26</ele>
        <time>2013-08-04T08:25:13Z</time>
      </trkpt>
      <trkpt lat="46.667728330940008" lon="8.555288035422564">
        <ele>1464.71</ele>
        <time>2013-08-04T08:25:29Z</time>
      </trkpt>
      <trkpt lat="46.6677425801754" lon="8.555193906649947">
        <ele>1466.6300000000001</ele>
        <time>2013-08-04T08:25:42Z</time>
      </trkpt>
      <trkpt lat="46.66774844750762" lon="8.555153254419565">
        <ele>1468.0699999999999</ele>
        <time>2013-08-04T08:25:56Z</time>
      </trkpt>
      <trkpt lat="46.66780318133533" lon="8.555171526968479">
        <ele>1470.47</ele>
        <time>2013-08-04T08:26:12Z</time>
      </trkpt>
      <trkpt lat="46.667823297902942" lon="8.555236821994185">
        <ele>1472.4000000000001</ele>
        <time>2013-08-04T08:26:27Z</time>
      </trkpt>
      <trkpt lat="46.667840899899602" lon="8.555236402899027">
        <ele>1473.8399999999999</ele>
        <time>2013-08-04T08:26:40Z</time>
      </trkpt>
      <trkpt lat="46.667861267924309" lon="8.555269343778491">
        <ele>1476.24</ele>
        <time>2013-08-04T08:26:57Z</time>
      </trkpt>
      <trkpt lat="46.667876355350018" lon="8.555309073999524">
        <ele>1477.2</ele>
        <time>2013-08-04T08:27:10Z</time>
      </trkpt>
      <trkpt lat="46.667907703667879" lon="8.555329944938421">
        <ele>1479.1300000000001</ele>
        <time>2013-08-04T08:27:27Z</time>
      </trkpt>
      <trkpt lat="46.667926060035825" lon="8.555365484207869">
        <ele>1481.05</ele>
        <time>2013-08-04T08:27:42Z</time>
      </trkpt>
      <trkpt lat="46.667943242937326" lon="8.555389372631908">
        <ele>1482.49</ele>
        <time>2013-08-04T08:27:50Z</time>
      </trkpt>
      <trkpt lat="46.667953385040164" lon="8.555470677092671">
        <ele>1482.49</ele>
        <time>2013-08-04T08:28:02Z</time>
      </trkpt>
      <trkpt lat="46.667968807742" lon="8.555444944649935">
        <ele>1484.8900000000001</ele>
        <time>2013-08-04T08:28:16Z</time>
      </trkpt>
      <trkpt lat="46.66803527623415" lon="8.555485345423222">
        <ele>1487.3</ele>
        <time>2013-08-04T08:28:30Z</time>
      </trkpt>
      <trkpt lat="46.668061846867204" lon="8.555573271587491">
        <ele>1489.22</ele>
        <time>2013-08-04T08:28:44Z</time>
      </trkpt>
      <trkpt lat="46.668103337287903" lon="8.555629178881645">
        <ele>1491.6199999999999</ele>
        <time>2013-08-04T08:29:02Z</time>
      </trkpt>
      <trkpt lat="46.668120855465531" lon="8.555689696222544">
        <ele>1493.55</ele>
        <time>2013-08-04T08:29:18Z</time>
      </trkpt>
      <trkpt lat="46.668154383078218" lon="8.555706208571792">
        <ele>1495.95</ele>
        <time>2013-08-04T08:29:32Z</time>
      </trkpt>
      <trkpt lat="46.66816477663815" lon="8.555769072845578">
        <ele>1496.9100000000001</ele>
        <time>2013-08-04T08:29:44Z</time>
      </trkpt>
      <trkpt lat="46.668204506859183" lon="8.55579455383122">
        <ele>1498.3499999999999</ele>
        <time>2013-08-04T08:29:56Z</time>
      </trkpt>
      <trkpt lat="46.668225713074207" lon="8.555834116414189">
        <ele>1500.76</ele>
        <time>2013-08-04T08:30:11Z</time>
      </trkpt>
      <trkpt lat="46.668244153261185" lon="8.555885246023536">
        <ele>1502.2</ele>
        <time>2013-08-04T08:30:26Z</time>
      </trkpt>
      <trkpt lat="46.668271478265524" lon="8.555922210216522">
        <ele>1504.5999999999999</ele>
        <time>2013-08-04T08:30:42Z</time>
      </trkpt>
      <trkpt lat="46.668315818533301" lon="8.555998988449574">
        <ele>1507</ele>
        <time>2013-08-04T08:30:56Z</time>
      </trkpt>
      <trkpt lat="46.668320009484887" lon="8.556088171899319">
        <ele>1506.52</ele>
        <time>2013-08-04T08:31:10Z</time>
      </trkpt>
      <trkpt lat="46.668330654501915" lon="8.556118682026863">
        <ele>1508.45</ele>
        <time>2013-08-04T08:31:18Z</time>
      </trkpt>
      <trkpt lat="46.668387064710259" lon="8.556188754737377">
        <ele>1511.3299999999999</ele>
        <time>2013-08-04T08:31:35Z</time>
      </trkpt>
      <trkpt lat="46.668383628129959" lon="8.55623041279614">
        <ele>1512.77</ele>
        <time>2013-08-04T08:31:48Z</time>
      </trkpt>
      <trkpt lat="46.668417071923614" lon="8.556257570162416">
        <ele>1514.6900000000001</ele>
        <time>2013-08-04T08:31:59Z</time>
      </trkpt>
      <trkpt lat="46.668466608971357" lon="8.556309621781111">
        <ele>1517.0999999999999</ele>
        <time>2013-08-04T08:32:13Z</time>
      </trkpt>
      <trkpt lat="46.668501058593392" lon="8.556352620944381">
        <ele>1519.5</ele>
        <time>2013-08-04T08:32:29Z</time>
      </trkpt>
      <trkpt lat="46.668501561507583" lon="8.55639117769897">
        <ele>1520.9400000000001</ele>
        <time>2013-08-04T08:32:41Z</time>
      </trkpt>
      <trkpt lat="46.668531568720937" lon="8.556337701156735">
        <ele>1522.3900000000001</ele>
        <time>2013-08-04T08:32:53Z</time>
      </trkpt>
      <trkpt lat="46.668606251478195" lon="8.556323116645217">
        <ele>1524.79</ele>
        <time>2013-08-04T08:33:07Z</time>
      </trkpt>
      <trkpt lat="46.668672719970345" lon="8.556330241262913">
        <ele>1527.6700000000001</ele>
        <time>2013-08-04T08:33:21Z</time>
      </trkpt>
      <trkpt lat="46.668714378029108" lon="8.556366953998804">
        <ele>1529.5899999999999</ele>
        <time>2013-08-04T08:33:35Z</time>
      </trkpt>
      <trkpt lat="46.668759137392044" lon="8.556377766653895">
        <ele>1532.48</ele>
        <time>2013-08-04T08:33:52Z</time>
      </trkpt>
      <trkpt lat="46.668812949210405" lon="8.556386400014162">
        <ele>1535.8399999999999</ele>
        <time>2013-08-04T08:34:07Z</time>
      </trkpt>
      <trkpt lat="46.66885175742209" lon="8.556486060842872">
        <ele>1537.77</ele>
        <time>2013-08-04T08:34:26Z</time>
      </trkpt>
      <trkpt lat="46.668883776292205" lon="8.556494610384107">
        <ele>1539.6900000000001</ele>
        <time>2013-08-04T08:34:36Z</time>
      </trkpt>
      <trkpt lat="46.668909676373005" lon="8.556515816599131">
        <ele>1541.6099999999999</ele>
        <time>2013-08-04T08:34:50Z</time>
      </trkpt>
      <trkpt lat="46.668976563960314" lon="8.556507602334023">
        <ele>1544.01</ele>
        <time>2013-08-04T08:35:04Z</time>
      </trkpt>
      <trkpt lat="46.669023251160979" lon="8.556515229865909">
        <ele>1546.9000000000001</ele>
        <time>2013-08-04T08:35:19Z</time>
      </trkpt>
      <trkpt lat="46.669076643884182" lon="8.556546913459897">
        <ele>1549.3</ele>
        <time>2013-08-04T08:35:32Z</time>
      </trkpt>
      <trkpt lat="46.669109333306551" lon="8.556590666994453">
        <ele>1551.22</ele>
        <time>2013-08-04T08:35:46Z</time>
      </trkpt>
      <trkpt lat="46.669180830940604" lon="8.556579351425171">
        <ele>1553.1500000000001</ele>
        <time>2013-08-04T08:36:00Z</time>
      </trkpt>
      <trkpt lat="46.669220812618732" lon="8.556619249284267">
        <ele>1555.55</ele>
        <time>2013-08-04T08:36:16Z</time>
      </trkpt>
      <trkpt lat="46.669261045753956" lon="8.556629307568073">
        <ele>1557.47</ele>
        <time>2013-08-04T08:36:28Z</time>
      </trkpt>
      <trkpt lat="46.669318964704871" lon="8.556694518774748">
        <ele>1559.8800000000001</ele>
        <time>2013-08-04T08:36:43Z</time>
      </trkpt>
      <trkpt lat="46.669331453740597" lon="8.556699967011809">
        <ele>1560.3599999999999</ele>
        <time>2013-08-04T08:36:46Z</time>
      </trkpt>
      <trkpt lat="46.669376799836755" lon="8.556783450767398">
        <ele>1562.76</ele>
        <time>2013-08-04T08:37:02Z</time>
      </trkpt>
      <trkpt lat="46.669426253065467" lon="8.556819995865226">
        <ele>1564.2</ele>
        <time>2013-08-04T08:37:18Z</time>
      </trkpt>
      <trkpt lat="46.669464558362961" lon="8.556814463809133">
        <ele>1565.6400000000001</ele>
        <time>2013-08-04T08:37:31Z</time>
      </trkpt>
      <trkpt lat="46.669488195329905" lon="8.556842627003789">
        <ele>1565.6400000000001</ele>
        <time>2013-08-04T08:37:47Z</time>
      </trkpt>
      <trkpt lat="46.669498505070806" lon="8.556881435215473">
        <ele>1566.6099999999999</ele>
        <time>2013-08-04T08:38:00Z</time>
      </trkpt>
      <trkpt lat="46.669541671872139" lon="8.55691303499043">
        <ele>1567.5699999999999</ele>
        <time>2013-08-04T08:38:06Z</time>
      </trkpt>
      <trkpt lat="46.669624904170632" lon="8.556995345279574">
        <ele>1569.97</ele>
        <time>2013-08-04T08:38:20Z</time>
      </trkpt>
      <trkpt lat="46.669674189761281" lon="8.557008085772395">
        <ele>1570.45</ele>
        <time>2013-08-04T08:38:28Z</time>
      </trkpt>
      <trkpt lat="46.669692546129227" lon="8.556999703869224">
        <ele>1569.97</ele>
        <time>2013-08-04T08:38:30Z</time>
      </trkpt>
      <trkpt lat="46.669704867526889" lon="8.557100789621472">
        <ele>1570.9300000000001</ele>
        <time>2013-08-04T08:38:41Z</time>
      </trkpt>
      <trkpt lat="46.669684080407023" lon="8.557143453508616">
        <ele>1571.4100000000001</ele>
        <time>2013-08-04T08:38:56Z</time>
      </trkpt>
      <trkpt lat="46.669665807858109" lon="8.557138005271554">
        <ele>1571.4100000000001</ele>
        <time>2013-08-04T08:39:18Z</time>
      </trkpt>
      <trkpt lat="46.669665975496173" lon="8.557144962251186">
        <ele>1572.3699999999999</ele>
        <time>2013-08-04T08:39:36Z</time>
      </trkpt>
      <trkpt lat="46.669657090678811" lon="8.557244706898928">
        <ele>1574.3</ele>
        <time>2013-08-04T08:39:50Z</time>
      </trkpt>
      <trkpt lat="46.669631442055106" lon="8.557313187047839">
        <ele>1575.74</ele>
        <time>2013-08-04T08:40:01Z</time>
      </trkpt>
      <trkpt lat="46.669588861986995" lon="8.557368004694581">
        <ele>1577.6600000000001</ele>
        <time>2013-08-04T08:40:17Z</time>
      </trkpt>
      <trkpt lat="46.669579558074474" lon="8.557459535077214">
        <ele>1581.03</ele>
        <time>2013-08-04T08:40:35Z</time>
      </trkpt>
      <trkpt lat="46.669560195878148" lon="8.557485854253173">
        <ele>1582.95</ele>
        <time>2013-08-04T08:40:48Z</time>
      </trkpt>
      <trkpt lat="46.669546868652105" lon="8.557541007176042">
        <ele>1584.8699999999999</ele>
        <time>2013-08-04T08:41:01Z</time>
      </trkpt>
      <trkpt lat="46.669556759297848" lon="8.55755559168756">
        <ele>1586.79</ele>
        <time>2013-08-04T08:41:14Z</time>
      </trkpt>
      <trkpt lat="46.669557429850101" lon="8.55757269077003">
        <ele>1588.72</ele>
        <time>2013-08-04T08:41:27Z</time>
      </trkpt>
      <trkpt lat="46.669584419578314" lon="8.557682828977704">
        <ele>1590.1600000000001</ele>
        <time>2013-08-04T08:41:40Z</time>
      </trkpt>
      <trkpt lat="46.669612415134907" lon="8.557731276378036">
        <ele>1592.0799999999999</ele>
        <time>2013-08-04T08:41:54Z</time>
      </trkpt>
      <trkpt lat="46.669641248881817" lon="8.557765809819102">
        <ele>1593.52</ele>
        <time>2013-08-04T08:42:08Z</time>
      </trkpt>
      <trkpt lat="46.669696401804686" lon="8.55785951949656">
        <ele>1596.4100000000001</ele>
        <time>2013-08-04T08:42:23Z</time>
      </trkpt>
      <trkpt lat="46.669716602191329" lon="8.557940488681197">
        <ele>1598.8099999999999</ele>
        <time>2013-08-04T08:42:37Z</time>
      </trkpt>
      <trkpt lat="46.669723559170961" lon="8.558071916922927">
        <ele>1601.21</ele>
        <time>2013-08-04T08:42:51Z</time>
      </trkpt>
      <trkpt lat="46.669728588312864" lon="8.558095637708902">
        <ele>1602.1700000000001</ele>
        <time>2013-08-04T08:43:06Z</time>
      </trkpt>
      <trkpt lat="46.669681565836072" lon="8.558090357109904">
        <ele>1603.1400000000001</ele>
        <time>2013-08-04T08:43:37Z</time>
      </trkpt>
      <trkpt lat="46.669771587476134" lon="8.558122040703893">
        <ele>1605.0599999999999</ele>
        <time>2013-08-04T08:43:51Z</time>
      </trkpt>
      <trkpt lat="46.6698217112571" lon="8.558121453970671">
        <ele>1606.98</ele>
        <time>2013-08-04T08:44:06Z</time>
      </trkpt>
      <trkpt lat="46.669800756499171" lon="8.558247182518244">
        <ele>1609.3800000000001</ele>
        <time>2013-08-04T08:44:19Z</time>
      </trkpt>
      <trkpt lat="46.669811066240072" lon="8.558324296027422">
        <ele>1611.79</ele>
        <time>2013-08-04T08:44:33Z</time>
      </trkpt>
      <trkpt lat="46.669809892773628" lon="8.5583979729563">
        <ele>1612.75</ele>
        <time>2013-08-04T08:44:43Z</time>
      </trkpt>
      <trkpt lat="46.669808635488153" lon="8.558407863602042">
        <ele>1613.71</ele>
        <time>2013-08-04T08:44:46Z</time>
      </trkpt>
      <trkpt lat="46.66982464492321" lon="8.558503333479166">
        <ele>1615.6300000000001</ele>
        <time>2013-08-04T08:44:59Z</time>
      </trkpt>
      <trkpt lat="46.66983637958765" lon="8.558495286852121">
        <ele>1618.04</ele>
        <time>2013-08-04T08:45:13Z</time>
      </trkpt>
      <trkpt lat="46.669893795624375" lon="8.558466956019402">
        <ele>1619.48</ele>
        <time>2013-08-04T08:45:27Z</time>
      </trkpt>
      <trkpt lat="46.669939393177629" lon="8.558534262701869">
        <ele>1621.4000000000001</ele>
        <time>2013-08-04T08:45:40Z</time>
      </trkpt>
      <trkpt lat="46.669947439804673" lon="8.558573741465807">
        <ele>1623.3199999999999</ele>
        <time>2013-08-04T08:45:51Z</time>
      </trkpt>
      <trkpt lat="46.669988259673119" lon="8.558611460030079">
        <ele>1625.73</ele>
        <time>2013-08-04T08:46:04Z</time>
      </trkpt>
      <trkpt lat="46.670030504465103" lon="8.558616656810045">
        <ele>1627.6500000000001</ele>
        <time>2013-08-04T08:46:14Z</time>
      </trkpt>
      <trkpt lat="46.670075934380293" lon="8.558646747842431">
        <ele>1629.5699999999999</ele>
        <time>2013-08-04T08:46:25Z</time>
      </trkpt>
      <trkpt lat="46.670103007927537" lon="8.558741128072143">
        <ele>1631.01</ele>
        <time>2013-08-04T08:46:38Z</time>
      </trkpt>
      <trkpt lat="46.670112228021026" lon="8.558807009831071">
        <ele>1631.98</ele>
        <time>2013-08-04T08:46:53Z</time>
      </trkpt>
      <trkpt lat="46.670148856937885" lon="8.558916561305523">
        <ele>1634.8599999999999</ele>
        <time>2013-08-04T08:47:09Z</time>
      </trkpt>
      <trkpt lat="46.670153131708503" lon="8.558997781947255">
        <ele>1637.26</ele>
        <time>2013-08-04T08:47:23Z</time>
      </trkpt>
      <trkpt lat="46.670175511389971" lon="8.559077074751258">
        <ele>1639.6700000000001</ele>
        <time>2013-08-04T08:47:35Z</time>
      </trkpt>
      <trkpt lat="46.670220941305161" lon="8.55913482606411">
        <ele>1641.5899999999999</ele>
        <time>2013-08-04T08:47:48Z</time>
      </trkpt>
      <trkpt lat="46.670281877741218" lon="8.559175226837397">
        <ele>1643.99</ele>
        <time>2013-08-04T08:48:00Z</time>
      </trkpt>
      <trkpt lat="46.670313980430365" lon="8.559222836047411">
        <ele>1644.95</ele>
        <time>2013-08-04T08:48:13Z</time>
      </trkpt>
      <trkpt lat="46.670388327911496" lon="8.559278408065438">
        <ele>1647.3599999999999</ele>
        <time>2013-08-04T08:48:27Z</time>
      </trkpt>
      <trkpt lat="46.670427303761244" lon="8.559348229318857">
        <ele>1649.76</ele>
        <time>2013-08-04T08:48:40Z</time>
      </trkpt>
      <trkpt lat="46.670436104759574" lon="8.559452584013343">
        <ele>1651.2</ele>
        <time>2013-08-04T08:48:51Z</time>
      </trkpt>
      <trkpt lat="46.67049016803503" lon="8.559542773291469">
        <ele>1653.5999999999999</ele>
        <time>2013-08-04T08:49:07Z</time>
      </trkpt>
      <trkpt lat="46.670551523566246" lon="8.559595244005323">
        <ele>1656.49</ele>
        <time>2013-08-04T08:49:21Z</time>
      </trkpt>
      <trkpt lat="46.670617740601301" lon="8.559623826295137">
        <ele>1658.4100000000001</ele>
        <time>2013-08-04T08:49:35Z</time>
      </trkpt>
      <trkpt lat="46.670627379789948" lon="8.559676129370928">
        <ele>1658.8900000000001</ele>
        <time>2013-08-04T08:49:39Z</time>
      </trkpt>
      <trkpt lat="46.670620758086443" lon="8.559700101613998">
        <ele>1659.3699999999999</ele>
        <time>2013-08-04T08:49:42Z</time>
      </trkpt>
      <trkpt lat="46.670627882704139" lon="8.559876875951886">
        <ele>1660.3299999999999</ele>
        <time>2013-08-04T08:49:56Z</time>
      </trkpt>
      <trkpt lat="46.670669792219996" lon="8.560008220374584">
        <ele>1663.22</ele>
        <time>2013-08-04T08:50:10Z</time>
      </trkpt>
      <trkpt lat="46.670683287084103" lon="8.56008667498827">
        <ele>1663.7</ele>
        <time>2013-08-04T08:50:15Z</time>
      </trkpt>
      <trkpt lat="46.670676413923502" lon="8.560229754075408">
        <ele>1666.0999999999999</ele>
        <time>2013-08-04T08:50:29Z</time>
      </trkpt>
      <trkpt lat="46.670694267377257" lon="8.560296054929495">
        <ele>1667.0599999999999</ele>
        <time>2013-08-04T08:50:36Z</time>
      </trkpt>
      <trkpt lat="46.670755203813314" lon="8.560383478179574">
        <ele>1670.4300000000001</ele>
        <time>2013-08-04T08:50:51Z</time>
      </trkpt>
      <trkpt lat="46.670781690627337" lon="8.560453550890088">
        <ele>1671.3900000000001</ele>
        <time>2013-08-04T08:50:58Z</time>
      </trkpt>
      <trkpt lat="46.670853942632675" lon="8.560481881722808">
        <ele>1672.3499999999999</ele>
        <time>2013-08-04T08:51:10Z</time>
      </trkpt>
      <trkpt lat="46.670880764722824" lon="8.560606352984905">
        <ele>1672.8299999999999</ele>
        <time>2013-08-04T08:51:25Z</time>
      </trkpt>
      <trkpt lat="46.670910771936178" lon="8.560665110126138">
        <ele>1673.79</ele>
        <time>2013-08-04T08:51:38Z</time>
      </trkpt>
      <trkpt lat="46.670884620398283" lon="8.560682460665703">
        <ele>1673.3099999999999</ele>
        <time>2013-08-04T08:51:55Z</time>
      </trkpt>
      <trkpt lat="46.670878836885095" lon="8.560671396553516">
        <ele>1673.3099999999999</ele>
        <time>2013-08-04T08:52:19Z</time>
      </trkpt>
      <trkpt lat="46.670868610963225" lon="8.560714144259691">
        <ele>1673.79</ele>
        <time>2013-08-04T08:52:47Z</time>
      </trkpt>
      <trkpt lat="46.670862911269069" lon="8.560721520334482">
        <ele>1673.79</ele>
        <time>2013-08-04T08:53:15Z</time>
      </trkpt>
      <trkpt lat="46.670870538800955" lon="8.560644658282399">
        <ele>1674.27</ele>
        <time>2013-08-04T08:53:33Z</time>
      </trkpt>
      <trkpt lat="46.67085075750947" lon="8.560659075155854">
        <ele>1674.75</ele>
        <time>2013-08-04T08:54:05Z</time>
      </trkpt>
      <trkpt lat="46.670842543244362" lon="8.560696123167872">
        <ele>1674.75</ele>
        <time>2013-08-04T08:54:28Z</time>
      </trkpt>
      <trkpt lat="46.670863581821322" lon="8.560680951923132">
        <ele>1674.75</ele>
        <time>2013-08-04T08:54:59Z</time>
      </trkpt>
      <trkpt lat="46.670860396698117" lon="8.560694111511111">
        <ele>1675.23</ele>
        <time>2013-08-04T08:55:20Z</time>
      </trkpt>
      <trkpt lat="46.670852182433009" lon="8.56071213260293">
        <ele>1675.23</ele>
        <time>2013-08-04T08:55:50Z</time>
      </trkpt>
      <trkpt lat="46.670868191868067" lon="8.56071992777288">
        <ele>1675.23</ele>
        <time>2013-08-04T08:56:26Z</time>
      </trkpt>
      <trkpt lat="46.670858720317483" lon="8.560680449008942">
        <ele>1676.6800000000001</ele>
        <time>2013-08-04T08:56:57Z</time>
      </trkpt>
      <trkpt lat="46.670848075300455" lon="8.560698218643665">
        <ele>1676.6800000000001</ele>
        <time>2013-08-04T08:57:27Z</time>
      </trkpt>
      <trkpt lat="46.670852769166231" lon="8.560690591111779">
        <ele>1676.6800000000001</ele>
        <time>2013-08-04T08:57:51Z</time>
      </trkpt>
      <trkpt lat="46.670848745852709" lon="8.560671480372548">
        <ele>1678.1199999999999</ele>
        <time>2013-08-04T08:58:16Z</time>
      </trkpt>
      <trkpt lat="46.670812284573913" lon="8.560685561969876">
        <ele>1678.1199999999999</ele>
        <time>2013-08-04T08:58:38Z</time>
      </trkpt>
      <trkpt lat="46.670820834115148" lon="8.560667373239994">
        <ele>1677.6400000000001</ele>
        <time>2013-08-04T08:58:58Z</time>
      </trkpt>
      <trkpt lat="46.670815469697118" lon="8.560619596391916">
        <ele>1678.1199999999999</ele>
        <time>2013-08-04T08:59:26Z</time>
      </trkpt>
      <trkpt lat="46.670811949297786" lon="8.560622613877058">
        <ele>1679.0799999999999</ele>
        <time>2013-08-04T08:59:53Z</time>
      </trkpt>
      <trkpt lat="46.670831562951207" lon="8.560670809820294">
        <ele>1680.04</ele>
        <time>2013-08-04T09:00:17Z</time>
      </trkpt>
      <trkpt lat="46.670853104442358" lon="8.560686819255352">
        <ele>1680.52</ele>
        <time>2013-08-04T09:00:45Z</time>
      </trkpt>
      <trkpt lat="46.670852266252041" lon="8.560701152309775">
        <ele>1680.52</ele>
        <time>2013-08-04T09:01:22Z</time>
      </trkpt>
      <trkpt lat="46.670844303444028" lon="8.560725124552846">
        <ele>1680.52</ele>
        <time>2013-08-04T09:01:44Z</time>
      </trkpt>
      <trkpt lat="46.670870706439018" lon="8.560687825083733">
        <ele>1681.48</ele>
        <time>2013-08-04T09:02:17Z</time>
      </trkpt>
      <trkpt lat="46.670844638720155" lon="8.560682293027639">
        <ele>1681.48</ele>
        <time>2013-08-04T09:02:52Z</time>
      </trkpt>
      <trkpt lat="46.6708370950073" lon="8.56068380177021">
        <ele>1681.96</ele>
        <time>2013-08-04T09:03:23Z</time>
      </trkpt>
      <trkpt lat="46.670822510495782" lon="8.560666954144836">
        <ele>1681.96</ele>
        <time>2013-08-04T09:03:58Z</time>
      </trkpt>
      <trkpt lat="46.670816726982594" lon="8.560666115954518">
        <ele>1682.9300000000001</ele>
        <time>2013-08-04T09:04:26Z</time>
      </trkpt>
      <trkpt lat="46.670822845771909" lon="8.560675755143166">
        <ele>1682.9300000000001</ele>
        <time>2013-08-04T09:04:49Z</time>
      </trkpt>
      <trkpt lat="46.670823097229004" lon="8.560669552534819">
        <ele>1683.4100000000001</ele>
        <time>2013-08-04T09:05:18Z</time>
      </trkpt>
      <trkpt lat="46.670778254047036" lon="8.560653124004602">
        <ele>1683.4100000000001</ele>
        <time>2013-08-04T09:05:44Z</time>
      </trkpt>
      <trkpt lat="46.670798538252711" lon="8.560625379905105">
        <ele>1684.3699999999999</ele>
        <time>2013-08-04T09:06:12Z</time>
      </trkpt>
      <trkpt lat="46.670806501060724" lon="8.560640383511782">
        <ele>1684.3699999999999</ele>
        <time>2013-08-04T09:06:40Z</time>
      </trkpt>
      <trkpt lat="46.6708111949265" lon="8.560631331056356">
        <ele>1684.3699999999999</ele>
        <time>2013-08-04T09:07:08Z</time>
      </trkpt>
      <trkpt lat="46.67080138809979" lon="8.560617584735155">
        <ele>1684.8499999999999</ele>
        <time>2013-08-04T09:07:42Z</time>
      </trkpt>
      <trkpt lat="46.67080189101398" lon="8.560629906132817">
        <ele>1684.8499999999999</ele>
        <time>2013-08-04T09:08:15Z</time>
      </trkpt>
      <trkpt lat="46.670837011188269" lon="8.560639293864369">
        <ele>1684.8499999999999</ele>
        <time>2013-08-04T09:08:50Z</time>
      </trkpt>
      <trkpt lat="46.670804489403963" lon="8.560612471774221">
        <ele>1684.8499999999999</ele>
        <time>2013-08-04T09:09:29Z</time>
      </trkpt>
      <trkpt lat="46.670792922377586" lon="8.560627307742834">
        <ele>1684.8499999999999</ele>
        <time>2013-08-04T09:10:01Z</time>
      </trkpt>
      <trkpt lat="46.670798119157553" lon="8.560634767636657">
        <ele>1685.3299999999999</ele>
        <time>2013-08-04T09:10:30Z</time>
      </trkpt>
      <trkpt lat="46.670897947624326" lon="8.560700649395585">
        <ele>1685.3299999999999</ele>
        <time>2013-08-04T09:10:58Z</time>
      </trkpt>
      <trkpt lat="46.670891661196947" lon="8.560730824247003">
        <ele>1685.3299999999999</ele>
        <time>2013-08-04T09:11:33Z</time>
      </trkpt>
      <trkpt lat="46.670900881290436" lon="8.560702996328473">
        <ele>1685.8099999999999</ele>
        <time>2013-08-04T09:11:58Z</time>
      </trkpt>
      <trkpt lat="46.670890906825662" lon="8.560703666880727">
        <ele>1685.8099999999999</ele>
        <time>2013-08-04T09:12:00Z</time>
      </trkpt>
      <trkpt lat="46.670881938189268" lon="8.560721268877387">
        <ele>1687.25</ele>
        <time>2013-08-04T09:12:12Z</time>
      </trkpt>
      <trkpt lat="46.670879172161222" lon="8.560767369344831">
        <ele>1686.29</ele>
        <time>2013-08-04T09:12:25Z</time>
      </trkpt>
      <trkpt lat="46.670866096392274" lon="8.560731830075383">
        <ele>1685.8099999999999</ele>
        <time>2013-08-04T09:12:38Z</time>
      </trkpt>
      <trkpt lat="46.670914795249701" lon="8.560702661052346">
        <ele>1687.73</ele>
        <time>2013-08-04T09:12:51Z</time>
      </trkpt>
      <trkpt lat="46.670957794412971" lon="8.560576094314456">
        <ele>1690.1400000000001</ele>
        <time>2013-08-04T09:13:05Z</time>
      </trkpt>
      <trkpt lat="46.670985203236341" lon="8.560446007177234">
        <ele>1691.5799999999999</ele>
        <time>2013-08-04T09:13:17Z</time>
      </trkpt>
      <trkpt lat="46.671006409451365" lon="8.560333857312799">
        <ele>1693.98</ele>
        <time>2013-08-04T09:13:31Z</time>
      </trkpt>
      <trkpt lat="46.671031303703785" lon="8.560270071029663">
        <ele>1695.9000000000001</ele>
        <time>2013-08-04T09:13:39Z</time>
      </trkpt>
      <trkpt lat="46.6710374224931" lon="8.560219947248697">
        <ele>1698.3099999999999</ele>
        <time>2013-08-04T09:13:53Z</time>
      </trkpt>
      <trkpt lat="46.671053767204285" lon="8.560126656666398">
        <ele>1699.75</ele>
        <time>2013-08-04T09:14:05Z</time>
      </trkpt>
      <trkpt lat="46.671083103865385" lon="8.560075191780925">
        <ele>1702.1500000000001</ele>
        <time>2013-08-04T09:14:19Z</time>
      </trkpt>
      <trkpt lat="46.671137502416968" lon="8.56018784455955">
        <ele>1703.5899999999999</ele>
        <time>2013-08-04T09:14:35Z</time>
      </trkpt>
      <trkpt lat="46.671190559864044" lon="8.560286918655038">
        <ele>1705.04</ele>
        <time>2013-08-04T09:14:47Z</time>
      </trkpt>
      <trkpt lat="46.671214364469051" lon="8.560378365218639">
        <ele>1706.96</ele>
        <time>2013-08-04T09:15:00Z</time>
      </trkpt>
      <trkpt lat="46.671221237629652" lon="8.560480289161205">
        <ele>1708.4000000000001</ele>
        <time>2013-08-04T09:15:15Z</time>
      </trkpt>
      <trkpt lat="46.67122408747673" lon="8.560592439025641">
        <ele>1710.3199999999999</ele>
        <time>2013-08-04T09:15:32Z</time>
      </trkpt>
      <trkpt lat="46.671235738322139" lon="8.560701319947839">
        <ele>1712.73</ele>
        <time>2013-08-04T09:15:48Z</time>
      </trkpt>
      <trkpt lat="46.671264069154859" lon="8.560794023796916">
        <ele>1714.1700000000001</ele>
        <time>2013-08-04T09:16:03Z</time>
      </trkpt>
      <trkpt lat="46.671236911788583" lon="8.560732249170542">
        <ele>1717.05</ele>
        <time>2013-08-04T09:16:18Z</time>
      </trkpt>
      <trkpt lat="46.67123288847506" lon="8.560651279985905">
        <ele>1718.97</ele>
        <time>2013-08-04T09:16:31Z</time>
      </trkpt>
      <trkpt lat="46.671266919001937" lon="8.560601826757193">
        <ele>1720.9000000000001</ele>
        <time>2013-08-04T09:16:43Z</time>
      </trkpt>
      <trkpt lat="46.671268930658698" lon="8.560541560873389">
        <ele>1722.8199999999999</ele>
        <time>2013-08-04T09:16:55Z</time>
      </trkpt>
      <trkpt lat="46.671293992549181" lon="8.560432512313128">
        <ele>1724.74</ele>
        <time>2013-08-04T09:17:09Z</time>
      </trkpt>
      <trkpt lat="46.67134084738791" lon="8.560444246977568">
        <ele>1726.1800000000001</ele>
        <time>2013-08-04T09:17:19Z</time>
      </trkpt>
      <trkpt lat="46.671411087736487" lon="8.560577435418963">
        <ele>1728.5899999999999</ele>
        <time>2013-08-04T09:17:33Z</time>
      </trkpt>
      <trkpt lat="46.671496583148837" lon="8.560709366574884">
        <ele>1730.03</ele>
        <time>2013-08-04T09:17:48Z</time>
      </trkpt>
      <trkpt lat="46.67154997587204" lon="8.560854960232973">
        <ele>1731.95</ele>
        <time>2013-08-04T09:18:04Z</time>
      </trkpt>
      <trkpt lat="46.671566320583224" lon="8.560941712930799">
        <ele>1733.8800000000001</ele>
        <time>2013-08-04T09:18:20Z</time>
      </trkpt>
      <trkpt lat="46.671581491827965" lon="8.560971803963184">
        <ele>1734.8399999999999</ele>
        <time>2013-08-04T09:18:32Z</time>
      </trkpt>
      <trkpt lat="46.671590209007263" lon="8.561047073453665">
        <ele>1736.28</ele>
        <time>2013-08-04T09:18:46Z</time>
      </trkpt>
      <trkpt lat="46.671643937006593" lon="8.561088899150491">
        <ele>1737.72</ele>
        <time>2013-08-04T09:19:00Z</time>
      </trkpt>
      <trkpt lat="46.671691462397575" lon="8.561151176691055">
        <ele>1738.6800000000001</ele>
        <time>2013-08-04T09:19:13Z</time>
      </trkpt>
      <trkpt lat="46.671682158485055" lon="8.561271959915757">
        <ele>1741.5699999999999</ele>
        <time>2013-08-04T09:19:28Z</time>
      </trkpt>
      <trkpt lat="46.671678135171533" lon="8.561384193599224">
        <ele>1743.01</ele>
        <time>2013-08-04T09:19:44Z</time>
      </trkpt>
      <trkpt lat="46.671729348599911" lon="8.561522914096713">
        <ele>1744.9300000000001</ele>
        <time>2013-08-04T09:19:57Z</time>
      </trkpt>
      <trkpt lat="46.671728510409594" lon="8.561607403680682">
        <ele>1746.3699999999999</ele>
        <time>2013-08-04T09:20:11Z</time>
      </trkpt>
      <trkpt lat="46.671736724674702" lon="8.561674794182181">
        <ele>1748.29</ele>
        <time>2013-08-04T09:20:27Z</time>
      </trkpt>
      <trkpt lat="46.671821298077703" lon="8.561763809993863">
        <ele>1748.78</ele>
        <time>2013-08-04T09:20:44Z</time>
      </trkpt>
      <trkpt lat="46.671821130439639" lon="8.561785854399204">
        <ele>1750.7</ele>
        <time>2013-08-04T09:20:58Z</time>
      </trkpt>
      <trkpt lat="46.671827165409923" lon="8.561887526884675">
        <ele>1752.6199999999999</ele>
        <time>2013-08-04T09:21:10Z</time>
      </trkpt>
      <trkpt lat="46.671842923387885" lon="8.561920803040266">
        <ele>1754.54</ele>
        <time>2013-08-04T09:21:25Z</time>
      </trkpt>
      <trkpt lat="46.671866225078702" lon="8.562055416405201">
        <ele>1756.95</ele>
        <time>2013-08-04T09:21:41Z</time>
      </trkpt>
      <trkpt lat="46.671842839568853" lon="8.562053572386503">
        <ele>1758.3900000000001</ele>
        <time>2013-08-04T09:21:56Z</time>
      </trkpt>
      <trkpt lat="46.671933196485043" lon="8.56214820407331">
        <ele>1760.79</ele>
        <time>2013-08-04T09:22:10Z</time>
      </trkpt>
      <trkpt lat="46.671887515112758" lon="8.562060529366136">
        <ele>1762.71</ele>
        <time>2013-08-04T09:22:23Z</time>
      </trkpt>
      <trkpt lat="46.671912744641304" lon="8.561968579888344">
        <ele>1764.6400000000001</ele>
        <time>2013-08-04T09:22:38Z</time>
      </trkpt>
      <trkpt lat="46.671952223405242" lon="8.56190487742424">
        <ele>1766.5599999999999</ele>
        <time>2013-08-04T09:22:52Z</time>
      </trkpt>
      <trkpt lat="46.671972926706076" lon="8.561780238524079">
        <ele>1768</ele>
        <time>2013-08-04T09:23:06Z</time>
      </trkpt>
      <trkpt lat="46.67200586758554" lon="8.561721984297037">
        <ele>1768.48</ele>
        <time>2013-08-04T09:23:18Z</time>
      </trkpt>
      <trkpt lat="46.672120783478022" lon="8.561879564076662">
        <ele>1770.8900000000001</ele>
        <time>2013-08-04T09:23:35Z</time>
      </trkpt>
      <trkpt lat="46.672133188694715" lon="8.561944020912051">
        <ele>1772.8099999999999</ele>
        <time>2013-08-04T09:23:49Z</time>
      </trkpt>
      <trkpt lat="46.672113323584199" lon="8.561886856332421">
        <ele>1775.21</ele>
        <time>2013-08-04T09:24:01Z</time>
      </trkpt>
      <trkpt lat="46.672140313312411" lon="8.561824997887015">
        <ele>1777.1300000000001</ele>
        <time>2013-08-04T09:24:14Z</time>
      </trkpt>
      <trkpt lat="46.672149449586868" lon="8.561734221875668">
        <ele>1779.0599999999999</ele>
        <time>2013-08-04T09:24:29Z</time>
      </trkpt>
      <trkpt lat="46.672175517305732" lon="8.561670519411564">
        <ele>1781.46</ele>
        <time>2013-08-04T09:24:43Z</time>
      </trkpt>
      <trkpt lat="46.672208039090037" lon="8.561745202168822">
        <ele>1782.9000000000001</ele>
        <time>2013-08-04T09:24:55Z</time>
      </trkpt>
      <trkpt lat="46.672302251681685" lon="8.561874534934759">
        <ele>1784.8199999999999</ele>
        <time>2013-08-04T09:25:11Z</time>
      </trkpt>
      <trkpt lat="46.672353046014905" lon="8.561900854110718">
        <ele>1786.75</ele>
        <time>2013-08-04T09:25:23Z</time>
      </trkpt>
      <trkpt lat="46.67245396412909" lon="8.56197034008801">
        <ele>1788.6700000000001</ele>
        <time>2013-08-04T09:25:40Z</time>
      </trkpt>
      <trkpt lat="46.672457065433264" lon="8.561897082254291">
        <ele>1790.5899999999999</ele>
        <time>2013-08-04T09:25:55Z</time>
      </trkpt>
      <trkpt lat="46.672463687136769" lon="8.561853328719735">
        <ele>1791.55</ele>
        <time>2013-08-04T09:26:02Z</time>
      </trkpt>
      <trkpt lat="46.672450695186853" lon="8.561768336221576">
        <ele>1793</ele>
        <time>2013-08-04T09:26:13Z</time>
      </trkpt>
      <trkpt lat="46.672482881695032" lon="8.561698598787189">
        <ele>1794.4400000000001</ele>
        <time>2013-08-04T09:26:25Z</time>
      </trkpt>
      <trkpt lat="46.672543566673994" lon="8.561763390898705">
        <ele>1796.3599999999999</ele>
        <time>2013-08-04T09:26:38Z</time>
      </trkpt>
      <trkpt lat="46.672596707940102" lon="8.561821896582842">
        <ele>1798.28</ele>
        <time>2013-08-04T09:26:53Z</time>
      </trkpt>
      <trkpt lat="46.672595953568816" lon="8.561841510236263">
        <ele>1798.76</ele>
        <time>2013-08-04T09:27:10Z</time>
      </trkpt>
      <trkpt lat="46.672615902498364" lon="8.561896327883005">
        <ele>1798.76</ele>
        <time>2013-08-04T09:27:32Z</time>
      </trkpt>
      <trkpt lat="46.672635599970818" lon="8.561923401430249">
        <ele>1799.24</ele>
        <time>2013-08-04T09:27:50Z</time>
      </trkpt>
      <trkpt lat="46.67265772819519" lon="8.56191317550838">
        <ele>1800.21</ele>
        <time>2013-08-04T09:27:54Z</time>
      </trkpt>
      <trkpt lat="46.67271732352674" lon="8.56188090518117">
        <ele>1801.1700000000001</ele>
        <time>2013-08-04T09:28:02Z</time>
      </trkpt>
      <trkpt lat="46.672767782583833" lon="8.561931196600199">
        <ele>1802.6099999999999</ele>
        <time>2013-08-04T09:28:17Z</time>
      </trkpt>
      <trkpt lat="46.672753365710378" lon="8.561881072819233">
        <ele>1804.05</ele>
        <time>2013-08-04T09:28:31Z</time>
      </trkpt>
      <trkpt lat="46.672757808119059" lon="8.561788368970156">
        <ele>1805.49</ele>
        <time>2013-08-04T09:28:45Z</time>
      </trkpt>
      <trkpt lat="46.672740373760462" lon="8.56172114610672">
        <ele>1805.97</ele>
        <time>2013-08-04T09:29:01Z</time>
      </trkpt>
      <trkpt lat="46.672774655744433" lon="8.561630789190531">
        <ele>1807.4200000000001</ele>
        <time>2013-08-04T09:29:13Z</time>
      </trkpt>
      <trkpt lat="46.672843974083662" lon="8.561675129458308">
        <ele>1809.3399999999999</ele>
        <time>2013-08-04T09:29:26Z</time>
      </trkpt>
      <trkpt lat="46.672904826700687" lon="8.56170941144228">
        <ele>1810.78</ele>
        <time>2013-08-04T09:29:41Z</time>
      </trkpt>
      <trkpt lat="46.672994680702686" lon="8.56165518052876">
        <ele>1811.74</ele>
        <time>2013-08-04T09:29:54Z</time>
      </trkpt>
      <trkpt lat="46.673048911616206" lon="8.561652163043618">
        <ele>1811.74</ele>
        <time>2013-08-04T09:30:02Z</time>
      </trkpt>
      <trkpt lat="46.673131221905351" lon="8.561739083379507">
        <ele>1814.6300000000001</ele>
        <time>2013-08-04T09:30:16Z</time>
      </trkpt>
      <trkpt lat="46.673125186935067" lon="8.56166155077517">
        <ele>1816.55</ele>
        <time>2013-08-04T09:30:30Z</time>
      </trkpt>
      <trkpt lat="46.673159720376134" lon="8.561606565490365">
        <ele>1817.99</ele>
        <time>2013-08-04T09:30:42Z</time>
      </trkpt>
      <trkpt lat="46.673175981268287" lon="8.561516208574176">
        <ele>1820.3900000000001</ele>
        <time>2013-08-04T09:30:54Z</time>
      </trkpt>
      <trkpt lat="46.673219399526715" lon="8.561520567163825">
        <ele>1821.8399999999999</ele>
        <time>2013-08-04T09:31:05Z</time>
      </trkpt>
      <trkpt lat="46.673290058970451" lon="8.561603464186192">
        <ele>1825.2</ele>
        <time>2013-08-04T09:31:18Z</time>
      </trkpt>
      <trkpt lat="46.673323418945074" lon="8.561561135575175">
        <ele>1826.6400000000001</ele>
        <time>2013-08-04T09:31:29Z</time>
      </trkpt>
      <trkpt lat="46.673356611281633" lon="8.561580246314406">
        <ele>1829.05</ele>
        <time>2013-08-04T09:31:42Z</time>
      </trkpt>
      <trkpt lat="46.673380499705672" lon="8.561524590477347">
        <ele>1830.97</ele>
        <time>2013-08-04T09:31:55Z</time>
      </trkpt>
      <trkpt lat="46.673387959599495" lon="8.561539258807898">
        <ele>1831.45</ele>
        <time>2013-08-04T09:31:57Z</time>
      </trkpt>
      <trkpt lat="46.673470605164766" lon="8.56164394877851">
        <ele>1832.8900000000001</ele>
        <time>2013-08-04T09:32:10Z</time>
      </trkpt>
      <trkpt lat="46.673530032858253" lon="8.561723409220576">
        <ele>1835.29</ele>
        <time>2013-08-04T09:32:25Z</time>
      </trkpt>
      <trkpt lat="46.673527602106333" lon="8.56155694462359">
        <ele>1837.7</ele>
        <time>2013-08-04T09:32:38Z</time>
      </trkpt>
      <trkpt lat="46.673562722280622" lon="8.561404813081026">
        <ele>1839.1400000000001</ele>
        <time>2013-08-04T09:32:51Z</time>
      </trkpt>
      <trkpt lat="46.673586862161756" lon="8.561353767290711">
        <ele>1840.0999999999999</ele>
        <time>2013-08-04T09:32:58Z</time>
      </trkpt>
      <trkpt lat="46.673692557960749" lon="8.561289561912417">
        <ele>1842.5</ele>
        <time>2013-08-04T09:33:12Z</time>
      </trkpt>
      <trkpt lat="46.673760451376438" lon="8.561254441738129">
        <ele>1844.9100000000001</ele>
        <time>2013-08-04T09:33:26Z</time>
      </trkpt>
      <trkpt lat="46.673861620947719" lon="8.56122761964798">
        <ele>1846.8299999999999</ele>
        <time>2013-08-04T09:33:40Z</time>
      </trkpt>
      <trkpt lat="46.673916019499302" lon="8.561231391504407">
        <ele>1848.27</ele>
        <time>2013-08-04T09:33:46Z</time>
      </trkpt>
      <trkpt lat="46.673997491598129" lon="8.561244886368513">
        <ele>1851.1600000000001</ele>
        <time>2013-08-04T09:33:59Z</time>
      </trkpt>
      <trkpt lat="46.67408206500113" lon="8.561298195272684">
        <ele>1852.5999999999999</ele>
        <time>2013-08-04T09:34:11Z</time>
      </trkpt>
      <trkpt lat="46.674159849062562" lon="8.561310349032283">
        <ele>1855</ele>
        <time>2013-08-04T09:34:24Z</time>
      </trkpt>
      <trkpt lat="46.674173846840858" lon="8.561301548033953">
        <ele>1855.48</ele>
        <time>2013-08-04T09:34:27Z</time>
      </trkpt>
      <trkpt lat="46.674213828518987" lon="8.561216974630952">
        <ele>1856.4400000000001</ele>
        <time>2013-08-04T09:34:35Z</time>
      </trkpt>
      <trkpt lat="46.67431365698576" lon="8.561167186126113">
        <ele>1856.4400000000001</ele>
        <time>2013-08-04T09:34:50Z</time>
      </trkpt>
      <trkpt lat="46.674419185146689" lon="8.561153942719102">
        <ele>1856.4400000000001</ele>
        <time>2013-08-04T09:35:05Z</time>
      </trkpt>
      <trkpt lat="46.674452712759376" lon="8.56116408482194">
        <ele>1860.29</ele>
        <time>2013-08-04T09:35:10Z</time>
      </trkpt>
      <trkpt lat="46.674455981701612" lon="8.561166264116764">
        <ele>1860.29</ele>
        <time>2013-08-04T09:35:11Z</time>
      </trkpt>
      <trkpt lat="46.674578106030822" lon="8.561217226088047">
        <ele>1862.21</ele>
        <time>2013-08-04T09:35:27Z</time>
      </trkpt>
      <trkpt lat="46.674647843465209" lon="8.561174226924777">
        <ele>1864.6099999999999</ele>
        <time>2013-08-04T09:35:36Z</time>
      </trkpt>
      <trkpt lat="46.674720263108611" lon="8.561162240803242">
        <ele>1867.98</ele>
        <time>2013-08-04T09:35:50Z</time>
      </trkpt>
      <trkpt lat="46.674805339425802" lon="8.561181938275695">
        <ele>1870.3800000000001</ele>
        <time>2013-08-04T09:36:05Z</time>
      </trkpt>
      <trkpt lat="46.674884632229805" lon="8.561244215816259">
        <ele>1873.75</ele>
        <time>2013-08-04T09:36:19Z</time>
      </trkpt>
      <trkpt lat="46.674928637221456" lon="8.56130045838654">
        <ele>1876.6300000000001</ele>
        <time>2013-08-04T09:36:31Z</time>
      </trkpt>
      <trkpt lat="46.674957387149334" lon="8.561208173632622">
        <ele>1878.0699999999999</ele>
        <time>2013-08-04T09:36:43Z</time>
      </trkpt>
      <trkpt lat="46.675033327192068" lon="8.561260057613254">
        <ele>1880.48</ele>
        <time>2013-08-04T09:36:55Z</time>
      </trkpt>
      <trkpt lat="46.675073308870196" lon="8.56127112172544">
        <ele>1881.4400000000001</ele>
        <time>2013-08-04T09:37:06Z</time>
      </trkpt>
      <trkpt lat="46.675123935565352" lon="8.561314539983869">
        <ele>1883.8399999999999</ele>
        <time>2013-08-04T09:37:20Z</time>
      </trkpt>
      <trkpt lat="46.675171041861176" lon="8.561368519440293">
        <ele>1885.76</ele>
        <time>2013-08-04T09:37:34Z</time>
      </trkpt>
      <trkpt lat="46.675221081823111" lon="8.561378493905067">
        <ele>1888.1700000000001</ele>
        <time>2013-08-04T09:37:46Z</time>
      </trkpt>
      <trkpt lat="46.675274893641472" lon="8.561361478641629">
        <ele>1890.0899999999999</ele>
        <time>2013-08-04T09:37:59Z</time>
      </trkpt>
      <trkpt lat="46.67525821365416" lon="8.561267433688045">
        <ele>1892.97</ele>
        <time>2013-08-04T09:38:10Z</time>
      </trkpt>
      <trkpt lat="46.675285790115595" lon="8.561151931062341">
        <ele>1895.8599999999999</ele>
        <time>2013-08-04T09:38:24Z</time>
      </trkpt>
      <trkpt lat="46.675264248624444" lon="8.561050007119775">
        <ele>1898.26</ele>
        <time>2013-08-04T09:38:36Z</time>
      </trkpt>
      <trkpt lat="46.675253268331289" lon="8.560944395139813">
        <ele>1901.1400000000001</ele>
        <time>2013-08-04T09:38:48Z</time>
      </trkpt>
      <trkpt lat="46.675220746546984" lon="8.560868538916111">
        <ele>1902.5899999999999</ele>
        <time>2013-08-04T09:38:58Z</time>
      </trkpt>
      <trkpt lat="46.675223177298903" lon="8.560758987441659">
        <ele>1904.03</ele>
        <time>2013-08-04T09:39:11Z</time>
      </trkpt>
      <trkpt lat="46.675206832587719" lon="8.560658823698759">
        <ele>1905.95</ele>
        <time>2013-08-04T09:39:22Z</time>
      </trkpt>
      <trkpt lat="46.675195014104247" lon="8.560559749603272">
        <ele>1908.3499999999999</ele>
        <time>2013-08-04T09:39:35Z</time>
      </trkpt>
      <trkpt lat="46.675220159813762" lon="8.560439888387919">
        <ele>1910.76</ele>
        <time>2013-08-04T09:39:50Z</time>
      </trkpt>
      <trkpt lat="46.675223596394062" lon="8.560415916144848">
        <ele>1911.72</ele>
        <time>2013-08-04T09:39:52Z</time>
      </trkpt>
      <trkpt lat="46.675270954146981" lon="8.560277782380581">
        <ele>1912.6800000000001</ele>
        <time>2013-08-04T09:40:05Z</time>
      </trkpt>
      <trkpt lat="46.675311354920268" lon="8.56017024256289">
        <ele>1915.5599999999999</ele>
        <time>2013-08-04T09:40:18Z</time>
      </trkpt>
      <trkpt lat="46.675372123718262" lon="8.560137301683426">
        <ele>1917.49</ele>
        <time>2013-08-04T09:40:29Z</time>
      </trkpt>
      <trkpt lat="46.675448147580028" lon="8.560080472379923">
        <ele>1918.9300000000001</ele>
        <time>2013-08-04T09:40:44Z</time>
      </trkpt>
      <trkpt lat="46.675461390987039" lon="8.559987433254719">
        <ele>1921.3299999999999</ele>
        <time>2013-08-04T09:40:55Z</time>
      </trkpt>
      <trkpt lat="46.675453679636121" lon="8.559927837923169">
        <ele>1921.8099999999999</ele>
        <time>2013-08-04T09:41:00Z</time>
      </trkpt>
      <trkpt lat="46.675451165065169" lon="8.559898920357227">
        <ele>1922.29</ele>
        <time>2013-08-04T09:41:02Z</time>
      </trkpt>
      <trkpt lat="46.675464324653149" lon="8.55981795117259">
        <ele>1924.22</ele>
        <time>2013-08-04T09:41:16Z</time>
      </trkpt>
      <trkpt lat="46.675461223348975" lon="8.559730444103479">
        <ele>1925.1800000000001</ele>
        <time>2013-08-04T09:41:29Z</time>
      </trkpt>
      <trkpt lat="46.675512436777353" lon="8.559566494077444">
        <ele>1927.0999999999999</ele>
        <time>2013-08-04T09:41:44Z</time>
      </trkpt>
      <trkpt lat="46.675531715154648" lon="8.559483261778951">
        <ele>1927.0999999999999</ele>
        <time>2013-08-04T09:41:50Z</time>
      </trkpt>
      <trkpt lat="46.675584269687533" lon="8.559357197955251">
        <ele>1929.5</ele>
        <time>2013-08-04T09:42:03Z</time>
      </trkpt>
      <trkpt lat="46.675588963553309" lon="8.559337416663766">
        <ele>1929.98</ele>
        <time>2013-08-04T09:42:05Z</time>
      </trkpt>
      <trkpt lat="46.675589634105563" lon="8.559299530461431">
        <ele>1930.46</ele>
        <time>2013-08-04T09:42:10Z</time>
      </trkpt>
      <trkpt lat="46.675575468689203" lon="8.559167347848415">
        <ele>1932.8699999999999</ele>
        <time>2013-08-04T09:42:24Z</time>
      </trkpt>
      <trkpt lat="46.675541019067168" lon="8.559116721153259">
        <ele>1934.3099999999999</ele>
        <time>2013-08-04T09:42:31Z</time>
      </trkpt>
      <trkpt lat="46.675513358786702" lon="8.55909232981503">
        <ele>1935.27</ele>
        <time>2013-08-04T09:42:35Z</time>
      </trkpt>
      <trkpt lat="46.675501372665167" lon="8.559055365622044">
        <ele>1935.27</ele>
        <time>2013-08-04T09:42:38Z</time>
      </trkpt>
      <trkpt lat="46.675537247210741" lon="8.558915220201016">
        <ele>1936.23</ele>
        <time>2013-08-04T09:42:50Z</time>
      </trkpt>
      <trkpt lat="46.675540264695883" lon="8.558719670400024">
        <ele>1936.71</ele>
        <time>2013-08-04T09:43:05Z</time>
      </trkpt>
      <trkpt lat="46.67552450671792" lon="8.558643311262131">
        <ele>1938.6400000000001</ele>
        <time>2013-08-04T09:43:13Z</time>
      </trkpt>
      <trkpt lat="46.675518304109573" lon="8.558625541627407">
        <ele>1938.6400000000001</ele>
        <time>2013-08-04T09:43:15Z</time>
      </trkpt>
      <trkpt lat="46.675531547516584" lon="8.558580614626408">
        <ele>1939.5999999999999</ele>
        <time>2013-08-04T09:43:19Z</time>
      </trkpt>
      <trkpt lat="46.67553280480206" lon="8.558539291843772">
        <ele>1940.0799999999999</ele>
        <time>2013-08-04T09:43:22Z</time>
      </trkpt>
      <trkpt lat="46.675580414012074" lon="8.558405851945281">
        <ele>1941.52</ele>
        <time>2013-08-04T09:43:35Z</time>
      </trkpt>
      <trkpt lat="46.675579324364662" lon="8.558396380394697">
        <ele>1941.52</ele>
        <time>2013-08-04T09:43:36Z</time>
      </trkpt>
      <trkpt lat="46.67558116838336" lon="8.558284817263484">
        <ele>1942.48</ele>
        <time>2013-08-04T09:43:48Z</time>
      </trkpt>
      <trkpt lat="46.675574462860823" lon="8.558186497539282">
        <ele>1944.4000000000001</ele>
        <time>2013-08-04T09:44:00Z</time>
      </trkpt>
      <trkpt lat="46.675540432333946" lon="8.558061355724931">
        <ele>1945.8499999999999</ele>
        <time>2013-08-04T09:44:13Z</time>
      </trkpt>
      <trkpt lat="46.6755376663059" lon="8.557939818128943">
        <ele>1947.77</ele>
        <time>2013-08-04T09:44:26Z</time>
      </trkpt>
      <trkpt lat="46.675535067915916" lon="8.557843007147312">
        <ele>1949.21</ele>
        <time>2013-08-04T09:44:38Z</time>
      </trkpt>
      <trkpt lat="46.675541354343295" lon="8.557759774848819">
        <ele>1950.6500000000001</ele>
        <time>2013-08-04T09:44:51Z</time>
      </trkpt>
      <trkpt lat="46.67556993663311" lon="8.557683080434799">
        <ele>1952.5699999999999</ele>
        <time>2013-08-04T09:45:03Z</time>
      </trkpt>
      <trkpt lat="46.675578150898218" lon="8.557633711025119">
        <ele>1954.02</ele>
        <time>2013-08-04T09:45:13Z</time>
      </trkpt>
      <trkpt lat="46.675612181425095" lon="8.557579144835472">
        <ele>1955.46</ele>
        <time>2013-08-04T09:45:26Z</time>
      </trkpt>
      <trkpt lat="46.67562073096633" lon="8.557521980255842">
        <ele>1957.3800000000001</ele>
        <time>2013-08-04T09:45:37Z</time>
      </trkpt>
      <trkpt lat="46.675621485337615" lon="8.557420056313276">
        <ele>1959.78</ele>
        <time>2013-08-04T09:45:52Z</time>
      </trkpt>
      <trkpt lat="46.675659790635109" lon="8.557408740743995">
        <ele>1961.71</ele>
        <time>2013-08-04T09:46:06Z</time>
      </trkpt>
      <trkpt lat="46.675728103145957" lon="8.557397508993745">
        <ele>1963.6300000000001</ele>
        <time>2013-08-04T09:46:19Z</time>
      </trkpt>
      <trkpt lat="46.675786944106221" lon="8.557433132082224">
        <ele>1965.0699999999999</ele>
        <time>2013-08-04T09:46:31Z</time>
      </trkpt>
      <trkpt lat="46.675830027088523" lon="8.557480908930302">
        <ele>1966.03</ele>
        <time>2013-08-04T09:46:46Z</time>
      </trkpt>
      <trkpt lat="46.675871852785349" lon="8.557516615837812">
        <ele>1967.48</ele>
        <time>2013-08-04T09:46:53Z</time>
      </trkpt>
      <trkpt lat="46.675908816978335" lon="8.557515777647495">
        <ele>1969.4000000000001</ele>
        <time>2013-08-04T09:47:06Z</time>
      </trkpt>
      <trkpt lat="46.675855843350291" lon="8.557422906160355">
        <ele>1971.3199999999999</ele>
        <time>2013-08-04T09:47:18Z</time>
      </trkpt>
      <trkpt lat="46.675838241353631" lon="8.557317545637488">
        <ele>1972.76</ele>
        <time>2013-08-04T09:47:33Z</time>
      </trkpt>
      <trkpt lat="46.675836816430092" lon="8.55720229446888">
        <ele>1975.6500000000001</ele>
        <time>2013-08-04T09:47:49Z</time>
      </trkpt>
      <trkpt lat="46.675895992666483" lon="8.557243952527642">
        <ele>1978.05</ele>
        <time>2013-08-04T09:48:02Z</time>
      </trkpt>
      <trkpt lat="46.675998670980334" lon="8.557322742417455">
        <ele>1979.01</ele>
        <time>2013-08-04T09:48:17Z</time>
      </trkpt>
      <trkpt lat="46.676069162786007" lon="8.557360880076885">
        <ele>1980.45</ele>
        <time>2013-08-04T09:48:31Z</time>
      </trkpt>
      <trkpt lat="46.676039909943938" lon="8.557310253381729">
        <ele>1982.3800000000001</ele>
        <time>2013-08-04T09:48:42Z</time>
      </trkpt>
      <trkpt lat="46.676030606031418" lon="8.557268511503935">
        <ele>1983.3399999999999</ele>
        <time>2013-08-04T09:48:49Z</time>
      </trkpt>
      <trkpt lat="46.676030773669481" lon="8.55717153288424">
        <ele>1984.78</ele>
        <time>2013-08-04T09:49:02Z</time>
      </trkpt>
      <trkpt lat="46.676015686243773" lon="8.557046223431826">
        <ele>1987.1800000000001</ele>
        <time>2013-08-04T09:49:18Z</time>
      </trkpt>
      <trkpt lat="46.676021469756961" lon="8.55697413906455">
        <ele>1988.6199999999999</ele>
        <time>2013-08-04T09:49:31Z</time>
      </trkpt>
      <trkpt lat="46.676100008189678" lon="8.557077487930656">
        <ele>1990.55</ele>
        <time>2013-08-04T09:49:45Z</time>
      </trkpt>
      <trkpt lat="46.676136469468474" lon="8.557159462943673">
        <ele>1991.03</ele>
        <time>2013-08-04T09:49:57Z</time>
      </trkpt>
      <trkpt lat="46.676187766715884" lon="8.557214615866542">
        <ele>1992.95</ele>
        <time>2013-08-04T09:50:12Z</time>
      </trkpt>
      <trkpt lat="46.676180893555284" lon="8.557183602824807">
        <ele>1993.9100000000001</ele>
        <time>2013-08-04T09:50:16Z</time>
      </trkpt>
      <trkpt lat="46.676150970160961" lon="8.557097939774394">
        <ele>1995.8299999999999</ele>
        <time>2013-08-04T09:50:30Z</time>
      </trkpt>
      <trkpt lat="46.676162956282496" lon="8.557026190683246">
        <ele>1996.8</ele>
        <time>2013-08-04T09:50:41Z</time>
      </trkpt>
      <trkpt lat="46.6761455219239" lon="8.556931810453534">
        <ele>1999.6800000000001</ele>
        <time>2013-08-04T09:50:54Z</time>
      </trkpt>
      <trkpt lat="46.676138648763299" lon="8.556794682517648">
        <ele>2000.6400000000001</ele>
        <time>2013-08-04T09:51:11Z</time>
      </trkpt>
      <trkpt lat="46.676124818623066" lon="8.5567263700068">
        <ele>2003.04</ele>
        <time>2013-08-04T09:51:21Z</time>
      </trkpt>
      <trkpt lat="46.676103277131915" lon="8.55662377551198">
        <ele>2004.49</ele>
        <time>2013-08-04T09:51:36Z</time>
      </trkpt>
      <trkpt lat="46.676093135029078" lon="8.556541129946709">
        <ele>2006.8900000000001</ele>
        <time>2013-08-04T09:51:48Z</time>
      </trkpt>
      <trkpt lat="46.676084920763969" lon="8.556529646739364">
        <ele>2006.8900000000001</ele>
        <time>2013-08-04T09:51:50Z</time>
      </trkpt>
      <trkpt lat="46.676080226898193" lon="8.556437529623509">
        <ele>2008.8099999999999</ele>
        <time>2013-08-04T09:52:04Z</time>
      </trkpt>
      <trkpt lat="46.676058517768979" lon="8.556352201849222">
        <ele>2010.73</ele>
        <time>2013-08-04T09:52:16Z</time>
      </trkpt>
      <trkpt lat="46.676059104502201" lon="8.556294366717339">
        <ele>2012.1800000000001</ele>
        <time>2013-08-04T09:52:28Z</time>
      </trkpt>
      <trkpt lat="46.676061619073153" lon="8.556235693395138">
        <ele>2014.0999999999999</ele>
        <time>2013-08-04T09:52:39Z</time>
      </trkpt>
      <trkpt lat="46.676058014854789" lon="8.556221779435873">
        <ele>2014.5799999999999</ele>
        <time>2013-08-04T09:52:53Z</time>
      </trkpt>
      <trkpt lat="46.676072683185339" lon="8.556188251823187">
        <ele>2015.0599999999999</ele>
        <time>2013-08-04T09:53:16Z</time>
      </trkpt>
      <trkpt lat="46.676097745075822" lon="8.556136032566428">
        <ele>2016.98</ele>
        <time>2013-08-04T09:53:28Z</time>
      </trkpt>
      <trkpt lat="46.676118113100529" lon="8.556142738088965">
        <ele>2016.98</ele>
        <time>2013-08-04T09:53:32Z</time>
      </trkpt>
      <trkpt lat="46.676177373155951" lon="8.556193867698312">
        <ele>2019.8699999999999</ele>
        <time>2013-08-04T09:53:45Z</time>
      </trkpt>
      <trkpt lat="46.676181815564632" lon="8.55616838671267">
        <ele>2020.8299999999999</ele>
        <time>2013-08-04T09:53:56Z</time>
      </trkpt>
      <trkpt lat="46.676163040101528" lon="8.556048609316349">
        <ele>2022.27</ele>
        <time>2013-08-04T09:54:11Z</time>
      </trkpt>
      <trkpt lat="46.676191370934248" lon="8.556054560467601">
        <ele>2024.1900000000001</ele>
        <time>2013-08-04T09:54:26Z</time>
      </trkpt>
      <trkpt lat="46.676229005679488" lon="8.556109881028533">
        <ele>2025.6400000000001</ele>
        <time>2013-08-04T09:54:37Z</time>
      </trkpt>
      <trkpt lat="46.6762491222471" lon="8.556146007031202">
        <ele>2026.5999999999999</ele>
        <time>2013-08-04T09:54:52Z</time>
      </trkpt>
      <trkpt lat="46.676322799175978" lon="8.556194202974439">
        <ele>2029.48</ele>
        <time>2013-08-04T09:55:06Z</time>
      </trkpt>
      <trkpt lat="46.676373425871134" lon="8.556236699223518">
        <ele>2030.9200000000001</ele>
        <time>2013-08-04T09:55:19Z</time>
      </trkpt>
      <trkpt lat="46.676389686763287" lon="8.556249188259244">
        <ele>2031.4000000000001</ele>
        <time>2013-08-04T09:55:22Z</time>
      </trkpt>
      <trkpt lat="46.676429836079478" lon="8.556318255141377">
        <ele>2033.3299999999999</ele>
        <time>2013-08-04T09:55:34Z</time>
      </trkpt>
      <trkpt lat="46.676457831636071" lon="8.556364020332694">
        <ele>2034.29</ele>
        <time>2013-08-04T09:55:46Z</time>
      </trkpt>
      <trkpt lat="46.676500830799341" lon="8.556448174640536">
        <ele>2036.21</ele>
        <time>2013-08-04T09:56:00Z</time>
      </trkpt>
      <trkpt lat="46.676554726436734" lon="8.556516990065575">
        <ele>2038.1300000000001</ele>
        <time>2013-08-04T09:56:15Z</time>
      </trkpt>
      <trkpt lat="46.676588589325547" lon="8.556518834084272">
        <ele>2039.5699999999999</ele>
        <time>2013-08-04T09:56:26Z</time>
      </trkpt>
      <trkpt lat="46.676635947078466" lon="8.556543393060565">
        <ele>2041.98</ele>
        <time>2013-08-04T09:56:38Z</time>
      </trkpt>
      <trkpt lat="46.676653632894158" lon="8.556545991450548">
        <ele>2042.9400000000001</ele>
        <time>2013-08-04T09:56:50Z</time>
      </trkpt>
      <trkpt lat="46.676653465256095" lon="8.556531490758061">
        <ele>2043.4200000000001</ele>
        <time>2013-08-04T09:56:53Z</time>
      </trkpt>
      <trkpt lat="46.676668301224709" lon="8.556437445804477">
        <ele>2045.3399999999999</ele>
        <time>2013-08-04T09:57:06Z</time>
      </trkpt>
      <trkpt lat="46.676680790260434" lon="8.556371983140707">
        <ele>2046.78</ele>
        <time>2013-08-04T09:57:18Z</time>
      </trkpt>
      <trkpt lat="46.676710713654757" lon="8.556307861581445">
        <ele>2047.75</ele>
        <time>2013-08-04T09:57:31Z</time>
      </trkpt>
      <trkpt lat="46.676773326471448" lon="8.556379610672593">
        <ele>2049.6700000000001</ele>
        <time>2013-08-04T09:57:42Z</time>
      </trkpt>
      <trkpt lat="46.676786569878459" lon="8.556359158828855">
        <ele>2050.6300000000001</ele>
        <time>2013-08-04T09:57:56Z</time>
      </trkpt>
      <trkpt lat="46.676817666739225" lon="8.556270813569427">
        <ele>2053.5100000000002</ele>
        <time>2013-08-04T09:58:11Z</time>
      </trkpt>
      <trkpt lat="46.676827557384968" lon="8.556185821071267">
        <ele>2055.4400000000001</ele>
        <time>2013-08-04T09:58:23Z</time>
      </trkpt>
      <trkpt lat="46.676898300647736" lon="8.556104516610503">
        <ele>2058.3200000000002</ele>
        <time>2013-08-04T09:58:38Z</time>
      </trkpt>
      <trkpt lat="46.676967954263091" lon="8.556026145815849">
        <ele>2059.7600000000002</ele>
        <time>2013-08-04T09:58:50Z</time>
      </trkpt>
      <trkpt lat="46.677010366693139" lon="8.555964287370443">
        <ele>2060.7199999999998</ele>
        <time>2013-08-04T09:59:02Z</time>
      </trkpt>
      <trkpt lat="46.67702553793788" lon="8.555907206609845">
        <ele>2061.6799999999998</ele>
        <time>2013-08-04T09:59:09Z</time>
      </trkpt>
      <trkpt lat="46.67702067643404" lon="8.555793380364776">
        <ele>2063.6100000000001</ele>
        <time>2013-08-04T09:59:19Z</time>
      </trkpt>
      <trkpt lat="46.677009360864758" lon="8.555748788639903">
        <ele>2064.5700000000002</ele>
        <time>2013-08-04T09:59:23Z</time>
      </trkpt>
      <trkpt lat="46.677027130499482" lon="8.555594310164452">
        <ele>2066.4899999999998</ele>
        <time>2013-08-04T09:59:37Z</time>
      </trkpt>
      <trkpt lat="46.677028303965926" lon="8.555455841124058">
        <ele>2068.4099999999999</ele>
        <time>2013-08-04T09:59:51Z</time>
      </trkpt>
      <trkpt lat="46.677042134106159" lon="8.555350564420223">
        <ele>2070.3400000000001</ele>
        <time>2013-08-04T10:00:04Z</time>
      </trkpt>
      <trkpt lat="46.677040373906493" lon="8.555251825600863">
        <ele>2072.2600000000002</ele>
        <time>2013-08-04T10:00:16Z</time>
      </trkpt>
      <trkpt lat="46.677064429968596" lon="8.555168341845274">
        <ele>2074.1799999999998</ele>
        <time>2013-08-04T10:00:30Z</time>
      </trkpt>
      <trkpt lat="46.677063340321183" lon="8.555101286619902">
        <ele>2075.1399999999999</ele>
        <time>2013-08-04T10:00:39Z</time>
      </trkpt>
      <trkpt lat="46.677037607878447" lon="8.554987041279674">
        <ele>2076.0999999999999</ele>
        <time>2013-08-04T10:00:54Z</time>
      </trkpt>
      <trkpt lat="46.6770089417696" lon="8.554912442341447">
        <ele>2077.5500000000002</ele>
        <time>2013-08-04T10:01:06Z</time>
      </trkpt>
      <trkpt lat="46.676967032253742" lon="8.554826024919748">
        <ele>2078.5100000000002</ele>
        <time>2013-08-04T10:01:18Z</time>
      </trkpt>
      <trkpt lat="46.676942557096481" lon="8.554732231423259">
        <ele>2080.4299999999998</ele>
        <time>2013-08-04T10:01:28Z</time>
      </trkpt>
      <trkpt lat="46.676916405558586" lon="8.554607005789876">
        <ele>2080.9099999999999</ele>
        <time>2013-08-04T10:01:40Z</time>
      </trkpt>
      <trkpt lat="46.676911376416683" lon="8.554502232000232">
        <ele>2082.8299999999999</ele>
        <time>2013-08-04T10:01:54Z</time>
      </trkpt>
      <trkpt lat="46.676905676722527" lon="8.554400894790888">
        <ele>2083.79</ele>
        <time>2013-08-04T10:02:06Z</time>
      </trkpt>
      <trkpt lat="46.676884721964598" lon="8.554296623915434">
        <ele>2085.2399999999998</ele>
        <time>2013-08-04T10:02:19Z</time>
      </trkpt>
      <trkpt lat="46.676869634538889" lon="8.554253457114101">
        <ele>2086.6799999999998</ele>
        <time>2013-08-04T10:02:28Z</time>
      </trkpt>
      <trkpt lat="46.676843147724867" lon="8.554133512079716">
        <ele>2088.1199999999999</ele>
        <time>2013-08-04T10:02:42Z</time>
      </trkpt>
      <trkpt lat="46.676820432767272" lon="8.554074252024293">
        <ele>2089.0799999999999</ele>
        <time>2013-08-04T10:02:55Z</time>
      </trkpt>
      <trkpt lat="46.676811380311847" lon="8.553918600082398">
        <ele>2090.04</ele>
        <time>2013-08-04T10:03:06Z</time>
      </trkpt>
      <trkpt lat="46.676773075014353" lon="8.553787004202604">
        <ele>2090.52</ele>
        <time>2013-08-04T10:03:16Z</time>
      </trkpt>
      <trkpt lat="46.676759831607342" lon="8.553664544597268">
        <ele>2091</ele>
        <time>2013-08-04T10:03:28Z</time>
      </trkpt>
      <trkpt lat="46.676753964275122" lon="8.553593717515469">
        <ele>2091.4899999999998</ele>
        <time>2013-08-04T10:03:35Z</time>
      </trkpt>
      <trkpt lat="46.676754551008344" lon="8.553506880998612">
        <ele>2092.4499999999998</ele>
        <time>2013-08-04T10:03:43Z</time>
      </trkpt>
      <trkpt lat="46.676743319258094" lon="8.553318623453379">
        <ele>2092.9299999999998</ele>
        <time>2013-08-04T10:03:58Z</time>
      </trkpt>
      <trkpt lat="46.676714150235057" lon="8.553212927654386">
        <ele>2093.8899999999999</ele>
        <time>2013-08-04T10:04:10Z</time>
      </trkpt>
      <trkpt lat="46.676695542410016" lon="8.553119637072086">
        <ele>2094.8499999999999</ele>
        <time>2013-08-04T10:04:23Z</time>
      </trkpt>
      <trkpt lat="46.676681796088815" lon="8.552975049242377">
        <ele>2096.29</ele>
        <time>2013-08-04T10:04:35Z</time>
      </trkpt>
      <trkpt lat="46.676675174385309" lon="8.55277975089848">
        <ele>2095.8099999999999</ele>
        <time>2013-08-04T10:04:50Z</time>
      </trkpt>
      <trkpt lat="46.676640976220369" lon="8.552646646276116">
        <ele>2097.25</ele>
        <time>2013-08-04T10:05:06Z</time>
      </trkpt>
      <trkpt lat="46.676604514941573" lon="8.552551344037056">
        <ele>2098.21</ele>
        <time>2013-08-04T10:05:19Z</time>
      </trkpt>
      <trkpt lat="46.676582051441073" lon="8.552418574690819">
        <ele>2099.6599999999999</ele>
        <time>2013-08-04T10:05:34Z</time>
      </trkpt>
      <trkpt lat="46.676548523828387" lon="8.552270801737905">
        <ele>2101.0999999999999</ele>
        <time>2013-08-04T10:05:49Z</time>
      </trkpt>
      <trkpt lat="46.676529496908188" lon="8.552143899723887">
        <ele>2102.54</ele>
        <time>2013-08-04T10:06:05Z</time>
      </trkpt>
      <trkpt lat="46.676497813314199" lon="8.552065780386329">
        <ele>2103.02</ele>
        <time>2013-08-04T10:06:17Z</time>
      </trkpt>
      <trkpt lat="46.676480965688825" lon="8.551980033516884">
        <ele>2103.98</ele>
        <time>2013-08-04T10:06:32Z</time>
      </trkpt>
      <trkpt lat="46.676460932940245" lon="8.551943404600024">
        <ele>2104.46</ele>
        <time>2013-08-04T10:06:45Z</time>
      </trkpt>
      <trkpt lat="46.676419777795672" lon="8.551856316626072">
        <ele>2104.9400000000001</ele>
        <time>2013-08-04T10:06:53Z</time>
      </trkpt>
      <trkpt lat="46.676426064223051" lon="8.55176436714828">
        <ele>2104.46</ele>
        <time>2013-08-04T10:07:04Z</time>
      </trkpt>
      <trkpt lat="46.676422376185656" lon="8.551706029102206">
        <ele>2104.46</ele>
        <time>2013-08-04T10:07:08Z</time>
      </trkpt>
      <trkpt lat="46.676448276266456" lon="8.551637213677168">
        <ele>2104.9400000000001</ele>
        <time>2013-08-04T10:07:23Z</time>
      </trkpt>
      <trkpt lat="46.676449198275805" lon="8.551640901714563">
        <ele>2104.46</ele>
        <time>2013-08-04T10:07:46Z</time>
      </trkpt>
      <trkpt lat="46.676447438076138" lon="8.551626401022077">
        <ele>2104.46</ele>
        <time>2013-08-04T10:08:05Z</time>
      </trkpt>
      <trkpt lat="46.676440732553601" lon="8.551633022725582">
        <ele>2104.46</ele>
        <time>2013-08-04T10:08:16Z</time>
      </trkpt>
      <trkpt lat="46.676430087536573" lon="8.551656324416399">
        <ele>2105.4200000000001</ele>
        <time>2013-08-04T10:08:32Z</time>
      </trkpt>
      <trkpt lat="46.676440481096506" lon="8.551618019118905">
        <ele>2104.46</ele>
        <time>2013-08-04T10:08:45Z</time>
      </trkpt>
      <trkpt lat="46.676439894363284" lon="8.551618773490191">
        <ele>2104.9400000000001</ele>
        <time>2013-08-04T10:09:18Z</time>
      </trkpt>
      <trkpt lat="46.676432099193335" lon="8.551605278626084">
        <ele>2105.4200000000001</ele>
        <time>2013-08-04T10:09:35Z</time>
      </trkpt>
      <trkpt lat="46.676445174962282" lon="8.551601087674499">
        <ele>2105.4200000000001</ele>
        <time>2013-08-04T10:10:04Z</time>
      </trkpt>
      <trkpt lat="46.6764822229743" lon="8.551567727699876">
        <ele>2105.4200000000001</ele>
        <time>2013-08-04T10:10:22Z</time>
      </trkpt>
      <trkpt lat="46.676492784172297" lon="8.551560351625085">
        <ele>2105.4200000000001</ele>
        <time>2013-08-04T10:10:39Z</time>
      </trkpt>
      <trkpt lat="46.676486497744918" lon="8.551559178158641">
        <ele>2106.3899999999999</ele>
        <time>2013-08-04T10:11:20Z</time>
      </trkpt>
      <trkpt lat="46.676483480259776" lon="8.551562782377005">
        <ele>2106.3899999999999</ele>
        <time>2013-08-04T10:11:58Z</time>
      </trkpt>
      <trkpt lat="46.676479959860444" lon="8.551559848710895">
        <ele>2106.8699999999999</ele>
        <time>2013-08-04T10:12:44Z</time>
      </trkpt>
      <trkpt lat="46.676481636241078" lon="8.551560854539275">
        <ele>2106.8699999999999</ele>
        <time>2013-08-04T10:13:20Z</time>
      </trkpt>
      <trkpt lat="46.676483731716871" lon="8.551561608910561">
        <ele>2107.3499999999999</ele>
        <time>2013-08-04T10:14:03Z</time>
      </trkpt>
      <trkpt lat="46.676483815535903" lon="8.55155766941607">
        <ele>2107.8299999999999</ele>
        <time>2013-08-04T10:14:42Z</time>
      </trkpt>
      <trkpt lat="46.676487671211362" lon="8.551559429615736">
        <ele>2107.8299999999999</ele>
        <time>2013-08-04T10:15:22Z</time>
      </trkpt>
      <trkpt lat="46.676494628190994" lon="8.551555406302214">
        <ele>2107.8299999999999</ele>
        <time>2013-08-04T10:15:59Z</time>
      </trkpt>
      <trkpt lat="46.676485408097506" lon="8.551564794033766">
        <ele>2108.3099999999999</ele>
        <time>2013-08-04T10:16:41Z</time>
      </trkpt>
      <trkpt lat="46.676492197439075" lon="8.551561608910561">
        <ele>2108.3099999999999</ele>
        <time>2013-08-04T10:17:19Z</time>
      </trkpt>
      <trkpt lat="46.676490772515535" lon="8.551562698557973">
        <ele>2108.79</ele>
        <time>2013-08-04T10:18:02Z</time>
      </trkpt>
      <trkpt lat="46.676488509401679" lon="8.551558675244451">
        <ele>2109.27</ele>
        <time>2013-08-04T10:18:52Z</time>
      </trkpt>
      <trkpt lat="46.676491778343916" lon="8.551560770720244">
        <ele>2108.79</ele>
        <time>2013-08-04T10:19:44Z</time>
      </trkpt>
      <trkpt lat="46.676491778343916" lon="8.551560267806053">
        <ele>2109.27</ele>
        <time>2013-08-04T10:20:22Z</time>
      </trkpt>
      <trkpt lat="46.676493873819709" lon="8.551554903388023">
        <ele>2109.27</ele>
        <time>2013-08-04T10:21:06Z</time>
      </trkpt>
      <trkpt lat="46.67649052105844" lon="8.551556412130594">
        <ele>2109.27</ele>
        <time>2013-08-04T10:21:39Z</time>
      </trkpt>
      <trkpt lat="46.676487168297172" lon="8.551562782377005">
        <ele>2109.75</ele>
        <time>2013-08-04T10:22:24Z</time>
      </trkpt>
      <trkpt lat="46.676491610705853" lon="8.551563452929258">
        <ele>2109.75</ele>
        <time>2013-08-04T10:23:04Z</time>
      </trkpt>
      <trkpt lat="46.676496891304851" lon="8.551558256149292">
        <ele>2109.75</ele>
        <time>2013-08-04T10:23:41Z</time>
      </trkpt>
      <trkpt lat="46.676488425582647" lon="8.551562447100878">
        <ele>2109.75</ele>
        <time>2013-08-04T10:24:27Z</time>
      </trkpt>
      <trkpt lat="46.676488844677806" lon="8.551568482071161">
        <ele>2110.23</ele>
        <time>2013-08-04T10:25:01Z</time>
      </trkpt>
      <trkpt lat="46.676495634019375" lon="8.551559513434768">
        <ele>2110.23</ele>
        <time>2013-08-04T10:25:41Z</time>
      </trkpt>
      <trkpt lat="46.676492867991328" lon="8.551554987207055">
        <ele>2110.23</ele>
        <time>2013-08-04T10:26:23Z</time>
      </trkpt>
      <trkpt lat="46.67649244889617" lon="8.551575858145952">
        <ele>2111.1900000000001</ele>
        <time>2013-08-04T10:26:46Z</time>
      </trkpt>
      <trkpt lat="46.676486665382981" lon="8.55159429833293">
        <ele>2110.71</ele>
        <time>2013-08-04T10:27:03Z</time>
      </trkpt>
      <trkpt lat="46.676476104184985" lon="8.551579965278506">
        <ele>2109.75</ele>
        <time>2013-08-04T10:27:13Z</time>
      </trkpt>
      <trkpt lat="46.676497729495168" lon="8.55151517316699">
        <ele>2110.71</ele>
        <time>2013-08-04T10:27:29Z</time>
      </trkpt>
      <trkpt lat="46.676497897133231" lon="8.551503270864487">
        <ele>2110.71</ele>
        <time>2013-08-04T10:27:30Z</time>
      </trkpt>
      <trkpt lat="46.67656134814024" lon="8.551326999440789">
        <ele>2112.1500000000001</ele>
        <time>2013-08-04T10:27:47Z</time>
      </trkpt>
      <trkpt lat="46.676566461101174" lon="8.551267068833113">
        <ele>2112.6300000000001</ele>
        <time>2013-08-04T10:27:52Z</time>
      </trkpt>
      <trkpt lat="46.676572244614363" lon="8.551096664741635">
        <ele>2114.0799999999999</ele>
        <time>2013-08-04T10:28:08Z</time>
      </trkpt>
      <trkpt lat="46.676547266542912" lon="8.550970433279872">
        <ele>2115.04</ele>
        <time>2013-08-04T10:28:22Z</time>
      </trkpt>
      <trkpt lat="46.676544919610023" lon="8.550870772451162">
        <ele>2116.96</ele>
        <time>2013-08-04T10:28:34Z</time>
      </trkpt>
      <trkpt lat="46.676530838012695" lon="8.550772704184055">
        <ele>2117.4400000000001</ele>
        <time>2013-08-04T10:28:43Z</time>
      </trkpt>
      <trkpt lat="46.676538800820708" lon="8.55062342248857">
        <ele>2118.4000000000001</ele>
        <time>2013-08-04T10:28:57Z</time>
      </trkpt>
      <trkpt lat="46.676552714779973" lon="8.550491072237492">
        <ele>2118.4000000000001</ele>
        <time>2013-08-04T10:29:08Z</time>
      </trkpt>
      <trkpt lat="46.676564030349255" lon="8.550376323983073">
        <ele>2119.3600000000001</ele>
        <time>2013-08-04T10:29:18Z</time>
      </trkpt>
      <trkpt lat="46.676567969843745" lon="8.550206338986754">
        <ele>2119.8400000000001</ele>
        <time>2013-08-04T10:29:34Z</time>
      </trkpt>
      <trkpt lat="46.676566209644079" lon="8.550076922401786">
        <ele>2119.3600000000001</ele>
        <time>2013-08-04T10:29:48Z</time>
      </trkpt>
      <trkpt lat="46.676643490791321" lon="8.550044735893607">
        <ele>2116.96</ele>
        <time>2013-08-04T10:30:01Z</time>
      </trkpt>
      <trkpt lat="46.676684562116861" lon="8.549976926296949">
        <ele>2116</ele>
        <time>2013-08-04T10:30:09Z</time>
      </trkpt>
      <trkpt lat="46.676715742796659" lon="8.549916325137019">
        <ele>2115.04</ele>
        <time>2013-08-04T10:30:15Z</time>
      </trkpt>
      <trkpt lat="46.676717000082135" lon="8.549697306007147">
        <ele>2114.5599999999999</ele>
        <time>2013-08-04T10:30:30Z</time>
      </trkpt>
      <trkpt lat="46.676723621785641" lon="8.549670735374093">
        <ele>2114.5599999999999</ele>
        <time>2013-08-04T10:30:32Z</time>
      </trkpt>
      <trkpt lat="46.676723705604672" lon="8.549628658220172">
        <ele>2114.0799999999999</ele>
        <time>2013-08-04T10:30:35Z</time>
      </trkpt>
      <trkpt lat="46.676724208518863" lon="8.549490943551064">
        <ele>2114.5599999999999</ele>
        <time>2013-08-04T10:30:46Z</time>
      </trkpt>
      <trkpt lat="46.676636198535562" lon="8.549308385699987">
        <ele>2113.1199999999999</ele>
        <time>2013-08-04T10:31:02Z</time>
      </trkpt>
      <trkpt lat="46.676634941250086" lon="8.549224147573113">
        <ele>2112.1500000000001</ele>
        <time>2013-08-04T10:31:09Z</time>
      </trkpt>
      <trkpt lat="46.676659667864442" lon="8.549150219187141">
        <ele>2111.1900000000001</ele>
        <time>2013-08-04T10:31:20Z</time>
      </trkpt>
      <trkpt lat="46.676670396700501" lon="8.549035722389817">
        <ele>2108.3099999999999</ele>
        <time>2013-08-04T10:31:33Z</time>
      </trkpt>
      <trkpt lat="46.676665116101503" lon="8.548997500911355">
        <ele>2107.8299999999999</ele>
        <time>2013-08-04T10:31:36Z</time>
      </trkpt>
      <trkpt lat="46.676666624844074" lon="8.54883162304759">
        <ele>2104.9400000000001</ele>
        <time>2013-08-04T10:31:50Z</time>
      </trkpt>
      <trkpt lat="46.676727645099163" lon="8.548681670799851">
        <ele>2102.54</ele>
        <time>2013-08-04T10:32:05Z</time>
      </trkpt>
      <trkpt lat="46.676777014508843" lon="8.548542028293014">
        <ele>2099.6599999999999</ele>
        <time>2013-08-04T10:32:19Z</time>
      </trkpt>
      <trkpt lat="46.676773829385638" lon="8.548463322222233">
        <ele>2097.73</ele>
        <time>2013-08-04T10:32:28Z</time>
      </trkpt>
      <trkpt lat="46.676837615668774" lon="8.548465501517057">
        <ele>2095.3299999999999</ele>
        <time>2013-08-04T10:32:41Z</time>
      </trkpt>
      <trkpt lat="46.676853122189641" lon="8.548375479876995">
        <ele>2093.8899999999999</ele>
        <time>2013-08-04T10:32:50Z</time>
      </trkpt>
      <trkpt lat="46.676852283999324" lon="8.54833809658885">
        <ele>2092.9299999999998</ele>
        <time>2013-08-04T10:32:53Z</time>
      </trkpt>
      <trkpt lat="46.676871562376618" lon="8.548273388296366">
        <ele>2091.9699999999998</ele>
        <time>2013-08-04T10:32:58Z</time>
      </trkpt>
      <trkpt lat="46.676956051960588" lon="8.548032492399216">
        <ele>2091.9699999999998</ele>
        <time>2013-08-04T10:33:15Z</time>
      </trkpt>
      <trkpt lat="46.67697717435658" lon="8.548006257042289">
        <ele>2091.4899999999998</ele>
        <time>2013-08-04T10:33:18Z</time>
      </trkpt>
      <trkpt lat="46.677060993388295" lon="8.547882623970509">
        <ele>2092.9299999999998</ele>
        <time>2013-08-04T10:33:33Z</time>
      </trkpt>
      <trkpt lat="46.677064346149564" lon="8.547864686697722">
        <ele>2093.4099999999999</ele>
        <time>2013-08-04T10:33:35Z</time>
      </trkpt>
      <trkpt lat="46.677064346149564" lon="8.547833757475019">
        <ele>2093.8899999999999</ele>
        <time>2013-08-04T10:33:38Z</time>
      </trkpt>
      <trkpt lat="46.677116649225354" lon="8.547773994505405">
        <ele>2094.8499999999999</ele>
        <time>2013-08-04T10:33:47Z</time>
      </trkpt>
      <trkpt lat="46.677125534042716" lon="8.547743987292051">
        <ele>2095.3299999999999</ele>
        <time>2013-08-04T10:33:50Z</time>
      </trkpt>
      <trkpt lat="46.677146404981613" lon="8.547717081382871">
        <ele>2095.3299999999999</ele>
        <time>2013-08-04T10:33:53Z</time>
      </trkpt>
      <trkpt lat="46.677191415801644" lon="8.54760124348104">
        <ele>2096.29</ele>
        <time>2013-08-04T10:34:05Z</time>
      </trkpt>
      <trkpt lat="46.677204240113497" lon="8.547551119700074">
        <ele>2097.25</ele>
        <time>2013-08-04T10:34:12Z</time>
      </trkpt>
      <trkpt lat="46.677212286740541" lon="8.547364370897412">
        <ele>2099.6599999999999</ele>
        <time>2013-08-04T10:34:27Z</time>
      </trkpt>
      <trkpt lat="46.67717213742435" lon="8.547235708683729">
        <ele>2101.0999999999999</ele>
        <time>2013-08-04T10:34:41Z</time>
      </trkpt>
      <trkpt lat="46.677126791328192" lon="8.547190194949508">
        <ele>2101.5799999999999</ele>
        <time>2013-08-04T10:34:48Z</time>
      </trkpt>
      <trkpt lat="46.677026795223355" lon="8.547099167481065">
        <ele>2102.0599999999999</ele>
        <time>2013-08-04T10:35:03Z</time>
      </trkpt>
      <trkpt lat="46.6770123783499" lon="8.547069411724806">
        <ele>2102.0599999999999</ele>
        <time>2013-08-04T10:35:07Z</time>
      </trkpt>
      <trkpt lat="46.676953537389636" lon="8.546923231333494">
        <ele>2102.54</ele>
        <time>2013-08-04T10:35:22Z</time>
      </trkpt>
      <trkpt lat="46.676918165758252" lon="8.546848213300109">
        <ele>2103.98</ele>
        <time>2013-08-04T10:35:33Z</time>
      </trkpt>
      <trkpt lat="46.676882710307837" lon="8.546745618805289">
        <ele>2105.4200000000001</ele>
        <time>2013-08-04T10:35:48Z</time>
      </trkpt>
      <trkpt lat="46.676873741671443" lon="8.546664146706462">
        <ele>2107.3499999999999</ele>
        <time>2013-08-04T10:36:01Z</time>
      </trkpt>
      <trkpt lat="46.676863767206669" lon="8.546617375686765">
        <ele>2108.79</ele>
        <time>2013-08-04T10:36:12Z</time>
      </trkpt>
      <trkpt lat="46.676897965371609" lon="8.546519223600626">
        <ele>2111.1900000000001</ele>
        <time>2013-08-04T10:36:24Z</time>
      </trkpt>
      <trkpt lat="46.676904587075114" lon="8.546428196132183">
        <ele>2112.1500000000001</ele>
        <time>2013-08-04T10:36:35Z</time>
      </trkpt>
      <trkpt lat="46.67690291069448" lon="8.546346053481102">
        <ele>2113.1199999999999</ele>
        <time>2013-08-04T10:36:46Z</time>
      </trkpt>
      <trkpt lat="46.676905928179622" lon="8.546303389593959">
        <ele>2113.1199999999999</ele>
        <time>2013-08-04T10:36:51Z</time>
      </trkpt>
      <trkpt lat="46.676876842975616" lon="8.546228287741542">
        <ele>2114.0799999999999</ele>
        <time>2013-08-04T10:36:59Z</time>
      </trkpt>
      <trkpt lat="46.676834262907505" lon="8.546142289415002">
        <ele>2115.04</ele>
        <time>2013-08-04T10:37:10Z</time>
      </trkpt>
      <trkpt lat="46.676814230158925" lon="8.54598336853087">
        <ele>2116.48</ele>
        <time>2013-08-04T10:37:27Z</time>
      </trkpt>
      <trkpt lat="46.676814565435052" lon="8.545939447358251">
        <ele>2117.4400000000001</ele>
        <time>2013-08-04T10:37:32Z</time>
      </trkpt>
      <trkpt lat="46.676875250414014" lon="8.545839702710509">
        <ele>2119.3600000000001</ele>
        <time>2013-08-04T10:37:46Z</time>
      </trkpt>
      <trkpt lat="46.676914729177952" lon="8.545729396864772">
        <ele>2120.8099999999999</ele>
        <time>2013-08-04T10:37:59Z</time>
      </trkpt>
      <trkpt lat="46.676928559318185" lon="8.545692265033722">
        <ele>2121.29</ele>
        <time>2013-08-04T10:38:03Z</time>
      </trkpt>
      <trkpt lat="46.676967451348901" lon="8.545562513172627">
        <ele>2122.73</ele>
        <time>2013-08-04T10:38:18Z</time>
      </trkpt>
      <trkpt lat="46.677024951204658" lon="8.545497469604015">
        <ele>2124.1700000000001</ele>
        <time>2013-08-04T10:38:29Z</time>
      </trkpt>
      <trkpt lat="46.677099633961916" lon="8.545397389680147">
        <ele>2125.6100000000001</ele>
        <time>2013-08-04T10:38:44Z</time>
      </trkpt>
      <trkpt lat="46.677123522385955" lon="8.545367550104857">
        <ele>2125.6100000000001</ele>
        <time>2013-08-04T10:38:50Z</time>
      </trkpt>
      <trkpt lat="46.67716677300632" lon="8.545245928689838">
        <ele>2127.0500000000002</ele>
        <time>2013-08-04T10:39:04Z</time>
      </trkpt>
      <trkpt lat="46.677196025848389" lon="8.545127240940929">
        <ele>2128.98</ele>
        <time>2013-08-04T10:39:17Z</time>
      </trkpt>
      <trkpt lat="46.677222764119506" lon="8.545057000592351">
        <ele>2129.9400000000001</ele>
        <time>2013-08-04T10:39:28Z</time>
      </trkpt>
      <trkpt lat="46.677244054153562" lon="8.544981647282839">
        <ele>2131.3800000000001</ele>
        <time>2013-08-04T10:39:40Z</time>
      </trkpt>
      <trkpt lat="46.677243802696466" lon="8.544981312006712">
        <ele>2131.8600000000001</ele>
        <time>2013-08-04T10:39:41Z</time>
      </trkpt>
      <trkpt lat="46.677251849323511" lon="8.544905204325914">
        <ele>2133.3000000000002</ele>
        <time>2013-08-04T10:39:54Z</time>
      </trkpt>
      <trkpt lat="46.677251849323511" lon="8.544882908463478">
        <ele>2133.3000000000002</ele>
        <time>2013-08-04T10:39:56Z</time>
      </trkpt>
      <trkpt lat="46.677245059981942" lon="8.544746367260814">
        <ele>2133.7800000000002</ele>
        <time>2013-08-04T10:40:09Z</time>
      </trkpt>
      <trkpt lat="46.67722687125206" lon="8.544640336185694">
        <ele>2134.7399999999998</ele>
        <time>2013-08-04T10:40:20Z</time>
      </trkpt>
      <trkpt lat="46.677259476855397" lon="8.544508740305901">
        <ele>2135.71</ele>
        <time>2013-08-04T10:40:34Z</time>
      </trkpt>
      <trkpt lat="46.677269032225013" lon="8.544415282085538">
        <ele>2137.1500000000001</ele>
        <time>2013-08-04T10:40:45Z</time>
      </trkpt>
      <trkpt lat="46.677289819344878" lon="8.544308580458164">
        <ele>2138.5900000000001</ele>
        <time>2013-08-04T10:40:58Z</time>
      </trkpt>
      <trkpt lat="46.677287388592958" lon="8.544302713125944">
        <ele>2138.5900000000001</ele>
        <time>2013-08-04T10:40:59Z</time>
      </trkpt>
      <trkpt lat="46.677311025559902" lon="8.54421604424715">
        <ele>2140.0300000000002</ele>
        <time>2013-08-04T10:41:11Z</time>
      </trkpt>
      <trkpt lat="46.67730993591249" lon="8.544119065627456">
        <ele>2141.4699999999998</ele>
        <time>2013-08-04T10:41:22Z</time>
      </trkpt>
      <trkpt lat="46.67728059925139" lon="8.543987888842821">
        <ele>2141.4699999999998</ele>
        <time>2013-08-04T10:41:37Z</time>
      </trkpt>
      <trkpt lat="46.677281353622675" lon="8.54387934319675">
        <ele>2141.9499999999998</ele>
        <time>2013-08-04T10:41:47Z</time>
      </trkpt>
      <trkpt lat="46.677275402471423" lon="8.543765349313617">
        <ele>2142.9200000000001</ele>
        <time>2013-08-04T10:42:02Z</time>
      </trkpt>
      <trkpt lat="46.677280850708485" lon="8.543636770918965">
        <ele>2144.8400000000001</ele>
        <time>2013-08-04T10:42:17Z</time>
      </trkpt>
      <trkpt lat="46.677272887900472" lon="8.543503331020474">
        <ele>2146.2800000000002</ele>
        <time>2013-08-04T10:42:32Z</time>
      </trkpt>
      <trkpt lat="46.677261069417" lon="8.543404592201114">
        <ele>2147.2399999999998</ele>
        <time>2013-08-04T10:42:44Z</time>
      </trkpt>
      <trkpt lat="46.677266685292125" lon="8.543305015191436">
        <ele>2149.1599999999999</ele>
        <time>2013-08-04T10:42:57Z</time>
      </trkpt>
      <trkpt lat="46.67728160507977" lon="8.543179538100958">
        <ele>2151.0900000000001</ele>
        <time>2013-08-04T10:43:11Z</time>
      </trkpt>
      <trkpt lat="46.677320748567581" lon="8.543078536167741">
        <ele>2152.5300000000002</ele>
        <time>2013-08-04T10:43:26Z</time>
      </trkpt>
      <trkpt lat="46.677346900105476" lon="8.542995387688279">
        <ele>2154.9299999999998</ele>
        <time>2013-08-04T10:43:38Z</time>
      </trkpt>
      <trkpt lat="46.67734757065773" lon="8.542906958609819">
        <ele>2156.3699999999999</ele>
        <time>2013-08-04T10:43:51Z</time>
      </trkpt>
      <trkpt lat="46.67735243216157" lon="8.542796820402145">
        <ele>2157.8200000000002</ele>
        <time>2013-08-04T10:44:04Z</time>
      </trkpt>
      <trkpt lat="46.677336087450385" lon="8.542681820690632">
        <ele>2158.7800000000002</ele>
        <time>2013-08-04T10:44:17Z</time>
      </trkpt>
      <trkpt lat="46.677305912598968" lon="8.542559947818518">
        <ele>2159.2600000000002</ele>
        <time>2013-08-04T10:44:29Z</time>
      </trkpt>
      <trkpt lat="46.67729283683002" lon="8.542473781853914">
        <ele>2160.2199999999998</ele>
        <time>2013-08-04T10:44:42Z</time>
      </trkpt>
      <trkpt lat="46.677294177934527" lon="8.542370852082968">
        <ele>2161.1799999999998</ele>
        <time>2013-08-04T10:44:54Z</time>
      </trkpt>
      <trkpt lat="46.677310103550553" lon="8.542293235659599">
        <ele>2162.6199999999999</ele>
        <time>2013-08-04T10:45:08Z</time>
      </trkpt>
      <trkpt lat="46.67732167057693" lon="8.542252248153091">
        <ele>2165.0300000000002</ele>
        <time>2013-08-04T10:45:21Z</time>
      </trkpt>
      <trkpt lat="46.677277581766248" lon="8.542210841551423">
        <ele>2165.9899999999998</ele>
        <time>2013-08-04T10:45:34Z</time>
      </trkpt>
      <trkpt lat="46.677284454926848" lon="8.542132135480642">
        <ele>2166.4699999999998</ele>
        <time>2013-08-04T10:45:41Z</time>
      </trkpt>
      <trkpt lat="46.677297195419669" lon="8.542042197659612">
        <ele>2166.4699999999998</ele>
        <time>2013-08-04T10:45:53Z</time>
      </trkpt>
      <trkpt lat="46.677317479625344" lon="8.541958127170801">
        <ele>2165.9899999999998</ele>
        <time>2013-08-04T10:46:05Z</time>
      </trkpt>
      <trkpt lat="46.677269032225013" lon="8.54191018268466">
        <ele>2167.4299999999998</ele>
        <time>2013-08-04T10:46:18Z</time>
      </trkpt>
      <trkpt lat="46.677235756069422" lon="8.541788728907704">
        <ele>2168.3899999999999</ele>
        <time>2013-08-04T10:46:31Z</time>
      </trkpt>
      <trkpt lat="46.677203150466084" lon="8.541720751672983">
        <ele>2169.3499999999999</ele>
        <time>2013-08-04T10:46:45Z</time>
      </trkpt>
      <trkpt lat="46.677224775776267" lon="8.541603907942772">
        <ele>2171.27</ele>
        <time>2013-08-04T10:46:59Z</time>
      </trkpt>
      <trkpt lat="46.677215388044715" lon="8.541528806090355">
        <ele>2173.1999999999998</ele>
        <time>2013-08-04T10:47:10Z</time>
      </trkpt>
      <trkpt lat="46.677226619794965" lon="8.541421853005886">
        <ele>2173.6799999999998</ele>
        <time>2013-08-04T10:47:22Z</time>
      </trkpt>
      <trkpt lat="46.677204659208655" lon="8.541314313188195">
        <ele>2173.6799999999998</ele>
        <time>2013-08-04T10:47:35Z</time>
      </trkpt>
      <trkpt lat="46.677180603146553" lon="8.541260585188866">
        <ele>2173.6799999999998</ele>
        <time>2013-08-04T10:47:41Z</time>
      </trkpt>
      <trkpt lat="46.677134335041046" lon="8.541180873289704">
        <ele>2175.1199999999999</ele>
        <time>2013-08-04T10:47:55Z</time>
      </trkpt>
      <trkpt lat="46.677116313949227" lon="8.541137119755149">
        <ele>2176.5599999999999</ele>
        <time>2013-08-04T10:48:07Z</time>
      </trkpt>
      <trkpt lat="46.677078846842051" lon="8.541065873578191">
        <ele>2178.9699999999998</ele>
        <time>2013-08-04T10:48:19Z</time>
      </trkpt>
      <trkpt lat="46.677046408876777" lon="8.540993453934789">
        <ele>2179.9299999999998</ele>
        <time>2013-08-04T10:48:31Z</time>
      </trkpt>
      <trkpt lat="46.677003996446729" lon="8.540977947413921">
        <ele>2181.8499999999999</ele>
        <time>2013-08-04T10:48:46Z</time>
      </trkpt>
      <trkpt lat="46.676970887929201" lon="8.540962692350149">
        <ele>2180.8899999999999</ele>
        <time>2013-08-04T10:48:53Z</time>
      </trkpt>
      <trkpt lat="46.676937360316515" lon="8.540969649329782">
        <ele>2180.8899999999999</ele>
        <time>2013-08-04T10:48:58Z</time>
      </trkpt>
      <trkpt lat="46.676910370588303" lon="8.540945928543806">
        <ele>2180.8899999999999</ele>
        <time>2013-08-04T10:49:03Z</time>
      </trkpt>
      <trkpt lat="46.676876004785299" lon="8.540849117562175">
        <ele>2182.8099999999999</ele>
        <time>2013-08-04T10:49:16Z</time>
      </trkpt>
      <trkpt lat="46.676798304542899" lon="8.540791785344482">
        <ele>2183.29</ele>
        <time>2013-08-04T10:49:30Z</time>
      </trkpt>
      <trkpt lat="46.676752371713519" lon="8.540694639086723">
        <ele>2184.25</ele>
        <time>2013-08-04T10:49:42Z</time>
      </trkpt>
      <trkpt lat="46.676709037274122" lon="8.540568742901087">
        <ele>2184.73</ele>
        <time>2013-08-04T10:49:56Z</time>
      </trkpt>
      <trkpt lat="46.676728902384639" lon="8.540461957454681">
        <ele>2187.1399999999999</ele>
        <time>2013-08-04T10:50:11Z</time>
      </trkpt>
      <trkpt lat="46.676702415570617" lon="8.540432117879391">
        <ele>2187.1399999999999</ele>
        <time>2013-08-04T10:50:17Z</time>
      </trkpt>
      <trkpt lat="46.676680874079466" lon="8.540309574455023">
        <ele>2188.5799999999999</ele>
        <time>2013-08-04T10:50:30Z</time>
      </trkpt>
      <trkpt lat="46.676666960120201" lon="8.540201364085078">
        <ele>2188.0999999999999</ele>
        <time>2013-08-04T10:50:42Z</time>
      </trkpt>
      <trkpt lat="46.676677856594324" lon="8.540099104866386">
        <ele>2190.5</ele>
        <time>2013-08-04T10:50:55Z</time>
      </trkpt>
      <trkpt lat="46.676678778603673" lon="8.540020734071732">
        <ele>2191.46</ele>
        <time>2013-08-04T10:51:07Z</time>
      </trkpt>
      <trkpt lat="46.676657069474459" lon="8.539955355226994">
        <ele>2193.8699999999999</ele>
        <time>2013-08-04T10:51:22Z</time>
      </trkpt>
      <trkpt lat="46.676658662036061" lon="8.539838176220655">
        <ele>2195.79</ele>
        <time>2013-08-04T10:51:35Z</time>
      </trkpt>
      <trkpt lat="46.676671989262104" lon="8.539787046611309">
        <ele>2197.71</ele>
        <time>2013-08-04T10:51:43Z</time>
      </trkpt>
      <trkpt lat="46.676684645935893" lon="8.539676824584603">
        <ele>2198.6700000000001</ele>
        <time>2013-08-04T10:51:56Z</time>
      </trkpt>
      <trkpt lat="46.676696045324206" lon="8.539565848186612">
        <ele>2199.6300000000001</ele>
        <time>2013-08-04T10:52:08Z</time>
      </trkpt>
      <trkpt lat="46.676709707826376" lon="8.539479514583945">
        <ele>2202.52</ele>
        <time>2013-08-04T10:52:23Z</time>
      </trkpt>
      <trkpt lat="46.67671037837863" lon="8.539330651983619">
        <ele>2201.5599999999999</ele>
        <time>2013-08-04T10:52:37Z</time>
      </trkpt>
      <trkpt lat="46.676691183820367" lon="8.539269464090467">
        <ele>2203.96</ele>
        <time>2013-08-04T10:52:45Z</time>
      </trkpt>
      <trkpt lat="46.676650112494826" lon="8.539204923436046">
        <ele>2205.4000000000001</ele>
        <time>2013-08-04T10:52:59Z</time>
      </trkpt>
      <trkpt lat="46.676595630124211" lon="8.539105514064431">
        <ele>2206.3600000000001</ele>
        <time>2013-08-04T10:53:13Z</time>
      </trkpt>
      <trkpt lat="46.676526395604014" lon="8.539039213210344">
        <ele>2208.29</ele>
        <time>2013-08-04T10:53:26Z</time>
      </trkpt>
      <trkpt lat="46.67651642113924" lon="8.53903510607779">
        <ele>2209.25</ele>
        <time>2013-08-04T10:53:28Z</time>
      </trkpt>
      <trkpt lat="46.676488341763616" lon="8.538994286209345">
        <ele>2211.1700000000001</ele>
        <time>2013-08-04T10:53:42Z</time>
      </trkpt>
      <trkpt lat="46.676489179953933" lon="8.538993783295155">
        <ele>2211.1700000000001</ele>
        <time>2013-08-04T10:54:06Z</time>
      </trkpt>
      <trkpt lat="46.676536705344915" lon="8.538999650627375">
        <ele>2209.73</ele>
        <time>2013-08-04T10:54:28Z</time>
      </trkpt>
      <trkpt lat="46.676530251279473" lon="8.538975929841399">
        <ele>2209.25</ele>
        <time>2013-08-04T10:54:30Z</time>
      </trkpt>
      <trkpt lat="46.676553972065449" lon="8.538874424993992">
        <ele>2211.1700000000001</ele>
        <time>2013-08-04T10:54:41Z</time>
      </trkpt>
      <trkpt lat="46.676551541313529" lon="8.538760095834732">
        <ele>2213.5700000000002</ele>
        <time>2013-08-04T10:54:55Z</time>
      </trkpt>
      <trkpt lat="46.676525808870792" lon="8.538752216845751">
        <ele>2214.5300000000002</ele>
        <time>2013-08-04T10:55:01Z</time>
      </trkpt>
      <trkpt lat="46.676419610157609" lon="8.538761520758271">
        <ele>2215.5</ele>
        <time>2013-08-04T10:55:14Z</time>
      </trkpt>
      <trkpt lat="46.676366301253438" lon="8.538752384483814">
        <ele>2216.9400000000001</ele>
        <time>2013-08-04T10:55:25Z</time>
      </trkpt>
      <trkpt lat="46.676362026482821" lon="8.538751043379307">
        <ele>2215.98</ele>
        <time>2013-08-04T10:55:26Z</time>
      </trkpt>
      <trkpt lat="46.676265886053443" lon="8.538657585158944">
        <ele>2219.3400000000001</ele>
        <time>2013-08-04T10:55:40Z</time>
      </trkpt>
      <trkpt lat="46.676210816949606" lon="8.538560857996345">
        <ele>2221.2600000000002</ele>
        <time>2013-08-04T10:55:52Z</time>
      </trkpt>
      <trkpt lat="46.676207296550274" lon="8.538548704236746">
        <ele>2221.7399999999998</ele>
        <time>2013-08-04T10:55:54Z</time>
      </trkpt>
      <trkpt lat="46.676161531358957" lon="8.538456251844764">
        <ele>2224.1500000000001</ele>
        <time>2013-08-04T10:56:07Z</time>
      </trkpt>
      <trkpt lat="46.676120879128575" lon="8.538375701755285">
        <ele>2225.5900000000001</ele>
        <time>2013-08-04T10:56:18Z</time>
      </trkpt>
      <trkpt lat="46.676087351515889" lon="8.538334127515554">
        <ele>2226.5500000000002</ele>
        <time>2013-08-04T10:56:29Z</time>
      </trkpt>
      <trkpt lat="46.676050974056125" lon="8.538263384252787">
        <ele>2227.9899999999998</ele>
        <time>2013-08-04T10:56:41Z</time>
      </trkpt>
      <trkpt lat="46.675986517220736" lon="8.538149558007717">
        <ele>2229.9200000000001</ele>
        <time>2013-08-04T10:56:56Z</time>
      </trkpt>
      <trkpt lat="46.675957348197699" lon="8.537975884974003">
        <ele>2230.8800000000001</ele>
        <time>2013-08-04T10:57:10Z</time>
      </trkpt>
      <trkpt lat="46.675913678482175" lon="8.537845211103559">
        <ele>2231.3600000000001</ele>
        <time>2013-08-04T10:57:26Z</time>
      </trkpt>
      <trkpt lat="46.675866572186351" lon="8.537801122292876">
        <ele>2231.8400000000001</ele>
        <time>2013-08-04T10:57:39Z</time>
      </trkpt>
      <trkpt lat="46.67583379894495" lon="8.537776311859489">
        <ele>2232.3200000000002</ele>
        <time>2013-08-04T10:57:50Z</time>
      </trkpt>
      <trkpt lat="46.67578250169754" lon="8.537728451192379">
        <ele>2233.7600000000002</ele>
        <time>2013-08-04T10:58:03Z</time>
      </trkpt>
      <trkpt lat="46.675767665728927" lon="8.537647565826774">
        <ele>2234.2399999999998</ele>
        <time>2013-08-04T10:58:11Z</time>
      </trkpt>
      <trkpt lat="46.675689043477178" lon="8.537511946633458">
        <ele>2235.1999999999998</ele>
        <time>2013-08-04T10:58:26Z</time>
      </trkpt>
      <trkpt lat="46.675675632432103" lon="8.53742016479373">
        <ele>2236.1599999999999</ele>
        <time>2013-08-04T10:58:41Z</time>
      </trkpt>
      <trkpt lat="46.675691977143288" lon="8.537365179508925">
        <ele>2237.1300000000001</ele>
        <time>2013-08-04T10:58:54Z</time>
      </trkpt>
      <trkpt lat="46.675712177529931" lon="8.53731513954699">
        <ele>2238.5700000000002</ele>
        <time>2013-08-04T10:59:05Z</time>
      </trkpt>
      <trkpt lat="46.675720307976007" lon="8.537282282486558">
        <ele>2239.5300000000002</ele>
        <time>2013-08-04T10:59:08Z</time>
      </trkpt>
      <trkpt lat="46.675734892487526" lon="8.537254957482219">
        <ele>2239.0500000000002</ele>
        <time>2013-08-04T10:59:11Z</time>
      </trkpt>
      <trkpt lat="46.675717541947961" lon="8.537098886445165">
        <ele>2241.4499999999998</ele>
        <time>2013-08-04T10:59:25Z</time>
      </trkpt>
      <trkpt lat="46.675696168094873" lon="8.537026131525636">
        <ele>2242.4099999999999</ele>
        <time>2013-08-04T10:59:35Z</time>
      </trkpt>
      <trkpt lat="46.675628358498216" lon="8.536973157897592">
        <ele>2242.4099999999999</ele>
        <time>2013-08-04T10:59:45Z</time>
      </trkpt>
      <trkpt lat="46.675548898056149" lon="8.536924291402102">
        <ele>2240.9699999999998</ele>
        <time>2013-08-04T10:59:54Z</time>
      </trkpt>
      <trkpt lat="46.675502378493547" lon="8.536908449605107">
        <ele>2240.4899999999998</ele>
        <time>2013-08-04T10:59:58Z</time>
      </trkpt>
      <trkpt lat="46.675415206700563" lon="8.536823708564043">
        <ele>2241.4499999999998</ele>
        <time>2013-08-04T11:00:12Z</time>
      </trkpt>
      <trkpt lat="46.675371453166008" lon="8.536747014150024">
        <ele>2243.3699999999999</ele>
        <time>2013-08-04T11:00:28Z</time>
      </trkpt>
      <trkpt lat="46.67534907348454" lon="8.536686915904284">
        <ele>2245.3000000000002</ele>
        <time>2013-08-04T11:00:43Z</time>
      </trkpt>
      <trkpt lat="46.675331220030785" lon="8.53664274327457">
        <ele>2246.7399999999998</ele>
        <time>2013-08-04T11:00:55Z</time>
      </trkpt>
      <trkpt lat="46.675326526165009" lon="8.536639725789428">
        <ele>2247.2199999999998</ele>
        <time>2013-08-04T11:00:57Z</time>
      </trkpt>
      <trkpt lat="46.675265086814761" lon="8.536580884829164">
        <ele>2249.1399999999999</ele>
        <time>2013-08-04T11:01:10Z</time>
      </trkpt>
      <trkpt lat="46.675231559202075" lon="8.536532521247864">
        <ele>2250.0999999999999</ele>
        <time>2013-08-04T11:01:21Z</time>
      </trkpt>
      <trkpt lat="46.675171460956335" lon="8.536483319476247">
        <ele>2251.0599999999999</ele>
        <time>2013-08-04T11:01:28Z</time>
      </trkpt>
      <trkpt lat="46.675117984414101" lon="8.536426238715649">
        <ele>2252.5100000000002</ele>
        <time>2013-08-04T11:01:41Z</time>
      </trkpt>
      <trkpt lat="46.675069872289896" lon="8.536401679739356">
        <ele>2253.4699999999998</ele>
        <time>2013-08-04T11:01:51Z</time>
      </trkpt>
      <trkpt lat="46.675026621669531" lon="8.536360608413816">
        <ele>2254.9099999999999</ele>
        <time>2013-08-04T11:02:06Z</time>
      </trkpt>
      <trkpt lat="46.67501145042479" lon="8.536347700282931">
        <ele>2256.3499999999999</ele>
        <time>2013-08-04T11:02:10Z</time>
      </trkpt>
      <trkpt lat="46.674962332472205" lon="8.536285506561399">
        <ele>2257.79</ele>
        <time>2013-08-04T11:02:23Z</time>
      </trkpt>
      <trkpt lat="46.674991836771369" lon="8.536189114674926">
        <ele>2260.1999999999998</ele>
        <time>2013-08-04T11:02:37Z</time>
      </trkpt>
      <trkpt lat="46.67493861168623" lon="8.536117197945714">
        <ele>2262.1199999999999</ele>
        <time>2013-08-04T11:02:50Z</time>
      </trkpt>
      <trkpt lat="46.674907514825463" lon="8.536080401390791">
        <ele>2263.5599999999999</ele>
        <time>2013-08-04T11:02:55Z</time>
      </trkpt>
      <trkpt lat="46.674833670258522" lon="8.535987194627523">
        <ele>2265</ele>
        <time>2013-08-04T11:03:08Z</time>
      </trkpt>
      <trkpt lat="46.674800980836153" lon="8.535961713641882">
        <ele>2265.48</ele>
        <time>2013-08-04T11:03:13Z</time>
      </trkpt>
      <trkpt lat="46.674715485423803" lon="8.535959282889962">
        <ele>2266.9299999999998</ele>
        <time>2013-08-04T11:03:27Z</time>
      </trkpt>
      <trkpt lat="46.674662008881569" lon="8.535951152443886">
        <ele>2267.8899999999999</ele>
        <time>2013-08-04T11:03:39Z</time>
      </trkpt>
      <trkpt lat="46.674662930890918" lon="8.5358692612499">
        <ele>2269.8099999999999</ele>
        <time>2013-08-04T11:03:51Z</time>
      </trkpt>
      <trkpt lat="46.674685729667544" lon="8.535758201032877">
        <ele>2272.6900000000001</ele>
        <time>2013-08-04T11:04:05Z</time>
      </trkpt>
      <trkpt lat="46.674720263108611" lon="8.535708244889975">
        <ele>2273.6599999999999</ele>
        <time>2013-08-04T11:04:17Z</time>
      </trkpt>
      <trkpt lat="46.674769213423133" lon="8.535690391436219">
        <ele>2274.6199999999999</ele>
        <time>2013-08-04T11:04:25Z</time>
      </trkpt>
      <trkpt lat="46.674865102395415" lon="8.535663820803165">
        <ele>2276.54</ele>
        <time>2013-08-04T11:04:40Z</time>
      </trkpt>
      <trkpt lat="46.674891840666533" lon="8.535660970956087">
        <ele>2277.5</ele>
        <time>2013-08-04T11:04:51Z</time>
      </trkpt>
      <trkpt lat="46.674970295280218" lon="8.53563423268497">
        <ele>2279.9000000000001</ele>
        <time>2013-08-04T11:05:05Z</time>
      </trkpt>
      <trkpt lat="46.674967696890235" lon="8.535617971792817">
        <ele>2281.3499999999999</ele>
        <time>2013-08-04T11:05:12Z</time>
      </trkpt>
      <trkpt lat="46.674887901172042" lon="8.535541277378798">
        <ele>2282.3099999999999</ele>
        <time>2013-08-04T11:05:26Z</time>
      </trkpt>
      <trkpt lat="46.674845656380057" lon="8.535510348156095">
        <ele>2283.75</ele>
        <time>2013-08-04T11:05:40Z</time>
      </trkpt>
      <trkpt lat="46.674764603376389" lon="8.535477658733726">
        <ele>2285.1900000000001</ele>
        <time>2013-08-04T11:05:52Z</time>
      </trkpt>
      <trkpt lat="46.674694865942001" lon="8.535451423376799">
        <ele>2286.1500000000001</ele>
        <time>2013-08-04T11:06:07Z</time>
      </trkpt>
      <trkpt lat="46.674667121842504" lon="8.535438934341073">
        <ele>2288.5599999999999</ele>
        <time>2013-08-04T11:06:19Z</time>
      </trkpt>
      <trkpt lat="46.674638874828815" lon="8.535400880500674">
        <ele>2290.48</ele>
        <time>2013-08-04T11:06:33Z</time>
      </trkpt>
      <trkpt lat="46.674624206498265" lon="8.535363329574466">
        <ele>2291.4400000000001</ele>
        <time>2013-08-04T11:06:53Z</time>
      </trkpt>
      <trkpt lat="46.674674833193421" lon="8.535341117531061">
        <ele>2293.8400000000001</ele>
        <time>2013-08-04T11:07:02Z</time>
      </trkpt>
      <trkpt lat="46.674669217318296" lon="8.535294262692332">
        <ele>2296.25</ele>
        <time>2013-08-04T11:07:14Z</time>
      </trkpt>
      <trkpt lat="46.674649184569716" lon="8.535252269357443">
        <ele>2297.6900000000001</ele>
        <time>2013-08-04T11:07:29Z</time>
      </trkpt>
      <trkpt lat="46.674651615321636" lon="8.535222429782152">
        <ele>2297.6900000000001</ele>
        <time>2013-08-04T11:07:32Z</time>
      </trkpt>
      <trkpt lat="46.67475052177906" lon="8.535208599641919">
        <ele>2300.5700000000002</ele>
        <time>2013-08-04T11:07:45Z</time>
      </trkpt>
      <trkpt lat="46.674799807369709" lon="8.535199463367462">
        <ele>2302.4899999999998</ele>
        <time>2013-08-04T11:07:55Z</time>
      </trkpt>
      <trkpt lat="46.674826294183731" lon="8.535183453932405">
        <ele>2303.46</ele>
        <time>2013-08-04T11:08:06Z</time>
      </trkpt>
      <trkpt lat="46.67486384510994" lon="8.53511530905962">
        <ele>2306.3400000000001</ele>
        <time>2013-08-04T11:08:19Z</time>
      </trkpt>
      <trkpt lat="46.674895696341991" lon="8.535042302682996">
        <ele>2308.2600000000002</ele>
        <time>2013-08-04T11:08:32Z</time>
      </trkpt>
      <trkpt lat="46.67498454451561" lon="8.534970553591847">
        <ele>2309.2199999999998</ele>
        <time>2013-08-04T11:08:46Z</time>
      </trkpt>
      <trkpt lat="46.675049336627126" lon="8.53496577590704">
        <ele>2309.6999999999998</ele>
        <time>2013-08-04T11:08:57Z</time>
      </trkpt>
      <trkpt lat="46.675082864239812" lon="8.534992346540093">
        <ele>2311.6300000000001</ele>
        <time>2013-08-04T11:09:08Z</time>
      </trkpt>
      <trkpt lat="46.675085378810763" lon="8.534976588562131">
        <ele>2313.0700000000002</ele>
        <time>2013-08-04T11:09:24Z</time>
      </trkpt>
      <trkpt lat="46.675089318305254" lon="8.534947000443935">
        <ele>2313.0700000000002</ele>
        <time>2013-08-04T11:09:27Z</time>
      </trkpt>
      <trkpt lat="46.675130892544985" lon="8.534905929118395">
        <ele>2315.9499999999998</ele>
        <time>2013-08-04T11:09:37Z</time>
      </trkpt>
      <trkpt lat="46.675132820382714" lon="8.534873407334089">
        <ele>2317.8800000000001</ele>
        <time>2013-08-04T11:09:51Z</time>
      </trkpt>
      <trkpt lat="46.675142291933298" lon="8.53482361882925">
        <ele>2319.3200000000002</ele>
        <time>2013-08-04T11:10:00Z</time>
      </trkpt>
      <trkpt lat="46.675169114023447" lon="8.534796210005879">
        <ele>2321.7199999999998</ele>
        <time>2013-08-04T11:10:16Z</time>
      </trkpt>
      <trkpt lat="46.675172466784716" lon="8.534761844202876">
        <ele>2321.7199999999998</ele>
        <time>2013-08-04T11:10:27Z</time>
      </trkpt>
      <trkpt lat="46.675156792625785" lon="8.534736530855298">
        <ele>2322.6799999999998</ele>
        <time>2013-08-04T11:10:32Z</time>
      </trkpt>
      <trkpt lat="46.675202557817101" lon="8.534651789814234">
        <ele>2325.5700000000002</ele>
        <time>2013-08-04T11:10:44Z</time>
      </trkpt>
      <trkpt lat="46.675205240026116" lon="8.534582639113069">
        <ele>2327.4899999999998</ele>
        <time>2013-08-04T11:10:55Z</time>
      </trkpt>
      <trkpt lat="46.675210436806083" lon="8.534538801759481">
        <ele>2329.4099999999999</ele>
        <time>2013-08-04T11:11:08Z</time>
      </trkpt>
      <trkpt lat="46.675218064337969" lon="8.534523462876678">
        <ele>2330.3699999999999</ele>
        <time>2013-08-04T11:11:26Z</time>
      </trkpt>
      <trkpt lat="46.675201216712594" lon="8.534472165629268">
        <ele>2331.8099999999999</ele>
        <time>2013-08-04T11:11:37Z</time>
      </trkpt>
      <trkpt lat="46.675205156207085" lon="8.534408630803227">
        <ele>2334.6999999999998</ele>
        <time>2013-08-04T11:11:50Z</time>
      </trkpt>
      <trkpt lat="46.675189062952995" lon="8.534386502578855">
        <ele>2335.1799999999998</ele>
        <time>2013-08-04T11:12:01Z</time>
      </trkpt>
      <trkpt lat="46.675178082659841" lon="8.534309640526772">
        <ele>2338.0599999999999</ele>
        <time>2013-08-04T11:12:14Z</time>
      </trkpt>
      <trkpt lat="46.675152685493231" lon="8.534245770424604">
        <ele>2339.9899999999998</ele>
        <time>2013-08-04T11:12:28Z</time>
      </trkpt>
      <trkpt lat="46.675183866173029" lon="8.534215847030282">
        <ele>2339.9899999999998</ele>
        <time>2013-08-04T11:12:41Z</time>
      </trkpt>
      <trkpt lat="46.675194343551993" lon="8.534157928079367">
        <ele>2341.9099999999999</ele>
        <time>2013-08-04T11:12:55Z</time>
      </trkpt>
      <trkpt lat="46.675212616100907" lon="8.534056255593896">
        <ele>2343.8299999999999</ele>
        <time>2013-08-04T11:13:07Z</time>
      </trkpt>
      <trkpt lat="46.675195349380374" lon="8.533961959183216">
        <ele>2344.79</ele>
        <time>2013-08-04T11:13:20Z</time>
      </trkpt>
      <trkpt lat="46.675203228369355" lon="8.533858358860016">
        <ele>2346.23</ele>
        <time>2013-08-04T11:13:35Z</time>
      </trkpt>
      <trkpt lat="46.675189482048154" lon="8.533810330554843">
        <ele>2347.6799999999998</ele>
        <time>2013-08-04T11:13:50Z</time>
      </trkpt>
      <trkpt lat="46.675209766253829" lon="8.533765655010939">
        <ele>2350.0799999999999</ele>
        <time>2013-08-04T11:14:04Z</time>
      </trkpt>
      <trkpt lat="46.675219153985381" lon="8.533766074106097">
        <ele>2350.0799999999999</ele>
        <time>2013-08-04T11:14:10Z</time>
      </trkpt>
      <trkpt lat="46.675217980518937" lon="8.533688709139824">
        <ele>2351.52</ele>
        <time>2013-08-04T11:14:20Z</time>
      </trkpt>
      <trkpt lat="46.675218818709254" lon="8.533627605065703">
        <ele>2353.9299999999998</ele>
        <time>2013-08-04T11:14:31Z</time>
      </trkpt>
      <trkpt lat="46.675215968862176" lon="8.533571111038327">
        <ele>2353.9299999999998</ele>
        <time>2013-08-04T11:14:44Z</time>
      </trkpt>
      <trkpt lat="46.675215717405081" lon="8.533505648374558">
        <ele>2354.4099999999999</ele>
        <time>2013-08-04T11:14:54Z</time>
      </trkpt>
      <trkpt lat="46.67521957308054" lon="8.53342467918992">
        <ele>2356.3299999999999</ele>
        <time>2013-08-04T11:15:05Z</time>
      </trkpt>
      <trkpt lat="46.675199205055833" lon="8.533380003646016">
        <ele>2357.77</ele>
        <time>2013-08-04T11:15:20Z</time>
      </trkpt>
      <trkpt lat="46.675213035196066" lon="8.533383188769221">
        <ele>2357.77</ele>
        <time>2013-08-04T11:15:36Z</time>
      </trkpt>
      <trkpt lat="46.67520297691226" lon="8.533310936763883">
        <ele>2359.6900000000001</ele>
        <time>2013-08-04T11:15:51Z</time>
      </trkpt>
      <trkpt lat="46.6752889752388" lon="8.533347481861711">
        <ele>2362.0999999999999</ele>
        <time>2013-08-04T11:16:04Z</time>
      </trkpt>
      <trkpt lat="46.675308840349317" lon="8.533324766904116">
        <ele>2364.5</ele>
        <time>2013-08-04T11:16:16Z</time>
      </trkpt>
      <trkpt lat="46.675329795107245" lon="8.533262489363551">
        <ele>2366.9000000000001</ele>
        <time>2013-08-04T11:16:27Z</time>
      </trkpt>
      <trkpt lat="46.67534270323813" lon="8.533219741657376">
        <ele>2368.8299999999999</ele>
        <time>2013-08-04T11:16:39Z</time>
      </trkpt>
      <trkpt lat="46.675328621640801" lon="8.533184705302119">
        <ele>2370.75</ele>
        <time>2013-08-04T11:16:52Z</time>
      </trkpt>
      <trkpt lat="46.675278078764677" lon="8.533117063343525">
        <ele>2371.23</ele>
        <time>2013-08-04T11:17:00Z</time>
      </trkpt>
      <trkpt lat="46.675217477604747" lon="8.533015474677086">
        <ele>2372.6700000000001</ele>
        <time>2013-08-04T11:17:13Z</time>
      </trkpt>
      <trkpt lat="46.675205240026116" lon="8.532922184094787">
        <ele>2374.5900000000001</ele>
        <time>2013-08-04T11:17:26Z</time>
      </trkpt>
      <trkpt lat="46.675190152600408" lon="8.532843142747879">
        <ele>2376.04</ele>
        <time>2013-08-04T11:17:38Z</time>
      </trkpt>
      <trkpt lat="46.675138520076871" lon="8.532757814973593">
        <ele>2378.4400000000001</ele>
        <time>2013-08-04T11:17:53Z</time>
      </trkpt>
      <trkpt lat="46.675087977200747" lon="8.532676845788956">
        <ele>2380.8400000000001</ele>
        <time>2013-08-04T11:18:07Z</time>
      </trkpt>
      <trkpt lat="46.675074398517609" lon="8.532683718949556">
        <ele>2380.8400000000001</ele>
        <time>2013-08-04T11:18:21Z</time>
      </trkpt>
      <trkpt lat="46.675052102655172" lon="8.532617501914501">
        <ele>2382.7600000000002</ele>
        <time>2013-08-04T11:18:41Z</time>
      </trkpt>
      <trkpt lat="46.675063418224454" lon="8.532602833583951">
        <ele>2383.25</ele>
        <time>2013-08-04T11:19:05Z</time>
      </trkpt>
      <trkpt lat="46.675072470679879" lon="8.532547848299146">
        <ele>2385.6500000000001</ele>
        <time>2013-08-04T11:19:16Z</time>
      </trkpt>
      <trkpt lat="46.675134329125285" lon="8.532523540779948">
        <ele>2388.5300000000002</ele>
        <time>2013-08-04T11:19:27Z</time>
      </trkpt>
      <trkpt lat="46.67512234300375" lon="8.532483223825693">
        <ele>2390.46</ele>
        <time>2013-08-04T11:19:43Z</time>
      </trkpt>
      <trkpt lat="46.67508764192462" lon="8.532370654866099">
        <ele>2391.4200000000001</ele>
        <time>2013-08-04T11:19:54Z</time>
      </trkpt>
      <trkpt lat="46.675067357718945" lon="8.532298570498824">
        <ele>2394.7800000000002</ele>
        <time>2013-08-04T11:20:04Z</time>
      </trkpt>
      <trkpt lat="46.675053695216775" lon="8.532267222180963">
        <ele>2396.2199999999998</ele>
        <time>2013-08-04T11:20:10Z</time>
      </trkpt>
      <trkpt lat="46.675041457638144" lon="8.532230257987976">
        <ele>2396.2199999999998</ele>
        <time>2013-08-04T11:20:14Z</time>
      </trkpt>
      <trkpt lat="46.674920087680221" lon="8.532151551917195">
        <ele>2394.7800000000002</ele>
        <time>2013-08-04T11:20:30Z</time>
      </trkpt>
      <trkpt lat="46.674895947799087" lon="8.532074941322208">
        <ele>2392.8600000000001</ele>
        <time>2013-08-04T11:20:42Z</time>
      </trkpt>
      <trkpt lat="46.674871305003762" lon="8.532065385952592">
        <ele>2391.4200000000001</ele>
        <time>2013-08-04T11:20:51Z</time>
      </trkpt>
      <trkpt lat="46.674853200092912" lon="8.531969329342246">
        <ele>2390.9400000000001</ele>
        <time>2013-08-04T11:20:59Z</time>
      </trkpt>
      <trkpt lat="46.674802908673882" lon="8.531869919970632">
        <ele>2391.4200000000001</ele>
        <time>2013-08-04T11:21:14Z</time>
      </trkpt>
      <trkpt lat="46.674741134047508" lon="8.531721811741591">
        <ele>2391.9000000000001</ele>
        <time>2013-08-04T11:21:27Z</time>
      </trkpt>
      <trkpt lat="46.674717413261533" lon="8.531688703224063">
        <ele>2391.4200000000001</ele>
        <time>2013-08-04T11:21:35Z</time>
      </trkpt>
      <trkpt lat="46.67470115236938" lon="8.531614020466805">
        <ele>2391.4200000000001</ele>
        <time>2013-08-04T11:21:41Z</time>
      </trkpt>
      <trkpt lat="46.674685394391418" lon="8.531484268605709">
        <ele>2391.9000000000001</ele>
        <time>2013-08-04T11:21:55Z</time>
      </trkpt>
      <trkpt lat="46.674657817929983" lon="8.531348649412394">
        <ele>2393.3400000000001</ele>
        <time>2013-08-04T11:22:08Z</time>
      </trkpt>
      <trkpt lat="46.674657482653856" lon="8.531302800402045">
        <ele>2394.3000000000002</ele>
        <time>2013-08-04T11:22:13Z</time>
      </trkpt>
      <trkpt lat="46.674651699140668" lon="8.531233398243785">
        <ele>2394.7800000000002</ele>
        <time>2013-08-04T11:22:28Z</time>
      </trkpt>
      <trkpt lat="46.674661757424474" lon="8.531228201463819">
        <ele>2394.3000000000002</ele>
        <time>2013-08-04T11:22:43Z</time>
      </trkpt>
      <trkpt lat="46.674655554816127" lon="8.531202217563987">
        <ele>2395.2600000000002</ele>
        <time>2013-08-04T11:23:02Z</time>
      </trkpt>
      <trkpt lat="46.674658572301269" lon="8.531196853145957">
        <ele>2395.2600000000002</ele>
        <time>2013-08-04T11:23:27Z</time>
      </trkpt>
      <trkpt lat="46.674654632806778" lon="8.531200708821416">
        <ele>2395.7399999999998</ele>
        <time>2013-08-04T11:23:55Z</time>
      </trkpt>
      <trkpt lat="46.674655806273222" lon="8.53119257837534">
        <ele>2395.7399999999998</ele>
        <time>2013-08-04T11:24:12Z</time>
      </trkpt>
      <trkpt lat="46.674658237025142" lon="8.531175144016743">
        <ele>2396.2199999999998</ele>
        <time>2013-08-04T11:24:38Z</time>
      </trkpt>
      <trkpt lat="46.67465471662581" lon="8.531156620010734">
        <ele>2396.2199999999998</ele>
        <time>2013-08-04T11:24:55Z</time>
      </trkpt>
      <trkpt lat="46.674684640020132" lon="8.531146394088864">
        <ele>2395.2600000000002</ele>
        <time>2013-08-04T11:25:06Z</time>
      </trkpt>
      <trkpt lat="46.674686316400766" lon="8.531139604747295">
        <ele>2394.3000000000002</ele>
        <time>2013-08-04T11:25:22Z</time>
      </trkpt>
      <trkpt lat="46.67466594837606" lon="8.531080596148968">
        <ele>2391.9000000000001</ele>
        <time>2013-08-04T11:25:37Z</time>
      </trkpt>
      <trkpt lat="46.674656309187412" lon="8.531071376055479">
        <ele>2391.4200000000001</ele>
        <time>2013-08-04T11:25:59Z</time>
      </trkpt>
      <trkpt lat="46.67465765029192" lon="8.531059138476849">
        <ele>2389.4899999999998</ele>
        <time>2013-08-04T11:26:12Z</time>
      </trkpt>
      <trkpt lat="46.674630828201771" lon="8.531067688018084">
        <ele>2388.0500000000002</ele>
        <time>2013-08-04T11:26:24Z</time>
      </trkpt>
      <trkpt lat="46.674578357487917" lon="8.530994933098555">
        <ele>2385.1700000000001</ele>
        <time>2013-08-04T11:26:37Z</time>
      </trkpt>
      <trkpt lat="46.674546003341675" lon="8.530978923663497">
        <ele>2383.25</ele>
        <time>2013-08-04T11:26:48Z</time>
      </trkpt>
      <trkpt lat="46.674539046362042" lon="8.530954867601395">
        <ele>2382.7600000000002</ele>
        <time>2013-08-04T11:26:51Z</time>
      </trkpt>
      <trkpt lat="46.674535442143679" lon="8.530840873718262">
        <ele>2381.3200000000002</ele>
        <time>2013-08-04T11:27:03Z</time>
      </trkpt>
      <trkpt lat="46.674518091604114" lon="8.530740877613425">
        <ele>2380.3600000000001</ele>
        <time>2013-08-04T11:27:16Z</time>
      </trkpt>
      <trkpt lat="46.674517504870892" lon="8.530686898157001">
        <ele>2380.3600000000001</ele>
        <time>2013-08-04T11:27:20Z</time>
      </trkpt>
      <trkpt lat="46.674570729956031" lon="8.530458742752671">
        <ele>2382.2800000000002</ele>
        <time>2013-08-04T11:27:38Z</time>
      </trkpt>
      <trkpt lat="46.67459855787456" lon="8.530394034460187">
        <ele>2383.25</ele>
        <time>2013-08-04T11:27:46Z</time>
      </trkpt>
      <trkpt lat="46.674665361642838" lon="8.530230922624469">
        <ele>2383.25</ele>
        <time>2013-08-04T11:28:01Z</time>
      </trkpt>
      <trkpt lat="46.674748426303267" lon="8.530081054195762">
        <ele>2383.73</ele>
        <time>2013-08-04T11:28:15Z</time>
      </trkpt>
      <trkpt lat="46.674780696630478" lon="8.530014250427485">
        <ele>2384.21</ele>
        <time>2013-08-04T11:28:21Z</time>
      </trkpt>
      <trkpt lat="46.674848422408104" lon="8.529849210754037">
        <ele>2385.6500000000001</ele>
        <time>2013-08-04T11:28:40Z</time>
      </trkpt>
      <trkpt lat="46.674850266426802" lon="8.529823729768395">
        <ele>2386.1300000000001</ele>
        <time>2013-08-04T11:28:44Z</time>
      </trkpt>
      <trkpt lat="46.674886308610439" lon="8.529720967635512">
        <ele>2387.0900000000001</ele>
        <time>2013-08-04T11:28:55Z</time>
      </trkpt>
      <trkpt lat="46.674894103780389" lon="8.529707221314311">
        <ele>2387.0900000000001</ele>
        <time>2013-08-04T11:28:57Z</time>
      </trkpt>
      <trkpt lat="46.674925871193409" lon="8.529605465009809">
        <ele>2389.4899999999998</ele>
        <time>2013-08-04T11:29:09Z</time>
      </trkpt>
      <trkpt lat="46.674941712990403" lon="8.529515108093619">
        <ele>2392.3800000000001</ele>
        <time>2013-08-04T11:29:22Z</time>
      </trkpt>
      <trkpt lat="46.674961159005761" lon="8.529372196644545">
        <ele>2393.3400000000001</ele>
        <time>2013-08-04T11:29:36Z</time>
      </trkpt>
      <trkpt lat="46.674946825951338" lon="8.52926348336041">
        <ele>2395.7399999999998</ele>
        <time>2013-08-04T11:29:51Z</time>
      </trkpt>
      <trkpt lat="46.674937605857849" lon="8.529121996834874">
        <ele>2398.6300000000001</ele>
        <time>2013-08-04T11:30:05Z</time>
      </trkpt>
      <trkpt lat="46.674958979710937" lon="8.528978079557419">
        <ele>2400.0700000000002</ele>
        <time>2013-08-04T11:30:19Z</time>
      </trkpt>
      <trkpt lat="46.674981107935309" lon="8.528872216120362">
        <ele>2401.9899999999998</ele>
        <time>2013-08-04T11:30:32Z</time>
      </trkpt>
      <trkpt lat="46.675024777650833" lon="8.52877683006227">
        <ele>2402.4699999999998</ele>
        <time>2013-08-04T11:30:49Z</time>
      </trkpt>
      <trkpt lat="46.67503148317337" lon="8.52884866297245">
        <ele>2404.3899999999999</ele>
        <time>2013-08-04T11:31:02Z</time>
      </trkpt>
      <trkpt lat="46.675074063241482" lon="8.52885888889432">
        <ele>2405.8400000000001</ele>
        <time>2013-08-04T11:31:14Z</time>
      </trkpt>
      <trkpt lat="46.675083031877875" lon="8.528741206973791">
        <ele>2407.7600000000002</ele>
        <time>2013-08-04T11:31:27Z</time>
      </trkpt>
      <trkpt lat="46.675100633874536" lon="8.528708936646581">
        <ele>2409.1999999999998</ele>
        <time>2013-08-04T11:31:40Z</time>
      </trkpt>
      <trkpt lat="46.675109183415771" lon="8.52871279232204">
        <ele>2408.7199999999998</ele>
        <time>2013-08-04T11:31:57Z</time>
      </trkpt>
      <trkpt lat="46.675107087939978" lon="8.528712959960103">
        <ele>2408.7199999999998</ele>
        <time>2013-08-04T11:32:31Z</time>
      </trkpt>
      <trkpt lat="46.675101052969694" lon="8.528734417632222">
        <ele>2409.1999999999998</ele>
        <time>2013-08-04T11:32:57Z</time>
      </trkpt>
      <trkpt lat="46.675095185637474" lon="8.528710696846247">
        <ele>2410.1599999999999</ele>
        <time>2013-08-04T11:33:18Z</time>
      </trkpt>
      <trkpt lat="46.675118654966354" lon="8.528718156740069">
        <ele>2411.1199999999999</ele>
        <time>2013-08-04T11:33:30Z</time>
      </trkpt>
      <trkpt lat="46.675152853131294" lon="8.528691669926047">
        <ele>2413.5300000000002</ele>
        <time>2013-08-04T11:33:38Z</time>
      </trkpt>
      <trkpt lat="46.675144219771028" lon="8.528708098456264">
        <ele>2413.0500000000002</ele>
        <time>2013-08-04T11:33:54Z</time>
      </trkpt>
      <trkpt lat="46.675105914473534" lon="8.528747241944075">
        <ele>2411.5999999999999</ele>
        <time>2013-08-04T11:34:07Z</time>
      </trkpt>
      <trkpt lat="46.675090156495571" lon="8.528707511723042">
        <ele>2410.1599999999999</ele>
        <time>2013-08-04T11:34:13Z</time>
      </trkpt>
      <trkpt lat="46.675076996907592" lon="8.528649508953095">
        <ele>2410.1599999999999</ele>
        <time>2013-08-04T11:34:25Z</time>
      </trkpt>
      <trkpt lat="46.675092335790396" lon="8.528657974675298">
        <ele>2409.6799999999998</ele>
        <time>2013-08-04T11:34:46Z</time>
      </trkpt>
      <trkpt lat="46.675096023827791" lon="8.528679348528385">
        <ele>2409.6799999999998</ele>
        <time>2013-08-04T11:35:04Z</time>
      </trkpt>
      <trkpt lat="46.675075236707926" lon="8.528683874756098">
        <ele>2410.1599999999999</ele>
        <time>2013-08-04T11:35:18Z</time>
      </trkpt>
      <trkpt lat="46.675080014392734" lon="8.528675409033895">
        <ele>2410.1599999999999</ele>
        <time>2013-08-04T11:35:31Z</time>
      </trkpt>
      <trkpt lat="46.675085043534636" lon="8.528651352971792">
        <ele>2410.1599999999999</ele>
        <time>2013-08-04T11:35:44Z</time>
      </trkpt>
      <trkpt lat="46.675091246142983" lon="8.528643222525716">
        <ele>2410.1599999999999</ele>
        <time>2013-08-04T11:36:04Z</time>
      </trkpt>
      <trkpt lat="46.675107842311263" lon="8.528663087636232">
        <ele>2410.6399999999999</ele>
        <time>2013-08-04T11:36:22Z</time>
      </trkpt>
      <trkpt lat="46.675130221992731" lon="8.528657220304012">
        <ele>2410.6399999999999</ele>
        <time>2013-08-04T11:36:48Z</time>
      </trkpt>
      <trkpt lat="46.675170455127954" lon="8.528565103188157">
        <ele>2408.2399999999998</ele>
        <time>2013-08-04T11:37:02Z</time>
      </trkpt>
      <trkpt lat="46.675166767090559" lon="8.52852470241487">
        <ele>2407.7600000000002</ele>
        <time>2013-08-04T11:37:21Z</time>
      </trkpt>
      <trkpt lat="46.675236420705914" lon="8.528474997729063">
        <ele>2405.8400000000001</ele>
        <time>2013-08-04T11:37:39Z</time>
      </trkpt>
      <trkpt lat="46.675339518114924" lon="8.528385059908032">
        <ele>2403.4299999999998</ele>
        <time>2013-08-04T11:37:58Z</time>
      </trkpt>
      <trkpt lat="46.675459966063499" lon="8.528287159278989">
        <ele>2401.5100000000002</ele>
        <time>2013-08-04T11:38:18Z</time>
      </trkpt>
      <trkpt lat="46.675556357949972" lon="8.528220187872648">
        <ele>2401.0300000000002</ele>
        <time>2013-08-04T11:38:34Z</time>
      </trkpt>
      <trkpt lat="46.675679320469499" lon="8.528122873976827">
        <ele>2401.9899999999998</ele>
        <time>2013-08-04T11:38:49Z</time>
      </trkpt>
      <trkpt lat="46.675776969641447" lon="8.528042826801539">
        <ele>2403.9099999999999</ele>
        <time>2013-08-04T11:39:06Z</time>
      </trkpt>
      <trkpt lat="46.675783591344953" lon="8.528059171512723">
        <ele>2403.4299999999998</ele>
        <time>2013-08-04T11:39:17Z</time>
      </trkpt>
      <trkpt lat="46.675811083987355" lon="8.528014244511724">
        <ele>2404.3899999999999</ele>
        <time>2013-08-04T11:39:32Z</time>
      </trkpt>
      <trkpt lat="46.675838492810726" lon="8.527994798496366">
        <ele>2404.8800000000001</ele>
        <time>2013-08-04T11:39:46Z</time>
      </trkpt>
      <trkpt lat="46.675868919119239" lon="8.528028912842274">
        <ele>2408.2399999999998</ele>
        <time>2013-08-04T11:40:01Z</time>
      </trkpt>
      <trkpt lat="46.675884006544948" lon="8.528000749647617">
        <ele>2411.5999999999999</ele>
        <time>2013-08-04T11:40:14Z</time>
      </trkpt>
      <trkpt lat="46.675918456166983" lon="8.527996307238936">
        <ele>2414.0100000000002</ele>
        <time>2013-08-04T11:40:30Z</time>
      </trkpt>
      <trkpt lat="46.675960952416062" lon="8.527998654171825">
        <ele>2417.3699999999999</ele>
        <time>2013-08-04T11:40:42Z</time>
      </trkpt>
      <trkpt lat="46.675988528877497" lon="8.528011562302709">
        <ele>2419.3000000000002</ele>
        <time>2013-08-04T11:40:52Z</time>
      </trkpt>
      <trkpt lat="46.676023984327912" lon="8.528008125722408">
        <ele>2419.3000000000002</ele>
        <time>2013-08-04T11:41:06Z</time>
      </trkpt>
      <trkpt lat="46.676034461706877" lon="8.528077779337764">
        <ele>2420.7399999999998</ele>
        <time>2013-08-04T11:41:16Z</time>
      </trkpt>
      <trkpt lat="46.676040412858129" lon="8.528144080191851">
        <ele>2423.6199999999999</ele>
        <time>2013-08-04T11:41:27Z</time>
      </trkpt>
      <trkpt lat="46.676038233563304" lon="8.528185822069645">
        <ele>2424.0999999999999</ele>
        <time>2013-08-04T11:41:32Z</time>
      </trkpt>
      <trkpt lat="46.675988025963306" lon="8.528192695230246">
        <ele>2424.0999999999999</ele>
        <time>2013-08-04T11:41:48Z</time>
      </trkpt>
      <trkpt lat="46.676000012084842" lon="8.528213817626238">
        <ele>2423.6199999999999</ele>
        <time>2013-08-04T11:42:02Z</time>
      </trkpt>
      <trkpt lat="46.676014764234424" lon="8.528179619461298">
        <ele>2423.1399999999999</ele>
        <time>2013-08-04T11:42:19Z</time>
      </trkpt>
      <trkpt lat="46.675994982942939" lon="8.528186660259962">
        <ele>2422.6599999999999</ele>
        <time>2013-08-04T11:42:52Z</time>
      </trkpt>
      <trkpt lat="46.676029684022069" lon="8.52816897444427">
        <ele>2423.6199999999999</ele>
        <time>2013-08-04T11:43:16Z</time>
      </trkpt>
      <trkpt lat="46.676013087853789" lon="8.528145672753453">
        <ele>2423.1399999999999</ele>
        <time>2013-08-04T11:43:46Z</time>
      </trkpt>
      <trkpt lat="46.676023816689849" lon="8.528181379660964">
        <ele>2423.1399999999999</ele>
        <time>2013-08-04T11:44:17Z</time>
      </trkpt>
      <trkpt lat="46.676081316545606" lon="8.528278106823564">
        <ele>2423.1399999999999</ele>
        <time>2013-08-04T11:44:54Z</time>
      </trkpt>
      <trkpt lat="46.676035718992352" lon="8.528186827898026">
        <ele>2423.6199999999999</ele>
        <time>2013-08-04T11:45:25Z</time>
      </trkpt>
      <trkpt lat="46.676060697063804" lon="8.528260085731745">
        <ele>2423.6199999999999</ele>
        <time>2013-08-04T11:45:50Z</time>
      </trkpt>
      <trkpt lat="46.676079388707876" lon="8.528281711041927">
        <ele>2424.0999999999999</ele>
        <time>2013-08-04T11:46:21Z</time>
      </trkpt>
      <trkpt lat="46.676064720377326" lon="8.528250278905034">
        <ele>2423.6199999999999</ele>
        <time>2013-08-04T11:46:56Z</time>
      </trkpt>
      <trkpt lat="46.676046699285507" lon="8.528228485956788">
        <ele>2423.6199999999999</ele>
        <time>2013-08-04T11:47:30Z</time>
      </trkpt>
      <trkpt lat="46.676063127815723" lon="8.528271149843931">
        <ele>2424.0999999999999</ele>
        <time>2013-08-04T11:48:04Z</time>
      </trkpt>
      <trkpt lat="46.676065474748611" lon="8.528261426836252">
        <ele>2424.0999999999999</ele>
        <time>2013-08-04T11:48:43Z</time>
      </trkpt>
      <trkpt lat="46.676065810024738" lon="8.52823787368834">
        <ele>2424.0999999999999</ele>
        <time>2013-08-04T11:49:12Z</time>
      </trkpt>
      <trkpt lat="46.676099672913551" lon="8.528278777375817">
        <ele>2424.0999999999999</ele>
        <time>2013-08-04T11:49:51Z</time>
      </trkpt>
      <trkpt lat="46.676036892458797" lon="8.528203088790178">
        <ele>2423.6199999999999</ele>
        <time>2013-08-04T11:50:20Z</time>
      </trkpt>
      <trkpt lat="46.67603362351656" lon="8.528181882575154">
        <ele>2424.0999999999999</ele>
        <time>2013-08-04T11:50:48Z</time>
      </trkpt>
      <trkpt lat="46.67606245726347" lon="8.528191102668643">
        <ele>2424.0999999999999</ele>
        <time>2013-08-04T11:51:29Z</time>
      </trkpt>
      <trkpt lat="46.676081819459796" lon="8.528265785425901">
        <ele>2424.0999999999999</ele>
        <time>2013-08-04T11:52:03Z</time>
      </trkpt>
      <trkpt lat="46.67610939592123" lon="8.528279280290008">
        <ele>2423.6199999999999</ele>
        <time>2013-08-04T11:52:37Z</time>
      </trkpt>
      <trkpt lat="46.676111910492182" lon="8.528302581980825">
        <ele>2424.0999999999999</ele>
        <time>2013-08-04T11:53:17Z</time>
      </trkpt>
      <trkpt lat="46.676130099222064" lon="8.5283038392663">
        <ele>2424.0999999999999</ele>
        <time>2013-08-04T11:53:53Z</time>
      </trkpt>
      <trkpt lat="46.676092632114887" lon="8.528237035498023">
        <ele>2424.0999999999999</ele>
        <time>2013-08-04T11:54:23Z</time>
      </trkpt>
      <trkpt lat="46.676048375666142" lon="8.528163777664304">
        <ele>2424.0999999999999</ele>
        <time>2013-08-04T11:54:51Z</time>
      </trkpt>
      <trkpt lat="46.676061367616057" lon="8.528196467086673">
        <ele>2423.6199999999999</ele>
        <time>2013-08-04T11:55:18Z</time>
      </trkpt>
      <trkpt lat="46.676256917417049" lon="8.528324710205197">
        <ele>2424.0999999999999</ele>
        <time>2013-08-04T11:55:57Z</time>
      </trkpt>
      <trkpt lat="46.676312992349267" lon="8.528251955285668">
        <ele>2424.0999999999999</ele>
        <time>2013-08-04T11:56:36Z</time>
      </trkpt>
      <trkpt lat="46.676164716482162" lon="8.528166627511382">
        <ele>2424.5799999999999</ele>
        <time>2013-08-04T11:57:14Z</time>
      </trkpt>
      <trkpt lat="46.676228251308203" lon="8.528162855654955">
        <ele>2424.0999999999999</ele>
        <time>2013-08-04T11:57:47Z</time>
      </trkpt>
      <trkpt lat="46.676169577986002" lon="8.528060680255294">
        <ele>2425.0599999999999</ele>
        <time>2013-08-04T11:58:22Z</time>
      </trkpt>
      <trkpt lat="46.676150048151612" lon="8.52799940854311">
        <ele>2424.5799999999999</ele>
        <time>2013-08-04T11:58:58Z</time>
      </trkpt>
      <trkpt lat="46.676134876906872" lon="8.527908967807889">
        <ele>2425.54</ele>
        <time>2013-08-04T11:59:33Z</time>
      </trkpt>
      <trkpt lat="46.676129931584001" lon="8.527929335832596">
        <ele>2426.02</ele>
        <time>2013-08-04T12:00:15Z</time>
      </trkpt>
      <trkpt lat="46.676165470853448" lon="8.527947776019573">
        <ele>2426.5</ele>
        <time>2013-08-04T12:00:53Z</time>
      </trkpt>
      <trkpt lat="46.676130015403032" lon="8.527931431308389">
        <ele>2426.9899999999998</ele>
        <time>2013-08-04T12:01:30Z</time>
      </trkpt>
      <trkpt lat="46.676065223291516" lon="8.527973676100373">
        <ele>2427.4699999999998</ele>
        <time>2013-08-04T12:02:03Z</time>
      </trkpt>
      <trkpt lat="46.676152814179659" lon="8.528070822358131">
        <ele>2427.9499999999998</ele>
        <time>2013-08-04T12:02:42Z</time>
      </trkpt>
      <trkpt lat="46.676133032888174" lon="8.528103176504374">
        <ele>2428.4299999999998</ele>
        <time>2013-08-04T12:03:17Z</time>
      </trkpt>
      <trkpt lat="46.676142672076821" lon="8.527995552867651">
        <ele>2428.9099999999999</ele>
        <time>2013-08-04T12:03:56Z</time>
      </trkpt>
      <trkpt lat="46.676178798079491" lon="8.528051963075995">
        <ele>2428.9099999999999</ele>
        <time>2013-08-04T12:04:28Z</time>
      </trkpt>
      <trkpt lat="46.67614309117198" lon="8.528032014146447">
        <ele>2429.3899999999999</ele>
        <time>2013-08-04T12:05:00Z</time>
      </trkpt>
      <trkpt lat="46.676175445318222" lon="8.528051879256964">
        <ele>2429.8699999999999</ele>
        <time>2013-08-04T12:05:39Z</time>
      </trkpt>
      <trkpt lat="46.676052566617727" lon="8.528045257553458">
        <ele>2430.3499999999999</ele>
        <time>2013-08-04T12:06:09Z</time>
      </trkpt>
      <trkpt lat="46.676060277968645" lon="8.528063781559467">
        <ele>2430.3499999999999</ele>
        <time>2013-08-04T12:06:35Z</time>
      </trkpt>
      <trkpt lat="46.676069162786007" lon="8.528063111007214">
        <ele>2430.3499999999999</ele>
        <time>2013-08-04T12:06:51Z</time>
      </trkpt>
      <trkpt lat="46.676056506112218" lon="8.52805464528501">
        <ele>2430.3499999999999</ele>
        <time>2013-08-04T12:07:04Z</time>
      </trkpt>
      <trkpt lat="46.675999509170651" lon="8.528048023581505">
        <ele>2430.3499999999999</ele>
        <time>2013-08-04T12:07:25Z</time>
      </trkpt>
      <trkpt lat="46.676000347360969" lon="8.528152378275991">
        <ele>2430.3499999999999</ele>
        <time>2013-08-04T12:07:43Z</time>
      </trkpt>
      <trkpt lat="46.675988277420402" lon="8.52814600802958">
        <ele>2430.3499999999999</ele>
        <time>2013-08-04T12:08:02Z</time>
      </trkpt>
      <trkpt lat="46.676000850275159" lon="8.528051292523742">
        <ele>2430.8299999999999</ele>
        <time>2013-08-04T12:08:15Z</time>
      </trkpt>
      <trkpt lat="46.676007052883506" lon="8.528076186776161">
        <ele>2430.3499999999999</ele>
        <time>2013-08-04T12:08:30Z</time>
      </trkpt>
      <trkpt lat="46.675998168066144" lon="8.528047101572156">
        <ele>2428.4299999999998</ele>
        <time>2013-08-04T12:08:42Z</time>
      </trkpt>
      <trkpt lat="46.676025157794356" lon="8.528051376342773">
        <ele>2428.4299999999998</ele>
        <time>2013-08-04T12:08:54Z</time>
      </trkpt>
      <trkpt lat="46.675998754799366" lon="8.528041569516063">
        <ele>2426.5</ele>
        <time>2013-08-04T12:09:05Z</time>
      </trkpt>
      <trkpt lat="46.675939913839102" lon="8.528020028024912">
        <ele>2424.5799999999999</ele>
        <time>2013-08-04T12:09:17Z</time>
      </trkpt>
      <trkpt lat="46.675950307399035" lon="8.528033019974828">
        <ele>2424.5799999999999</ele>
        <time>2013-08-04T12:09:39Z</time>
      </trkpt>
      <trkpt lat="46.675923401489854" lon="8.528025140985847">
        <ele>2424.5799999999999</ele>
        <time>2013-08-04T12:09:54Z</time>
      </trkpt>
      <trkpt lat="46.675898255780339" lon="8.528040312230587">
        <ele>2423.6199999999999</ele>
        <time>2013-08-04T12:10:08Z</time>
      </trkpt>
      <trkpt lat="46.675900099799037" lon="8.528091860935092">
        <ele>2423.6199999999999</ele>
        <time>2013-08-04T12:10:22Z</time>
      </trkpt>
      <trkpt lat="46.675904206931591" lon="8.528138799592853">
        <ele>2422.6599999999999</ele>
        <time>2013-08-04T12:10:35Z</time>
      </trkpt>
      <trkpt lat="46.675865901634097" lon="8.528120359405875">
        <ele>2421.2199999999998</ele>
        <time>2013-08-04T12:10:47Z</time>
      </trkpt>
      <trkpt lat="46.675846790894866" lon="8.528179619461298">
        <ele>2418.8099999999999</ele>
        <time>2013-08-04T12:10:58Z</time>
      </trkpt>
      <trkpt lat="46.6758156940341" lon="8.528113486245275">
        <ele>2415.4499999999998</ele>
        <time>2013-08-04T12:11:09Z</time>
      </trkpt>
      <trkpt lat="46.675810078158975" lon="8.528061853721738">
        <ele>2413.0500000000002</ele>
        <time>2013-08-04T12:11:20Z</time>
      </trkpt>
      <trkpt lat="46.675816867500544" lon="8.528042826801539">
        <ele>2411.1199999999999</ele>
        <time>2013-08-04T12:11:31Z</time>
      </trkpt>
      <trkpt lat="46.675824746489525" lon="8.52800183929503">
        <ele>2412.0900000000001</ele>
        <time>2013-08-04T12:11:46Z</time>
      </trkpt>
      <trkpt lat="46.675829440355301" lon="8.528043748810887">
        <ele>2412.5700000000002</ele>
        <time>2013-08-04T12:12:06Z</time>
      </trkpt>
      <trkpt lat="46.675817621871829" lon="8.52804240770638">
        <ele>2412.5700000000002</ele>
        <time>2013-08-04T12:12:28Z</time>
      </trkpt>
      <trkpt lat="46.67573849670589" lon="8.528099153190851">
        <ele>2411.5999999999999</ele>
        <time>2013-08-04T12:12:41Z</time>
      </trkpt>
      <trkpt lat="46.675725923851132" lon="8.528120359405875">
        <ele>2411.5999999999999</ele>
        <time>2013-08-04T12:12:43Z</time>
      </trkpt>
      <trkpt lat="46.675652917474508" lon="8.5281777754426">
        <ele>2409.6799999999998</ele>
        <time>2013-08-04T12:13:01Z</time>
      </trkpt>
      <trkpt lat="46.675611846148968" lon="8.5281968023628">
        <ele>2409.1999999999998</ele>
        <time>2013-08-04T12:13:27Z</time>
      </trkpt>
      <trkpt lat="46.675589801743627" lon="8.528212141245604">
        <ele>2408.7199999999998</ele>
        <time>2013-08-04T12:13:35Z</time>
      </trkpt>
      <trkpt lat="46.675437167286873" lon="8.528362344950438">
        <ele>2409.1999999999998</ele>
        <time>2013-08-04T12:13:52Z</time>
      </trkpt>
      <trkpt lat="46.675311271101236" lon="8.52847340516746">
        <ele>2410.6399999999999</ele>
        <time>2013-08-04T12:14:08Z</time>
      </trkpt>
      <trkpt lat="46.675251005217433" lon="8.528543058782816">
        <ele>2411.5999999999999</ele>
        <time>2013-08-04T12:14:25Z</time>
      </trkpt>
      <trkpt lat="46.675221836194396" lon="8.528537694364786">
        <ele>2412.0900000000001</ele>
        <time>2013-08-04T12:14:46Z</time>
      </trkpt>
      <trkpt lat="46.675158217549324" lon="8.528591841459274">
        <ele>2414.4899999999998</ele>
        <time>2013-08-04T12:15:02Z</time>
      </trkpt>
      <trkpt lat="46.675099628046155" lon="8.528632409870625">
        <ele>2416.4099999999999</ele>
        <time>2013-08-04T12:15:17Z</time>
      </trkpt>
      <trkpt lat="46.675066603347659" lon="8.528710026293993">
        <ele>2418.8099999999999</ele>
        <time>2013-08-04T12:15:33Z</time>
      </trkpt>
      <trkpt lat="46.675079092383385" lon="8.52868689224124">
        <ele>2418.3299999999999</ele>
        <time>2013-08-04T12:15:49Z</time>
      </trkpt>
      <trkpt lat="46.675050174817443" lon="8.528698375448585">
        <ele>2418.3299999999999</ele>
        <time>2013-08-04T12:16:07Z</time>
      </trkpt>
      <trkpt lat="46.675073895603418" lon="8.528710026293993">
        <ele>2418.3299999999999</ele>
        <time>2013-08-04T12:16:30Z</time>
      </trkpt>
      <trkpt lat="46.675070375204086" lon="8.528745146468282">
        <ele>2418.3299999999999</ele>
        <time>2013-08-04T12:16:47Z</time>
      </trkpt>
      <trkpt lat="46.675083031877875" lon="8.528676079586148">
        <ele>2418.8099999999999</ele>
        <time>2013-08-04T12:17:02Z</time>
      </trkpt>
      <trkpt lat="46.675081020221114" lon="8.528658645227552">
        <ele>2418.8099999999999</ele>
        <time>2013-08-04T12:17:18Z</time>
      </trkpt>
      <trkpt lat="46.675078170374036" lon="8.528671469539404">
        <ele>2418.8099999999999</ele>
        <time>2013-08-04T12:17:36Z</time>
      </trkpt>
      <trkpt lat="46.6750817745924" lon="8.528690664097667">
        <ele>2418.3299999999999</ele>
        <time>2013-08-04T12:17:50Z</time>
      </trkpt>
      <trkpt lat="46.675081690773368" lon="8.528669038787484">
        <ele>2418.8099999999999</ele>
        <time>2013-08-04T12:18:11Z</time>
      </trkpt>
      <trkpt lat="46.675081858411431" lon="8.528674319386482">
        <ele>2418.3299999999999</ele>
        <time>2013-08-04T12:18:29Z</time>
      </trkpt>
      <trkpt lat="46.675084540620446" lon="8.528743218630552">
        <ele>2417.8499999999999</ele>
        <time>2013-08-04T12:18:40Z</time>
      </trkpt>
      <trkpt lat="46.67508034966886" lon="8.528801808133721">
        <ele>2416.4099999999999</ele>
        <time>2013-08-04T12:18:45Z</time>
      </trkpt>
      <trkpt lat="46.675046989694238" lon="8.528887806460261">
        <ele>2414.9699999999998</ele>
        <time>2013-08-04T12:18:58Z</time>
      </trkpt>
      <trkpt lat="46.675052857026458" lon="8.528903899714351">
        <ele>2414.4899999999998</ele>
        <time>2013-08-04T12:19:12Z</time>
      </trkpt>
      <trkpt lat="46.675049252808094" lon="8.528897445648909">
        <ele>2414.0100000000002</ele>
        <time>2013-08-04T12:19:24Z</time>
      </trkpt>
      <trkpt lat="46.675028130412102" lon="8.528902055695653">
        <ele>2413.5300000000002</ele>
        <time>2013-08-04T12:19:37Z</time>
      </trkpt>
      <trkpt lat="46.675032405182719" lon="8.528867354616523">
        <ele>2413.5300000000002</ele>
        <time>2013-08-04T12:19:48Z</time>
      </trkpt>
      <trkpt lat="46.675032656639814" lon="8.528853943571448">
        <ele>2413.0500000000002</ele>
        <time>2013-08-04T12:20:05Z</time>
      </trkpt>
      <trkpt lat="46.67500801384449" lon="8.528800550848246">
        <ele>2411.1199999999999</ele>
        <time>2013-08-04T12:20:18Z</time>
      </trkpt>
      <trkpt lat="46.675017904490232" lon="8.528828797861934">
        <ele>2410.6399999999999</ele>
        <time>2013-08-04T12:20:30Z</time>
      </trkpt>
      <trkpt lat="46.675007930025458" lon="8.528890488669276">
        <ele>2410.6399999999999</ele>
        <time>2013-08-04T12:20:37Z</time>
      </trkpt>
      <trkpt lat="46.675001140683889" lon="8.528910269960761">
        <ele>2410.6399999999999</ele>
        <time>2013-08-04T12:20:39Z</time>
      </trkpt>
      <trkpt lat="46.67496501468122" lon="8.52900012396276">
        <ele>2410.1599999999999</ele>
        <time>2013-08-04T12:20:50Z</time>
      </trkpt>
      <trkpt lat="46.67494548484683" lon="8.529056115075946">
        <ele>2410.1599999999999</ele>
        <time>2013-08-04T12:20:56Z</time>
      </trkpt>
      <trkpt lat="46.674943640828133" lon="8.529096180573106">
        <ele>2407.2800000000002</ele>
        <time>2013-08-04T12:20:59Z</time>
      </trkpt>
      <trkpt lat="46.674979515373707" lon="8.529242444783449">
        <ele>2405.3600000000001</ele>
        <time>2013-08-04T12:21:13Z</time>
      </trkpt>
      <trkpt lat="46.675006588920951" lon="8.529326012358069">
        <ele>2403.9099999999999</ele>
        <time>2013-08-04T12:21:18Z</time>
      </trkpt>
      <trkpt lat="46.674992591142654" lon="8.52950194850564">
        <ele>2401.0300000000002</ele>
        <time>2013-08-04T12:21:30Z</time>
      </trkpt>
      <trkpt lat="46.674989992752671" lon="8.529543438926339">
        <ele>2401.5100000000002</ele>
        <time>2013-08-04T12:21:33Z</time>
      </trkpt>
      <trkpt lat="46.674947161227465" lon="8.529637819156051">
        <ele>2398.6300000000001</ele>
        <time>2013-08-04T12:21:42Z</time>
      </trkpt>
      <trkpt lat="46.674912460148335" lon="8.529703700914979">
        <ele>2396.6999999999998</ele>
        <time>2013-08-04T12:21:48Z</time>
      </trkpt>
      <trkpt lat="46.674897288903594" lon="8.529779221862555">
        <ele>2395.2600000000002</ele>
        <time>2013-08-04T12:21:54Z</time>
      </trkpt>
      <trkpt lat="46.674886392429471" lon="8.529879134148359">
        <ele>2394.7800000000002</ele>
        <time>2013-08-04T12:22:02Z</time>
      </trkpt>
      <trkpt lat="46.674870550632477" lon="8.529968149960041">
        <ele>2394.3000000000002</ele>
        <time>2013-08-04T12:22:11Z</time>
      </trkpt>
      <trkpt lat="46.674805674701929" lon="8.530081808567047">
        <ele>2393.3400000000001</ele>
        <time>2013-08-04T12:22:23Z</time>
      </trkpt>
      <trkpt lat="46.67479301802814" lon="8.530100751668215">
        <ele>2392.8600000000001</ele>
        <time>2013-08-04T12:22:25Z</time>
      </trkpt>
      <trkpt lat="46.674760580062866" lon="8.530147774145007">
        <ele>2392.8600000000001</ele>
        <time>2013-08-04T12:22:29Z</time>
      </trkpt>
      <trkpt lat="46.674742223694921" lon="8.53020217269659">
        <ele>2392.3800000000001</ele>
        <time>2013-08-04T12:22:33Z</time>
      </trkpt>
      <trkpt lat="46.674645496532321" lon="8.530376181006432">
        <ele>2392.8600000000001</ele>
        <time>2013-08-04T12:22:48Z</time>
      </trkpt>
      <trkpt lat="46.674627140164375" lon="8.530468801036477">
        <ele>2391.9000000000001</ele>
        <time>2013-08-04T12:23:00Z</time>
      </trkpt>
      <trkpt lat="46.674629235640168" lon="8.530487827956677">
        <ele>2391.4200000000001</ele>
        <time>2013-08-04T12:23:02Z</time>
      </trkpt>
      <trkpt lat="46.674611382186413" lon="8.530542645603418">
        <ele>2389.9699999999998</ele>
        <time>2013-08-04T12:23:07Z</time>
      </trkpt>
      <trkpt lat="46.674598306417465" lon="8.530635433271527">
        <ele>2389.4899999999998</ele>
        <time>2013-08-04T12:23:12Z</time>
      </trkpt>
      <trkpt lat="46.674561509862542" lon="8.530704248696566">
        <ele>2389.0100000000002</ele>
        <time>2013-08-04T12:23:25Z</time>
      </trkpt>
      <trkpt lat="46.674570729956031" lon="8.530881106853485">
        <ele>2389.4899999999998</ele>
        <time>2013-08-04T12:23:37Z</time>
      </trkpt>
      <trkpt lat="46.674591517075896" lon="8.530983198434115">
        <ele>2391.4200000000001</ele>
        <time>2013-08-04T12:23:47Z</time>
      </trkpt>
      <trkpt lat="46.67460291646421" lon="8.530996441841126">
        <ele>2392.3800000000001</ele>
        <time>2013-08-04T12:23:58Z</time>
      </trkpt>
      <trkpt lat="46.674636527895927" lon="8.530977498739958">
        <ele>2394.7800000000002</ele>
        <time>2013-08-04T12:24:12Z</time>
      </trkpt>
      <trkpt lat="46.674652537330985" lon="8.531040782108903">
        <ele>2396.2199999999998</ele>
        <time>2013-08-04T12:24:23Z</time>
      </trkpt>
      <trkpt lat="46.674666618928313" lon="8.531004320830107">
        <ele>2397.1799999999998</ele>
        <time>2013-08-04T12:24:35Z</time>
      </trkpt>
      <trkpt lat="46.674679275602102" lon="8.531013457104564">
        <ele>2398.6300000000001</ele>
        <time>2013-08-04T12:24:51Z</time>
      </trkpt>
      <trkpt lat="46.674692016094923" lon="8.531088475137949">
        <ele>2400.5500000000002</ele>
        <time>2013-08-04T12:25:03Z</time>
      </trkpt>
      <trkpt lat="46.674688411876559" lon="8.531097192317247">
        <ele>2401.0300000000002</ele>
        <time>2013-08-04T12:25:08Z</time>
      </trkpt>
      <trkpt lat="46.674711378291249" lon="8.531111776828766">
        <ele>2402.4699999999998</ele>
        <time>2013-08-04T12:25:22Z</time>
      </trkpt>
      <trkpt lat="46.674700565636158" lon="8.531198864802718">
        <ele>2405.3600000000001</ele>
        <time>2013-08-04T12:25:37Z</time>
      </trkpt>
      <trkpt lat="46.674698973074555" lon="8.531290395185351">
        <ele>2404.3899999999999</ele>
        <time>2013-08-04T12:25:44Z</time>
      </trkpt>
      <trkpt lat="46.674689752981067" lon="8.531392486765981">
        <ele>2402.9499999999998</ele>
        <time>2013-08-04T12:25:53Z</time>
      </trkpt>
      <trkpt lat="46.674701320007443" lon="8.531447304412723">
        <ele>2402.4699999999998</ele>
        <time>2013-08-04T12:25:58Z</time>
      </trkpt>
      <trkpt lat="46.674744319170713" lon="8.531513018533588">
        <ele>2401.0300000000002</ele>
        <time>2013-08-04T12:26:03Z</time>
      </trkpt>
      <trkpt lat="46.674773655831814" lon="8.531719716265798">
        <ele>2400.0700000000002</ele>
        <time>2013-08-04T12:26:18Z</time>
      </trkpt>
      <trkpt lat="46.674830485135317" lon="8.531888863071799">
        <ele>2399.1100000000001</ele>
        <time>2013-08-04T12:26:31Z</time>
      </trkpt>
      <trkpt lat="46.674881111830473" lon="8.531957762315869">
        <ele>2400.0700000000002</ele>
        <time>2013-08-04T12:26:42Z</time>
      </trkpt>
      <trkpt lat="46.674901144579053" lon="8.532062619924545">
        <ele>2400.5500000000002</ele>
        <time>2013-08-04T12:26:53Z</time>
      </trkpt>
      <trkpt lat="46.674956129863858" lon="8.532119113951922">
        <ele>2402.9499999999998</ele>
        <time>2013-08-04T12:27:06Z</time>
      </trkpt>
      <trkpt lat="46.675021089613438" lon="8.532176613807678">
        <ele>2404.8800000000001</ele>
        <time>2013-08-04T12:27:18Z</time>
      </trkpt>
      <trkpt lat="46.675083199515939" lon="8.532239561900497">
        <ele>2404.3899999999999</ele>
        <time>2013-08-04T12:27:31Z</time>
      </trkpt>
      <trkpt lat="46.675094347447157" lon="8.532332601025701">
        <ele>2401.9899999999998</ele>
        <time>2013-08-04T12:27:44Z</time>
      </trkpt>
      <trkpt lat="46.675134664401412" lon="8.532489677891135">
        <ele>2399.1100000000001</ele>
        <time>2013-08-04T12:27:58Z</time>
      </trkpt>
      <trkpt lat="46.675145896151662" lon="8.53255782276392">
        <ele>2397.1799999999998</ele>
        <time>2013-08-04T12:28:13Z</time>
      </trkpt>
      <trkpt lat="46.675111697986722" lon="8.532574670389295">
        <ele>2394.7800000000002</ele>
        <time>2013-08-04T12:28:26Z</time>
      </trkpt>
      <trkpt lat="46.675107171759009" lon="8.532600570470095">
        <ele>2392.8600000000001</ele>
        <time>2013-08-04T12:28:32Z</time>
      </trkpt>
      <trkpt lat="46.675095940008759" lon="8.532641977071762">
        <ele>2390.46</ele>
        <time>2013-08-04T12:28:43Z</time>
      </trkpt>
      <trkpt lat="46.675109351053834" lon="8.532659914344549">
        <ele>2389.4899999999998</ele>
        <time>2013-08-04T12:28:45Z</time>
      </trkpt>
      <trkpt lat="46.675162576138973" lon="8.53273618966341">
        <ele>2387.0900000000001</ele>
        <time>2013-08-04T12:28:59Z</time>
      </trkpt>
      <trkpt lat="46.675172466784716" lon="8.532745493575931">
        <ele>2386.6100000000001</ele>
        <time>2013-08-04T12:29:03Z</time>
      </trkpt>
      <trkpt lat="46.675216136500239" lon="8.532797461375594">
        <ele>2385.6500000000001</ele>
        <time>2013-08-04T12:29:10Z</time>
      </trkpt>
      <trkpt lat="46.6752406116575" lon="8.532924028113484">
        <ele>2383.25</ele>
        <time>2013-08-04T12:29:19Z</time>
      </trkpt>
      <trkpt lat="46.67527187615633" lon="8.533051265403628">
        <ele>2380.3600000000001</ele>
        <time>2013-08-04T12:29:29Z</time>
      </trkpt>
      <trkpt lat="46.675300626084208" lon="8.533102562651038">
        <ele>2379.8800000000001</ele>
        <time>2013-08-04T12:29:35Z</time>
      </trkpt>
      <trkpt lat="46.675364160910249" lon="8.53320088237524">
        <ele>2379.4000000000001</ele>
        <time>2013-08-04T12:29:48Z</time>
      </trkpt>
      <trkpt lat="46.675379332154989" lon="8.533256119117141">
        <ele>2377.96</ele>
        <time>2013-08-04T12:30:01Z</time>
      </trkpt>
      <trkpt lat="46.675385953858495" lon="8.533265255391598">
        <ele>2377.96</ele>
        <time>2013-08-04T12:30:12Z</time>
      </trkpt>
      <trkpt lat="46.675408501178026" lon="8.533281181007624">
        <ele>2377.48</ele>
        <time>2013-08-04T12:30:24Z</time>
      </trkpt>
      <trkpt lat="46.675397856160998" lon="8.533280929550529">
        <ele>2377</ele>
        <time>2013-08-04T12:30:40Z</time>
      </trkpt>
      <trkpt lat="46.675406321883202" lon="8.533267350867391">
        <ele>2378.4400000000001</ele>
        <time>2013-08-04T12:30:59Z</time>
      </trkpt>
      <trkpt lat="46.67541210539639" lon="8.533273050561547">
        <ele>2378.4400000000001</ele>
        <time>2013-08-04T12:31:21Z</time>
      </trkpt>
      <trkpt lat="46.675398359075189" lon="8.533303057774901">
        <ele>2377.48</ele>
        <time>2013-08-04T12:31:43Z</time>
      </trkpt>
      <trkpt lat="46.675381930544972" lon="8.533300794661045">
        <ele>2376.04</ele>
        <time>2013-08-04T12:31:57Z</time>
      </trkpt>
      <trkpt lat="46.675355276092887" lon="8.533289730548859">
        <ele>2375.0700000000002</ele>
        <time>2013-08-04T12:32:07Z</time>
      </trkpt>
      <trkpt lat="46.675348402932286" lon="8.533330215141177">
        <ele>2373.1500000000001</ele>
        <time>2013-08-04T12:32:17Z</time>
      </trkpt>
      <trkpt lat="46.675349241122603" lon="8.533339938148856">
        <ele>2373.1500000000001</ele>
        <time>2013-08-04T12:32:18Z</time>
      </trkpt>
      <trkpt lat="46.67531680315733" lon="8.53336944244802">
        <ele>2370.75</ele>
        <time>2013-08-04T12:32:25Z</time>
      </trkpt>
      <trkpt lat="46.675219740718603" lon="8.533329963684082">
        <ele>2368.3499999999999</ele>
        <time>2013-08-04T12:32:38Z</time>
      </trkpt>
      <trkpt lat="46.675234492868185" lon="8.533411268144846">
        <ele>2365.46</ele>
        <time>2013-08-04T12:32:49Z</time>
      </trkpt>
      <trkpt lat="46.675234660506248" lon="8.533437252044678">
        <ele>2364.5</ele>
        <time>2013-08-04T12:32:52Z</time>
      </trkpt>
      <trkpt lat="46.675251927226782" lon="8.533527525141835">
        <ele>2363.0599999999999</ele>
        <time>2013-08-04T12:33:03Z</time>
      </trkpt>
      <trkpt lat="46.675251759588718" lon="8.533539511263371">
        <ele>2362.5799999999999</ele>
        <time>2013-08-04T12:33:04Z</time>
      </trkpt>
      <trkpt lat="46.675260309129953" lon="8.533665155991912">
        <ele>2361.6199999999999</ele>
        <time>2013-08-04T12:33:15Z</time>
      </trkpt>
      <trkpt lat="46.675250083208084" lon="8.533698599785566">
        <ele>2360.6500000000001</ele>
        <time>2013-08-04T12:33:18Z</time>
      </trkpt>
      <trkpt lat="46.675253184512258" lon="8.533762386068702">
        <ele>2359.21</ele>
        <time>2013-08-04T12:33:24Z</time>
      </trkpt>
      <trkpt lat="46.675251675769687" lon="8.533796165138483">
        <ele>2358.25</ele>
        <time>2013-08-04T12:33:28Z</time>
      </trkpt>
      <trkpt lat="46.675256034359336" lon="8.533851820975542">
        <ele>2357.29</ele>
        <time>2013-08-04T12:33:34Z</time>
      </trkpt>
      <trkpt lat="46.675256872549653" lon="8.533954499289393">
        <ele>2355.3699999999999</ele>
        <time>2013-08-04T12:33:45Z</time>
      </trkpt>
      <trkpt lat="46.675248574465513" lon="8.534006886184216">
        <ele>2354.4099999999999</ele>
        <time>2013-08-04T12:33:55Z</time>
      </trkpt>
      <trkpt lat="46.675245305523276" lon="8.53406329639256">
        <ele>2353.9299999999998</ele>
        <time>2013-08-04T12:34:02Z</time>
      </trkpt>
      <trkpt lat="46.675235331058502" lon="8.534119874238968">
        <ele>2352.48</ele>
        <time>2013-08-04T12:34:06Z</time>
      </trkpt>
      <trkpt lat="46.675217393785715" lon="8.534160358831286">
        <ele>2351.04</ele>
        <time>2013-08-04T12:34:19Z</time>
      </trkpt>
      <trkpt lat="46.675217309966683" lon="8.534201681613922">
        <ele>2350.5599999999999</ele>
        <time>2013-08-04T12:34:24Z</time>
      </trkpt>
      <trkpt lat="46.675198031589389" lon="8.534299749881029">
        <ele>2347.6799999999998</ele>
        <time>2013-08-04T12:34:37Z</time>
      </trkpt>
      <trkpt lat="46.675212364643812" lon="8.534373510628939">
        <ele>2345.27</ele>
        <time>2013-08-04T12:34:50Z</time>
      </trkpt>
      <trkpt lat="46.675236504524946" lon="8.534460514783859">
        <ele>2342.3899999999999</ele>
        <time>2013-08-04T12:35:03Z</time>
      </trkpt>
      <trkpt lat="46.675241785123944" lon="8.53454265743494">
        <ele>2339.5100000000002</ele>
        <time>2013-08-04T12:35:15Z</time>
      </trkpt>
      <trkpt lat="46.675273217260838" lon="8.534574173390865">
        <ele>2338.0599999999999</ele>
        <time>2013-08-04T12:35:27Z</time>
      </trkpt>
      <trkpt lat="46.675279755145311" lon="8.534603845328093">
        <ele>2338.0599999999999</ele>
        <time>2013-08-04T12:35:31Z</time>
      </trkpt>
      <trkpt lat="46.675275899469852" lon="8.534698644652963">
        <ele>2335.6599999999999</ele>
        <time>2013-08-04T12:35:44Z</time>
      </trkpt>
      <trkpt lat="46.675270199775696" lon="8.534737201407552">
        <ele>2333.7399999999998</ele>
        <time>2013-08-04T12:35:50Z</time>
      </trkpt>
      <trkpt lat="46.675247568637133" lon="8.534798473119736">
        <ele>2332.3000000000002</ele>
        <time>2013-08-04T12:35:57Z</time>
      </trkpt>
      <trkpt lat="46.675236336886883" lon="8.534817583858967">
        <ele>2330.8499999999999</ele>
        <time>2013-08-04T12:35:59Z</time>
      </trkpt>
      <trkpt lat="46.675227368250489" lon="8.534835437312722">
        <ele>2329.8899999999999</ele>
        <time>2013-08-04T12:36:01Z</time>
      </trkpt>
      <trkpt lat="46.67522300966084" lon="8.53484507650137">
        <ele>2329.4099999999999</ele>
        <time>2013-08-04T12:36:02Z</time>
      </trkpt>
      <trkpt lat="46.675201468169689" lon="8.534870808944106">
        <ele>2328.4499999999998</ele>
        <time>2013-08-04T12:36:05Z</time>
      </trkpt>
      <trkpt lat="46.6751594748348" lon="8.534862091764808">
        <ele>2327.0100000000002</ele>
        <time>2013-08-04T12:36:11Z</time>
      </trkpt>
      <trkpt lat="46.675125360488892" lon="8.534948257729411">
        <ele>2324.1199999999999</ele>
        <time>2013-08-04T12:36:22Z</time>
      </trkpt>
      <trkpt lat="46.67511697858572" lon="8.534976756200194">
        <ele>2322.1999999999998</ele>
        <time>2013-08-04T12:36:34Z</time>
      </trkpt>
      <trkpt lat="46.675109770148993" lon="8.535008607432246">
        <ele>2321.2399999999998</ele>
        <time>2013-08-04T12:36:44Z</time>
      </trkpt>
      <trkpt lat="46.675070961937308" lon="8.535006092861295">
        <ele>2318.8400000000001</ele>
        <time>2013-08-04T12:36:54Z</time>
      </trkpt>
      <trkpt lat="46.675016228109598" lon="8.535001985728741">
        <ele>2317.8800000000001</ele>
        <time>2013-08-04T12:37:00Z</time>
      </trkpt>
      <trkpt lat="46.674925703555346" lon="8.535092929378152">
        <ele>2316.9099999999999</ele>
        <time>2013-08-04T12:37:14Z</time>
      </trkpt>
      <trkpt lat="46.674915309995413" lon="8.535110531374812">
        <ele>2315.9499999999998</ele>
        <time>2013-08-04T12:37:16Z</time>
      </trkpt>
      <trkpt lat="46.674894941970706" lon="8.535165181383491">
        <ele>2314.5100000000002</ele>
        <time>2013-08-04T12:37:25Z</time>
      </trkpt>
      <trkpt lat="46.674871975556016" lon="8.535184040665627">
        <ele>2313.0700000000002</ele>
        <time>2013-08-04T12:37:28Z</time>
      </trkpt>
      <trkpt lat="46.674848590046167" lon="8.53521496988833">
        <ele>2311.6300000000001</ele>
        <time>2013-08-04T12:37:33Z</time>
      </trkpt>
      <trkpt lat="46.67477197945118" lon="8.535239025950432">
        <ele>2309.6999999999998</ele>
        <time>2013-08-04T12:37:45Z</time>
      </trkpt>
      <trkpt lat="46.674687825143337" lon="8.535245899111033">
        <ele>2306.8200000000002</ele>
        <time>2013-08-04T12:38:00Z</time>
      </trkpt>
      <trkpt lat="46.674705259501934" lon="8.535322761163116">
        <ele>2304.9000000000001</ele>
        <time>2013-08-04T12:38:12Z</time>
      </trkpt>
      <trkpt lat="46.674703080207109" lon="8.535373136401177">
        <ele>2302.98</ele>
        <time>2013-08-04T12:38:23Z</time>
      </trkpt>
      <trkpt lat="46.67464935220778" lon="8.535405993461609">
        <ele>2300.5700000000002</ele>
        <time>2013-08-04T12:38:35Z</time>
      </trkpt>
      <trkpt lat="46.674650944769382" lon="8.535418063402176">
        <ele>2300.5700000000002</ele>
        <time>2013-08-04T12:38:37Z</time>
      </trkpt>
      <trkpt lat="46.674664691090584" lon="8.535456284880638">
        <ele>2298.6500000000001</ele>
        <time>2013-08-04T12:38:48Z</time>
      </trkpt>
      <trkpt lat="46.674720095470548" lon="8.535447735339403">
        <ele>2296.25</ele>
        <time>2013-08-04T12:38:59Z</time>
      </trkpt>
      <trkpt lat="46.674767285585403" lon="8.535469109192491">
        <ele>2294.8000000000002</ele>
        <time>2013-08-04T12:39:05Z</time>
      </trkpt>
      <trkpt lat="46.674819085747004" lon="8.535465756431222">
        <ele>2293.8400000000001</ele>
        <time>2013-08-04T12:39:10Z</time>
      </trkpt>
      <trkpt lat="46.674892008304596" lon="8.535530213266611">
        <ele>2291.9200000000001</ele>
        <time>2013-08-04T12:39:24Z</time>
      </trkpt>
      <trkpt lat="46.674930565059185" lon="8.535542702302337">
        <ele>2291.4400000000001</ele>
        <time>2013-08-04T12:39:28Z</time>
      </trkpt>
      <trkpt lat="46.674993429332972" lon="8.535609925165772">
        <ele>2290.48</ele>
        <time>2013-08-04T12:39:41Z</time>
      </trkpt>
      <trkpt lat="46.674968115985394" lon="8.535664407536387">
        <ele>2288.5599999999999</ele>
        <time>2013-08-04T12:39:52Z</time>
      </trkpt>
      <trkpt lat="46.674873819574714" lon="8.535695672035217">
        <ele>2285.1900000000001</ele>
        <time>2013-08-04T12:40:06Z</time>
      </trkpt>
      <trkpt lat="46.674866443499923" lon="8.535699108615518">
        <ele>2285.1900000000001</ele>
        <time>2013-08-04T12:40:07Z</time>
      </trkpt>
      <trkpt lat="46.674795197322965" lon="8.535728110000491">
        <ele>2283.75</ele>
        <time>2013-08-04T12:40:21Z</time>
      </trkpt>
      <trkpt lat="46.674756975844502" lon="8.535765912383795">
        <ele>2283.27</ele>
        <time>2013-08-04T12:40:28Z</time>
      </trkpt>
      <trkpt lat="46.674700146540999" lon="8.535859035328031">
        <ele>2280.3800000000001</ele>
        <time>2013-08-04T12:40:42Z</time>
      </trkpt>
      <trkpt lat="46.674685059115291" lon="8.535963725298643">
        <ele>2277.98</ele>
        <time>2013-08-04T12:40:55Z</time>
      </trkpt>
      <trkpt lat="46.674753958359361" lon="8.535942016169429">
        <ele>2276.0599999999999</ele>
        <time>2013-08-04T12:41:06Z</time>
      </trkpt>
      <trkpt lat="46.674869880080223" lon="8.535979315638542">
        <ele>2274.1399999999999</ele>
        <time>2013-08-04T12:41:19Z</time>
      </trkpt>
      <trkpt lat="46.674949508160353" lon="8.536085598170757">
        <ele>2273.1700000000001</ele>
        <time>2013-08-04T12:41:32Z</time>
      </trkpt>
      <trkpt lat="46.674974737688899" lon="8.536133458837867">
        <ele>2271.73</ele>
        <time>2013-08-04T12:41:37Z</time>
      </trkpt>
      <trkpt lat="46.675029387697577" lon="8.536240998655558">
        <ele>2269.3299999999999</ele>
        <time>2013-08-04T12:41:50Z</time>
      </trkpt>
      <trkpt lat="46.675031902268529" lon="8.536346694454551">
        <ele>2266.4499999999998</ele>
        <time>2013-08-04T12:42:06Z</time>
      </trkpt>
      <trkpt lat="46.675082696601748" lon="8.536390280351043">
        <ele>2264.04</ele>
        <time>2013-08-04T12:42:17Z</time>
      </trkpt>
      <trkpt lat="46.675119325518608" lon="8.536395560950041">
        <ele>2262.1199999999999</ele>
        <time>2013-08-04T12:42:24Z</time>
      </trkpt>
      <trkpt lat="46.675173388794065" lon="8.536434285342693">
        <ele>2260.6799999999998</ele>
        <time>2013-08-04T12:42:33Z</time>
      </trkpt>
      <trkpt lat="46.675251005217433" lon="8.536516092717648">
        <ele>2259.7199999999998</ele>
        <time>2013-08-04T12:42:46Z</time>
      </trkpt>
      <trkpt lat="46.675336584448814" lon="8.53658658452332">
        <ele>2257.3099999999999</ele>
        <time>2013-08-04T12:43:00Z</time>
      </trkpt>
      <trkpt lat="46.675385367125273" lon="8.536621369421482">
        <ele>2256.3499999999999</ele>
        <time>2013-08-04T12:43:12Z</time>
      </trkpt>
      <trkpt lat="46.675382349640131" lon="8.536683982238174">
        <ele>2254.4299999999998</ele>
        <time>2013-08-04T12:43:19Z</time>
      </trkpt>
      <trkpt lat="46.675422079861164" lon="8.536795461550355">
        <ele>2251.0599999999999</ele>
        <time>2013-08-04T12:43:32Z</time>
      </trkpt>
      <trkpt lat="46.675491901114583" lon="8.536852039396763">
        <ele>2250.0999999999999</ele>
        <time>2013-08-04T12:43:44Z</time>
      </trkpt>
      <trkpt lat="46.675590137019753" lon="8.536934852600098">
        <ele>2249.6199999999999</ele>
        <time>2013-08-04T12:43:58Z</time>
      </trkpt>
      <trkpt lat="46.675704717636108" lon="8.537000063806772">
        <ele>2250.5799999999999</ele>
        <time>2013-08-04T12:44:14Z</time>
      </trkpt>
      <trkpt lat="46.675733802840114" lon="8.537084553390741">
        <ele>2251.0599999999999</ele>
        <time>2013-08-04T12:44:25Z</time>
      </trkpt>
      <trkpt lat="46.675747213885188" lon="8.537183878943324">
        <ele>2248.1799999999998</ele>
        <time>2013-08-04T12:44:38Z</time>
      </trkpt>
      <trkpt lat="46.675750901922584" lon="8.537215897813439">
        <ele>2247.6999999999998</ele>
        <time>2013-08-04T12:44:41Z</time>
      </trkpt>
      <trkpt lat="46.675733048468828" lon="8.53732343763113">
        <ele>2247.6999999999998</ele>
        <time>2013-08-04T12:44:53Z</time>
      </trkpt>
      <trkpt lat="46.675720894709229" lon="8.537394348531961">
        <ele>2246.2600000000002</ele>
        <time>2013-08-04T12:45:08Z</time>
      </trkpt>
      <trkpt lat="46.675715781748295" lon="8.53743433021009">
        <ele>2244.3299999999999</ele>
        <time>2013-08-04T12:45:22Z</time>
      </trkpt>
      <trkpt lat="46.675755931064487" lon="8.537607416510582">
        <ele>2242.8899999999999</ele>
        <time>2013-08-04T12:45:36Z</time>
      </trkpt>
      <trkpt lat="46.675763642415404" lon="8.53761806152761">
        <ele>2242.8899999999999</ele>
        <time>2013-08-04T12:45:37Z</time>
      </trkpt>
      <trkpt lat="46.675831619650126" lon="8.537724846974015">
        <ele>2242.4099999999999</ele>
        <time>2013-08-04T12:45:52Z</time>
      </trkpt>
      <trkpt lat="46.675855675712228" lon="8.537747813388705">
        <ele>2241.4499999999998</ele>
        <time>2013-08-04T12:45:58Z</time>
      </trkpt>
      <trkpt lat="46.675945278257132" lon="8.537804558873177">
        <ele>2240.0100000000002</ele>
        <time>2013-08-04T12:46:11Z</time>
      </trkpt>
      <trkpt lat="46.675982996821404" lon="8.537880582734942">
        <ele>2239.5300000000002</ele>
        <time>2013-08-04T12:46:19Z</time>
      </trkpt>
      <trkpt lat="46.675986684858799" lon="8.537909248843789">
        <ele>2240.0100000000002</ele>
        <time>2013-08-04T12:46:21Z</time>
      </trkpt>
      <trkpt lat="46.676009986549616" lon="8.53799382224679">
        <ele>2239.5300000000002</ele>
        <time>2013-08-04T12:46:27Z</time>
      </trkpt>
      <trkpt lat="46.676014009863138" lon="8.538019889965653">
        <ele>2239.5300000000002</ele>
        <time>2013-08-04T12:46:29Z</time>
      </trkpt>
      <trkpt lat="46.676059691235423" lon="8.538159700110555">
        <ele>2238.0900000000001</ele>
        <time>2013-08-04T12:46:43Z</time>
      </trkpt>
      <trkpt lat="46.676096487790346" lon="8.538234885782003">
        <ele>2237.1300000000001</ele>
        <time>2013-08-04T12:46:53Z</time>
      </trkpt>
      <trkpt lat="46.676120208576322" lon="8.538309652358294">
        <ele>2235.1999999999998</ele>
        <time>2013-08-04T12:47:04Z</time>
      </trkpt>
      <trkpt lat="46.676194975152612" lon="8.538442924618721">
        <ele>2233.2800000000002</ele>
        <time>2013-08-04T12:47:19Z</time>
      </trkpt>
      <trkpt lat="46.676248535513878" lon="8.538534455001354">
        <ele>2230.4000000000001</ele>
        <time>2013-08-04T12:47:33Z</time>
      </trkpt>
      <trkpt lat="46.676289020106196" lon="8.538628332316876">
        <ele>2228.4699999999998</ele>
        <time>2013-08-04T12:47:45Z</time>
      </trkpt>
      <trkpt lat="46.676361188292503" lon="8.538720030337572">
        <ele>2226.0700000000002</ele>
        <time>2013-08-04T12:47:59Z</time>
      </trkpt>
      <trkpt lat="46.676430087536573" lon="8.538779960945249">
        <ele>2225.1100000000001</ele>
        <time>2013-08-04T12:48:12Z</time>
      </trkpt>
      <trkpt lat="46.67643872089684" lon="8.538778452202678">
        <ele>2224.1500000000001</ele>
        <time>2013-08-04T12:48:14Z</time>
      </trkpt>
      <trkpt lat="46.676479121670127" lon="8.53876487351954">
        <ele>2223.6700000000001</ele>
        <time>2013-08-04T12:48:20Z</time>
      </trkpt>
      <trkpt lat="46.676499070599675" lon="8.538764789700508">
        <ele>2223.1900000000001</ele>
        <time>2013-08-04T12:48:23Z</time>
      </trkpt>
      <trkpt lat="46.676590768620372" lon="8.538775686174631">
        <ele>2221.7399999999998</ele>
        <time>2013-08-04T12:48:38Z</time>
      </trkpt>
      <trkpt lat="46.676615327596664" lon="8.53880736976862">
        <ele>2220.7800000000002</ele>
        <time>2013-08-04T12:48:43Z</time>
      </trkpt>
      <trkpt lat="46.676605101674795" lon="8.53888800367713">
        <ele>2220.3000000000002</ele>
        <time>2013-08-04T12:48:56Z</time>
      </trkpt>
      <trkpt lat="46.676597977057099" lon="8.538963189348579">
        <ele>2219.3400000000001</ele>
        <time>2013-08-04T12:49:03Z</time>
      </trkpt>
      <trkpt lat="46.676633013412356" lon="8.539077937602997">
        <ele>2216.46</ele>
        <time>2013-08-04T12:49:15Z</time>
      </trkpt>
      <trkpt lat="46.676651034504175" lon="8.539090175181627">
        <ele>2216.46</ele>
        <time>2013-08-04T12:49:17Z</time>
      </trkpt>
      <trkpt lat="46.67668741196394" lon="8.539162594825029">
        <ele>2215.5</ele>
        <time>2013-08-04T12:49:24Z</time>
      </trkpt>
      <trkpt lat="46.676748683676124" lon="8.539303494617343">
        <ele>2213.0900000000001</ele>
        <time>2013-08-04T12:49:39Z</time>
      </trkpt>
      <trkpt lat="46.676774583756924" lon="8.539398293942213">
        <ele>2212.1300000000001</ele>
        <time>2013-08-04T12:49:48Z</time>
      </trkpt>
      <trkpt lat="46.676778020337224" lon="8.539538187906146">
        <ele>2210.21</ele>
        <time>2013-08-04T12:50:01Z</time>
      </trkpt>
      <trkpt lat="46.676774583756924" lon="8.539548665285111">
        <ele>2209.73</ele>
        <time>2013-08-04T12:50:02Z</time>
      </trkpt>
      <trkpt lat="46.67674558237195" lon="8.539666179567576">
        <ele>2208.29</ele>
        <time>2013-08-04T12:50:13Z</time>
      </trkpt>
      <trkpt lat="46.676744660362601" lon="8.53970842435956">
        <ele>2207.3200000000002</ele>
        <time>2013-08-04T12:50:16Z</time>
      </trkpt>
      <trkpt lat="46.676726555451751" lon="8.539775731042028">
        <ele>2206.3600000000001</ele>
        <time>2013-08-04T12:50:22Z</time>
      </trkpt>
      <trkpt lat="46.67671037837863" lon="8.539869273081422">
        <ele>2203.96</ele>
        <time>2013-08-04T12:50:32Z</time>
      </trkpt>
      <trkpt lat="46.676723789423704" lon="8.539972370490432">
        <ele>2201.5599999999999</ele>
        <time>2013-08-04T12:50:44Z</time>
      </trkpt>
      <trkpt lat="46.67672798037529" lon="8.5399913135916">
        <ele>2201.5599999999999</ele>
        <time>2013-08-04T12:50:47Z</time>
      </trkpt>
      <trkpt lat="46.676731333136559" lon="8.540137829259038">
        <ele>2198.6700000000001</ele>
        <time>2013-08-04T12:51:01Z</time>
      </trkpt>
      <trkpt lat="46.676740385591984" lon="8.540235813707113">
        <ele>2196.75</ele>
        <time>2013-08-04T12:51:12Z</time>
      </trkpt>
      <trkpt lat="46.67676268145442" lon="8.540369337424636">
        <ele>2196.75</ele>
        <time>2013-08-04T12:51:24Z</time>
      </trkpt>
      <trkpt lat="46.676787994801998" lon="8.540467070415616">
        <ele>2195.79</ele>
        <time>2013-08-04T12:51:37Z</time>
      </trkpt>
      <trkpt lat="46.676785731688142" lon="8.540533790364862">
        <ele>2194.3499999999999</ele>
        <time>2013-08-04T12:51:43Z</time>
      </trkpt>
      <trkpt lat="46.676792437210679" lon="8.540620794519782">
        <ele>2192.9000000000001</ele>
        <time>2013-08-04T12:51:51Z</time>
      </trkpt>
      <trkpt lat="46.676838370040059" lon="8.540737805888057">
        <ele>2191.9400000000001</ele>
        <time>2013-08-04T12:52:04Z</time>
      </trkpt>
      <trkpt lat="46.676871478557587" lon="8.540791952982545">
        <ele>2191.9400000000001</ele>
        <time>2013-08-04T12:52:12Z</time>
      </trkpt>
      <trkpt lat="46.676909783855081" lon="8.5408771969378">
        <ele>2191.46</ele>
        <time>2013-08-04T12:52:25Z</time>
      </trkpt>
      <trkpt lat="46.676963679492474" lon="8.540949197486043">
        <ele>2189.54</ele>
        <time>2013-08-04T12:52:37Z</time>
      </trkpt>
      <trkpt lat="46.677032914012671" lon="8.540957411751151">
        <ele>2190.02</ele>
        <time>2013-08-04T12:52:50Z</time>
      </trkpt>
      <trkpt lat="46.677076667547226" lon="8.54097199626267">
        <ele>2190.02</ele>
        <time>2013-08-04T12:53:00Z</time>
      </trkpt>
      <trkpt lat="46.677093515172601" lon="8.541017174720764">
        <ele>2189.0599999999999</ele>
        <time>2013-08-04T12:53:03Z</time>
      </trkpt>
      <trkpt lat="46.677145147696137" lon="8.54107216000557">
        <ele>2188.0999999999999</ele>
        <time>2013-08-04T12:53:15Z</time>
      </trkpt>
      <trkpt lat="46.677162917330861" lon="8.541148519143462">
        <ele>2185.6900000000001</ele>
        <time>2013-08-04T12:53:25Z</time>
      </trkpt>
      <trkpt lat="46.677169958129525" lon="8.541163019835949">
        <ele>2184.73</ele>
        <time>2013-08-04T12:53:27Z</time>
      </trkpt>
      <trkpt lat="46.677239611744881" lon="8.541271984577179">
        <ele>2182.8099999999999</ele>
        <time>2013-08-04T12:53:40Z</time>
      </trkpt>
      <trkpt lat="46.677265847101808" lon="8.541319761425257">
        <ele>2183.29</ele>
        <time>2013-08-04T12:53:45Z</time>
      </trkpt>
      <trkpt lat="46.677277330309153" lon="8.541376003995538">
        <ele>2183.29</ele>
        <time>2013-08-04T12:53:50Z</time>
      </trkpt>
      <trkpt lat="46.677265763282776" lon="8.541507180780172">
        <ele>2181.8499999999999</ele>
        <time>2013-08-04T12:54:04Z</time>
      </trkpt>
      <trkpt lat="46.677285544574261" lon="8.541613044217229">
        <ele>2180.4099999999999</ele>
        <time>2013-08-04T12:54:14Z</time>
      </trkpt>
      <trkpt lat="46.677267104387283" lon="8.541696025058627">
        <ele>2178.9699999999998</ele>
        <time>2013-08-04T12:54:24Z</time>
      </trkpt>
      <trkpt lat="46.677297865971923" lon="8.541776156052947">
        <ele>2178</ele>
        <time>2013-08-04T12:54:33Z</time>
      </trkpt>
      <trkpt lat="46.677296441048384" lon="8.54183834977448">
        <ele>2176.5599999999999</ele>
        <time>2013-08-04T12:54:40Z</time>
      </trkpt>
      <trkpt lat="46.677325861528516" lon="8.541926275938749">
        <ele>2175.5999999999999</ele>
        <time>2013-08-04T12:54:51Z</time>
      </trkpt>
      <trkpt lat="46.67734807357192" lon="8.541940022259951">
        <ele>2175.1199999999999</ele>
        <time>2013-08-04T12:54:56Z</time>
      </trkpt>
      <trkpt lat="46.677360814064741" lon="8.541957708075643">
        <ele>2175.1199999999999</ele>
        <time>2013-08-04T12:54:59Z</time>
      </trkpt>
      <trkpt lat="46.677338015288115" lon="8.542046891525388">
        <ele>2175.1199999999999</ele>
        <time>2013-08-04T12:55:09Z</time>
      </trkpt>
      <trkpt lat="46.677324939519167" lon="8.542071115225554">
        <ele>2175.5999999999999</ele>
        <time>2013-08-04T12:55:11Z</time>
      </trkpt>
      <trkpt lat="46.677322424948215" lon="8.542160633951426">
        <ele>2174.1599999999999</ele>
        <time>2013-08-04T12:55:23Z</time>
      </trkpt>
      <trkpt lat="46.677349330857396" lon="8.542204303666949">
        <ele>2173.1999999999998</ele>
        <time>2013-08-04T12:55:37Z</time>
      </trkpt>
      <trkpt lat="46.677371291443706" lon="8.542286613956094">
        <ele>2172.2399999999998</ele>
        <time>2013-08-04T12:55:48Z</time>
      </trkpt>
      <trkpt lat="46.677353354170918" lon="8.542328691110015">
        <ele>2170.79</ele>
        <time>2013-08-04T12:56:00Z</time>
      </trkpt>
      <trkpt lat="46.677351426333189" lon="8.542347718030214">
        <ele>2169.8299999999999</ele>
        <time>2013-08-04T12:56:04Z</time>
      </trkpt>
      <trkpt lat="46.677350420504808" lon="8.54243203997612">
        <ele>2168.8699999999999</ele>
        <time>2013-08-04T12:56:11Z</time>
      </trkpt>
      <trkpt lat="46.677351761609316" lon="8.542464477941394">
        <ele>2169.3499999999999</ele>
        <time>2013-08-04T12:56:14Z</time>
      </trkpt>
      <trkpt lat="46.677352096885443" lon="8.54249213822186">
        <ele>2168.3899999999999</ele>
        <time>2013-08-04T12:56:16Z</time>
      </trkpt>
      <trkpt lat="46.677382607012987" lon="8.542582327499986">
        <ele>2167.4299999999998</ele>
        <time>2013-08-04T12:56:24Z</time>
      </trkpt>
      <trkpt lat="46.677409764379263" lon="8.542752144858241">
        <ele>2165.5100000000002</ele>
        <time>2013-08-04T12:56:39Z</time>
      </trkpt>
      <trkpt lat="46.677400292828679" lon="8.542797993868589">
        <ele>2165.5100000000002</ele>
        <time>2013-08-04T12:56:51Z</time>
      </trkpt>
      <trkpt lat="46.677393754944205" lon="8.542785253375769">
        <ele>2165.5100000000002</ele>
        <time>2013-08-04T12:57:15Z</time>
      </trkpt>
      <trkpt lat="46.677393838763237" lon="8.542804112657905">
        <ele>2165.0300000000002</ele>
        <time>2013-08-04T12:57:30Z</time>
      </trkpt>
      <trkpt lat="46.677390988916159" lon="8.542817020788789">
        <ele>2164.5500000000002</ele>
        <time>2013-08-04T12:57:52Z</time>
      </trkpt>
      <trkpt lat="46.677391240373254" lon="8.54282389394939">
        <ele>2164.0599999999999</ele>
        <time>2013-08-04T12:57:53Z</time>
      </trkpt>
      <trkpt lat="46.67739643715322" lon="8.542876616120338">
        <ele>2164.0599999999999</ele>
        <time>2013-08-04T12:57:57Z</time>
      </trkpt>
      <trkpt lat="46.677401885390282" lon="8.543009385466576">
        <ele>2161.1799999999998</ele>
        <time>2013-08-04T12:58:09Z</time>
      </trkpt>
      <trkpt lat="46.677383948117495" lon="8.543073507025838">
        <ele>2160.2199999999998</ele>
        <time>2013-08-04T12:58:17Z</time>
      </trkpt>
      <trkpt lat="46.677340948954225" lon="8.543166210874915">
        <ele>2157.8200000000002</ele>
        <time>2013-08-04T12:58:29Z</time>
      </trkpt>
      <trkpt lat="46.677326615899801" lon="8.543213987722993">
        <ele>2157.3400000000001</ele>
        <time>2013-08-04T12:58:34Z</time>
      </trkpt>
      <trkpt lat="46.67731823399663" lon="8.543289508670569">
        <ele>2156.8600000000001</ele>
        <time>2013-08-04T12:58:41Z</time>
      </trkpt>
      <trkpt lat="46.677297111600637" lon="8.543432923033834">
        <ele>2154.4499999999998</ele>
        <time>2013-08-04T12:58:54Z</time>
      </trkpt>
      <trkpt lat="46.677212035283446" lon="8.543519927188754">
        <ele>2152.5300000000002</ele>
        <time>2013-08-04T12:59:05Z</time>
      </trkpt>
      <trkpt lat="46.677147578448057" lon="8.543602824211121">
        <ele>2150.6100000000001</ele>
        <time>2013-08-04T12:59:18Z</time>
      </trkpt>
      <trkpt lat="46.677087480202317" lon="8.543643476441503">
        <ele>2150.6100000000001</ele>
        <time>2013-08-04T12:59:29Z</time>
      </trkpt>
      <trkpt lat="46.677027549594641" lon="8.543711872771382">
        <ele>2150.1300000000001</ele>
        <time>2013-08-04T12:59:40Z</time>
      </trkpt>
      <trkpt lat="46.676978096365929" lon="8.543768199160695">
        <ele>2150.6100000000001</ele>
        <time>2013-08-04T12:59:53Z</time>
      </trkpt>
      <trkpt lat="46.676988657563925" lon="8.543760236352682">
        <ele>2149.6500000000001</ele>
        <time>2013-08-04T12:59:56Z</time>
      </trkpt>
      <trkpt lat="46.677005086094141" lon="8.543737689033151">
        <ele>2149.1599999999999</ele>
        <time>2013-08-04T12:59:59Z</time>
      </trkpt>
      <trkpt lat="46.677048085257411" lon="8.543721428140998">
        <ele>2148.1999999999998</ele>
        <time>2013-08-04T13:00:06Z</time>
      </trkpt>
      <trkpt lat="46.677095694467425" lon="8.543756045401096">
        <ele>2147.2399999999998</ele>
        <time>2013-08-04T13:00:13Z</time>
      </trkpt>
      <trkpt lat="46.677210526540875" lon="8.543883450329304">
        <ele>2147.7199999999998</ele>
        <time>2013-08-04T13:00:27Z</time>
      </trkpt>
      <trkpt lat="46.677229553461075" lon="8.543926700949669">
        <ele>2147.2399999999998</ele>
        <time>2013-08-04T13:00:31Z</time>
      </trkpt>
      <trkpt lat="46.677258387207985" lon="8.543959641829133">
        <ele>2147.7199999999998</ele>
        <time>2013-08-04T13:00:41Z</time>
      </trkpt>
      <trkpt lat="46.677278419956565" lon="8.544008256867528">
        <ele>2147.2399999999998</ele>
        <time>2013-08-04T13:00:46Z</time>
      </trkpt>
      <trkpt lat="46.677303817123175" lon="8.544013956561685">
        <ele>2147.7199999999998</ele>
        <time>2013-08-04T13:00:51Z</time>
      </trkpt>
      <trkpt lat="46.677357712760568" lon="8.544198358431459">
        <ele>2146.2800000000002</ele>
        <time>2013-08-04T13:01:04Z</time>
      </trkpt>
      <trkpt lat="46.677357377484441" lon="8.5442238394171">
        <ele>2146.2800000000002</ele>
        <time>2013-08-04T13:01:06Z</time>
      </trkpt>
      <trkpt lat="46.677305242046714" lon="8.54439047165215">
        <ele>2143.4000000000001</ele>
        <time>2013-08-04T13:01:21Z</time>
      </trkpt>
      <trkpt lat="46.677301721647382" lon="8.544437242671847">
        <ele>2142.4400000000001</ele>
        <time>2013-08-04T13:01:26Z</time>
      </trkpt>
      <trkpt lat="46.677300129085779" lon="8.544535730034113">
        <ele>2141.4699999999998</ele>
        <time>2013-08-04T13:01:37Z</time>
      </trkpt>
      <trkpt lat="46.677268696948886" lon="8.544699931517243">
        <ele>2140.5100000000002</ele>
        <time>2013-08-04T13:01:52Z</time>
      </trkpt>
      <trkpt lat="46.677291831001639" lon="8.544876286759973">
        <ele>2139.5500000000002</ele>
        <time>2013-08-04T13:02:06Z</time>
      </trkpt>
      <trkpt lat="46.677286885678768" lon="8.544933702796698">
        <ele>2138.5900000000001</ele>
        <time>2013-08-04T13:02:12Z</time>
      </trkpt>
      <trkpt lat="46.677268194034696" lon="8.545065214857459">
        <ele>2136.1900000000001</ele>
        <time>2013-08-04T13:02:27Z</time>
      </trkpt>
      <trkpt lat="46.677209436893463" lon="8.545234026387334">
        <ele>2133.7800000000002</ele>
        <time>2013-08-04T13:02:42Z</time>
      </trkpt>
      <trkpt lat="46.677169455215335" lon="8.54533988982439">
        <ele>2132.3400000000001</ele>
        <time>2013-08-04T13:02:52Z</time>
      </trkpt>
      <trkpt lat="46.677165180444717" lon="8.545370735228062">
        <ele>2131.8600000000001</ele>
        <time>2013-08-04T13:02:54Z</time>
      </trkpt>
      <trkpt lat="46.677046744152904" lon="8.545532170683146">
        <ele>2129.46</ele>
        <time>2013-08-04T13:03:09Z</time>
      </trkpt>
      <trkpt lat="46.67702361010015" lon="8.545549856498838">
        <ele>2128.98</ele>
        <time>2013-08-04T13:03:11Z</time>
      </trkpt>
      <trkpt lat="46.67697524651885" lon="8.545647673308849">
        <ele>2127.5300000000002</ele>
        <time>2013-08-04T13:03:20Z</time>
      </trkpt>
      <trkpt lat="46.676949849352241" lon="8.545814557000995">
        <ele>2126.0900000000001</ele>
        <time>2013-08-04T13:03:33Z</time>
      </trkpt>
      <trkpt lat="46.676864773035049" lon="8.545936346054077">
        <ele>2123.21</ele>
        <time>2013-08-04T13:03:48Z</time>
      </trkpt>
      <trkpt lat="46.676855469122529" lon="8.546030391007662">
        <ele>2122.25</ele>
        <time>2013-08-04T13:03:58Z</time>
      </trkpt>
      <trkpt lat="46.676885392516851" lon="8.546182354912162">
        <ele>2120.3200000000002</ele>
        <time>2013-08-04T13:04:10Z</time>
      </trkpt>
      <trkpt lat="46.676923613995314" lon="8.546257121488452">
        <ele>2119.3600000000001</ele>
        <time>2013-08-04T13:04:23Z</time>
      </trkpt>
      <trkpt lat="46.676941132172942" lon="8.546330714598298">
        <ele>2118.4000000000001</ele>
        <time>2013-08-04T13:04:35Z</time>
      </trkpt>
      <trkpt lat="46.676938449963927" lon="8.54643733240664">
        <ele>2117.4400000000001</ele>
        <time>2013-08-04T13:04:46Z</time>
      </trkpt>
      <trkpt lat="46.67693761177361" lon="8.546504303812981">
        <ele>2116</ele>
        <time>2013-08-04T13:04:59Z</time>
      </trkpt>
      <trkpt lat="46.676938617601991" lon="8.546510422602296">
        <ele>2116</ele>
        <time>2013-08-04T13:05:00Z</time>
      </trkpt>
      <trkpt lat="46.676912214607" lon="8.546585189178586">
        <ele>2114.5599999999999</ele>
        <time>2013-08-04T13:05:12Z</time>
      </trkpt>
      <trkpt lat="46.676918417215347" lon="8.546654423698783">
        <ele>2112.6300000000001</ele>
        <time>2013-08-04T13:05:24Z</time>
      </trkpt>
      <trkpt lat="46.67692294344306" lon="8.546733716502786">
        <ele>2110.23</ele>
        <time>2013-08-04T13:05:36Z</time>
      </trkpt>
      <trkpt lat="46.676934259012341" lon="8.546757772564888">
        <ele>2109.75</ele>
        <time>2013-08-04T13:05:40Z</time>
      </trkpt>
      <trkpt lat="46.677010199055076" lon="8.546959273517132">
        <ele>2106.8699999999999</ele>
        <time>2013-08-04T13:05:56Z</time>
      </trkpt>
      <trkpt lat="46.677077421918511" lon="8.547088773921132">
        <ele>2106.3899999999999</ele>
        <time>2013-08-04T13:06:09Z</time>
      </trkpt>
      <trkpt lat="46.677205078303814" lon="8.547210730612278">
        <ele>2105.4200000000001</ele>
        <time>2013-08-04T13:06:26Z</time>
      </trkpt>
      <trkpt lat="46.67723223567009" lon="8.547247275710106">
        <ele>2104.9400000000001</ele>
        <time>2013-08-04T13:06:30Z</time>
      </trkpt>
      <trkpt lat="46.677244389429688" lon="8.547307793051004">
        <ele>2104.9400000000001</ele>
        <time>2013-08-04T13:06:35Z</time>
      </trkpt>
      <trkpt lat="46.677237264811993" lon="8.547523459419608">
        <ele>2102.54</ele>
        <time>2013-08-04T13:06:50Z</time>
      </trkpt>
      <trkpt lat="46.677222261205316" lon="8.547621108591557">
        <ele>2101.5799999999999</ele>
        <time>2013-08-04T13:06:59Z</time>
      </trkpt>
      <trkpt lat="46.677167359739542" lon="8.547760751098394">
        <ele>2100.6199999999999</ele>
        <time>2013-08-04T13:07:11Z</time>
      </trkpt>
      <trkpt lat="46.677127713337541" lon="8.547826297581196">
        <ele>2099.6599999999999</ele>
        <time>2013-08-04T13:07:20Z</time>
      </trkpt>
      <trkpt lat="46.677092593163252" lon="8.547889413312078">
        <ele>2098.6999999999998</ele>
        <time>2013-08-04T13:07:29Z</time>
      </trkpt>
      <trkpt lat="46.677096113562584" lon="8.547911792993546">
        <ele>2098.21</ele>
        <time>2013-08-04T13:07:31Z</time>
      </trkpt>
      <trkpt lat="46.677090330049396" lon="8.54793450795114">
        <ele>2098.21</ele>
        <time>2013-08-04T13:07:33Z</time>
      </trkpt>
      <trkpt lat="46.676976336166263" lon="8.548091500997543">
        <ele>2096.29</ele>
        <time>2013-08-04T13:07:50Z</time>
      </trkpt>
      <trkpt lat="46.676973989233375" lon="8.548100469633937">
        <ele>2096.29</ele>
        <time>2013-08-04T13:07:51Z</time>
      </trkpt>
      <trkpt lat="46.676946161314845" lon="8.548150761052966">
        <ele>2096.29</ele>
        <time>2013-08-04T13:07:56Z</time>
      </trkpt>
      <trkpt lat="46.676889918744564" lon="8.548320410773158">
        <ele>2096.29</ele>
        <time>2013-08-04T13:08:10Z</time>
      </trkpt>
      <trkpt lat="46.676883464679122" lon="8.548413701355457">
        <ele>2098.21</ele>
        <time>2013-08-04T13:08:23Z</time>
      </trkpt>
      <trkpt lat="46.676880111917853" lon="8.548495173454285">
        <ele>2100.1399999999999</ele>
        <time>2013-08-04T13:08:34Z</time>
      </trkpt>
      <trkpt lat="46.676824288442731" lon="8.548465250059962">
        <ele>2101.0999999999999</ele>
        <time>2013-08-04T13:08:46Z</time>
      </trkpt>
      <trkpt lat="46.676821354776621" lon="8.548525935038924">
        <ele>2103.02</ele>
        <time>2013-08-04T13:08:57Z</time>
      </trkpt>
      <trkpt lat="46.676799561828375" lon="8.548564910888672">
        <ele>2103.5</ele>
        <time>2013-08-04T13:09:12Z</time>
      </trkpt>
      <trkpt lat="46.676772236824036" lon="8.548665326088667">
        <ele>2104.9400000000001</ele>
        <time>2013-08-04T13:09:25Z</time>
      </trkpt>
      <trkpt lat="46.676730746403337" lon="8.548770351335406">
        <ele>2107.3499999999999</ele>
        <time>2013-08-04T13:09:38Z</time>
      </trkpt>
      <trkpt lat="46.676696129143238" lon="8.548876885324717">
        <ele>2109.27</ele>
        <time>2013-08-04T13:09:52Z</time>
      </trkpt>
      <trkpt lat="46.676704594865441" lon="8.548945616930723">
        <ele>2111.1900000000001</ele>
        <time>2013-08-04T13:10:05Z</time>
      </trkpt>
      <trkpt lat="46.676719766110182" lon="8.549063131213188">
        <ele>2112.6300000000001</ele>
        <time>2013-08-04T13:10:20Z</time>
      </trkpt>
      <trkpt lat="46.676701242104173" lon="8.549157008528709">
        <ele>2114.5599999999999</ele>
        <time>2013-08-04T13:10:37Z</time>
      </trkpt>
      <trkpt lat="46.676671234890819" lon="8.54920151643455">
        <ele>2115.52</ele>
        <time>2013-08-04T13:10:47Z</time>
      </trkpt>
      <trkpt lat="46.676671989262104" lon="8.549252646043897">
        <ele>2116.48</ele>
        <time>2013-08-04T13:10:53Z</time>
      </trkpt>
      <trkpt lat="46.67667618021369" lon="8.549315510317683">
        <ele>2116.96</ele>
        <time>2013-08-04T13:11:01Z</time>
      </trkpt>
      <trkpt lat="46.676755892112851" lon="8.549530673772097">
        <ele>2117.4400000000001</ele>
        <time>2013-08-04T13:11:17Z</time>
      </trkpt>
      <trkpt lat="46.676754551008344" lon="8.54966620914638">
        <ele>2117.9200000000001</ele>
        <time>2013-08-04T13:11:25Z</time>
      </trkpt>
      <trkpt lat="46.67674801312387" lon="8.549706609919667">
        <ele>2117.9200000000001</ele>
        <time>2013-08-04T13:11:28Z</time>
      </trkpt>
      <trkpt lat="46.676748096942902" lon="8.549763858318329">
        <ele>2117.9200000000001</ele>
        <time>2013-08-04T13:11:32Z</time>
      </trkpt>
      <trkpt lat="46.676737451925874" lon="8.549950942397118">
        <ele>2118.4000000000001</ele>
        <time>2013-08-04T13:11:47Z</time>
      </trkpt>
      <trkpt lat="46.676666457206011" lon="8.5500727314502">
        <ele>2120.3200000000002</ele>
        <time>2013-08-04T13:12:02Z</time>
      </trkpt>
      <trkpt lat="46.67659847997129" lon="8.550079017877579">
        <ele>2122.73</ele>
        <time>2013-08-04T13:12:15Z</time>
      </trkpt>
      <trkpt lat="46.67659118771553" lon="8.550127130001783">
        <ele>2123.21</ele>
        <time>2013-08-04T13:12:19Z</time>
      </trkpt>
      <trkpt lat="46.676590433344245" lon="8.550158394500613">
        <ele>2123.21</ele>
        <time>2013-08-04T13:12:21Z</time>
      </trkpt>
      <trkpt lat="46.676599821075797" lon="8.550341203808785">
        <ele>2123.21</ele>
        <time>2013-08-04T13:12:34Z</time>
      </trkpt>
      <trkpt lat="46.676600491628051" lon="8.550387052819133">
        <ele>2122.73</ele>
        <time>2013-08-04T13:12:37Z</time>
      </trkpt>
      <trkpt lat="46.676595965400338" lon="8.550454527139664">
        <ele>2122.73</ele>
        <time>2013-08-04T13:12:41Z</time>
      </trkpt>
      <trkpt lat="46.676571490243077" lon="8.550642868503928">
        <ele>2122.25</ele>
        <time>2013-08-04T13:12:55Z</time>
      </trkpt>
      <trkpt lat="46.676568388938904" lon="8.550779325887561">
        <ele>2121.77</ele>
        <time>2013-08-04T13:13:09Z</time>
      </trkpt>
      <trkpt lat="46.676565790548921" lon="8.550822660326958">
        <ele>2121.29</ele>
        <time>2013-08-04T13:13:13Z</time>
      </trkpt>
      <trkpt lat="46.676565706729889" lon="8.550901282578707">
        <ele>2120.8099999999999</ele>
        <time>2013-08-04T13:13:19Z</time>
      </trkpt>
      <trkpt lat="46.676572747528553" lon="8.550991136580706">
        <ele>2119.8400000000001</ele>
        <time>2013-08-04T13:13:26Z</time>
      </trkpt>
      <trkpt lat="46.676608454436064" lon="8.551135808229446">
        <ele>2118.4000000000001</ele>
        <time>2013-08-04T13:13:38Z</time>
      </trkpt>
      <trkpt lat="46.676584482192993" lon="8.551317024976015">
        <ele>2116.48</ele>
        <time>2013-08-04T13:13:51Z</time>
      </trkpt>
      <trkpt lat="46.676534609869123" lon="8.551443926990032">
        <ele>2116</ele>
        <time>2013-08-04T13:14:02Z</time>
      </trkpt>
      <trkpt lat="46.676511224359274" lon="8.551524309441447">
        <ele>2115.52</ele>
        <time>2013-08-04T13:14:09Z</time>
      </trkpt>
      <trkpt lat="46.676467303186655" lon="8.551662946119905">
        <ele>2115.52</ele>
        <time>2013-08-04T13:14:24Z</time>
      </trkpt>
      <trkpt lat="46.676446599885821" lon="8.551696222275496">
        <ele>2115.04</ele>
        <time>2013-08-04T13:14:28Z</time>
      </trkpt>
      <trkpt lat="46.676448192447424" lon="8.551800325512886">
        <ele>2115.04</ele>
        <time>2013-08-04T13:14:35Z</time>
      </trkpt>
      <trkpt lat="46.676518097519875" lon="8.551979614421725">
        <ele>2115.04</ele>
        <time>2013-08-04T13:14:51Z</time>
      </trkpt>
      <trkpt lat="46.676509799435735" lon="8.551990929991007">
        <ele>2114.0799999999999</ele>
        <time>2013-08-04T13:15:10Z</time>
      </trkpt>
      <trkpt lat="46.676502674818039" lon="8.551983218640089">
        <ele>2114.0799999999999</ele>
        <time>2013-08-04T13:15:40Z</time>
      </trkpt>
      <trkpt lat="46.676508877426386" lon="8.551980955526233">
        <ele>2114.0799999999999</ele>
        <time>2013-08-04T13:15:44Z</time>
      </trkpt>
      <trkpt lat="46.676511643454432" lon="8.552000736817718">
        <ele>2114.0799999999999</ele>
        <time>2013-08-04T13:15:56Z</time>
      </trkpt>
      <trkpt lat="46.676502507179976" lon="8.551955809816718">
        <ele>2114.5599999999999</ele>
        <time>2013-08-04T13:16:07Z</time>
      </trkpt>
      <trkpt lat="46.676477110013366" lon="8.551743663847446">
        <ele>2115.04</ele>
        <time>2013-08-04T13:16:25Z</time>
      </trkpt>
      <trkpt lat="46.676453556865454" lon="8.551645511761308">
        <ele>2114.5599999999999</ele>
        <time>2013-08-04T13:16:39Z</time>
      </trkpt>
      <trkpt lat="46.676447186619043" lon="8.551626149564982">
        <ele>2114.0799999999999</ele>
        <time>2013-08-04T13:16:49Z</time>
      </trkpt>
      <trkpt lat="46.676444001495838" lon="8.551619444042444">
        <ele>2113.5999999999999</ele>
        <time>2013-08-04T13:17:01Z</time>
      </trkpt>
      <trkpt lat="46.676459172740579" lon="8.551625395193696">
        <ele>2113.5999999999999</ele>
        <time>2013-08-04T13:17:14Z</time>
      </trkpt>
      <trkpt lat="46.676462357863784" lon="8.551641488447785">
        <ele>2113.5999999999999</ele>
        <time>2013-08-04T13:17:48Z</time>
      </trkpt>
      <trkpt lat="46.676441570743918" lon="8.551625730469823">
        <ele>2113.1199999999999</ele>
        <time>2013-08-04T13:18:23Z</time>
      </trkpt>
      <trkpt lat="46.676443163305521" lon="8.551621288061142">
        <ele>2113.5999999999999</ele>
        <time>2013-08-04T13:18:59Z</time>
      </trkpt>
      <trkpt lat="46.676440481096506" lon="8.551638387143612">
        <ele>2113.1199999999999</ele>
        <time>2013-08-04T13:19:35Z</time>
      </trkpt>
      <trkpt lat="46.67642941698432" lon="8.551649702712894">
        <ele>2113.1199999999999</ele>
        <time>2013-08-04T13:20:07Z</time>
      </trkpt>
      <trkpt lat="46.676412066444755" lon="8.551621790975332">
        <ele>2113.5999999999999</ele>
        <time>2013-08-04T13:20:37Z</time>
      </trkpt>
      <trkpt lat="46.676410809159279" lon="8.551620868965983">
        <ele>2113.1199999999999</ele>
        <time>2013-08-04T13:21:11Z</time>
      </trkpt>
      <trkpt lat="46.676461352035403" lon="8.551620952785015">
        <ele>2113.1199999999999</ele>
        <time>2013-08-04T13:21:44Z</time>
      </trkpt>
      <trkpt lat="46.676451042294502" lon="8.551612487062812">
        <ele>2113.1199999999999</ele>
        <time>2013-08-04T13:22:17Z</time>
      </trkpt>
      <trkpt lat="46.676456406712532" lon="8.551602093502879">
        <ele>2113.5999999999999</ele>
        <time>2013-08-04T13:22:50Z</time>
      </trkpt>
      <trkpt lat="46.676447940990329" lon="8.551609804853797">
        <ele>2113.1199999999999</ele>
        <time>2013-08-04T13:23:22Z</time>
      </trkpt>
      <trkpt lat="46.676457580178976" lon="8.551616091281176">
        <ele>2113.1199999999999</ele>
        <time>2013-08-04T13:23:56Z</time>
      </trkpt>
      <trkpt lat="46.676454646512866" lon="8.55161290615797">
        <ele>2113.1199999999999</ele>
        <time>2013-08-04T13:24:29Z</time>
      </trkpt>
      <trkpt lat="46.676451880484819" lon="8.55160946957767">
        <ele>2113.5999999999999</ele>
        <time>2013-08-04T13:25:07Z</time>
      </trkpt>
      <trkpt lat="46.676448779180646" lon="8.551588598638773">
        <ele>2113.5999999999999</ele>
        <time>2013-08-04T13:25:39Z</time>
      </trkpt>
      <trkpt lat="46.676452299579978" lon="8.551622293889523">
        <ele>2113.5999999999999</ele>
        <time>2013-08-04T13:26:15Z</time>
      </trkpt>
      <trkpt lat="46.676457077264786" lon="8.551601590588689">
        <ele>2113.5999999999999</ele>
        <time>2013-08-04T13:26:51Z</time>
      </trkpt>
      <trkpt lat="46.676454311236739" lon="8.551604775711894">
        <ele>2113.5999999999999</ele>
        <time>2013-08-04T13:27:28Z</time>
      </trkpt>
      <trkpt lat="46.676444672048092" lon="8.551603266969323">
        <ele>2113.5999999999999</ele>
        <time>2013-08-04T13:28:05Z</time>
      </trkpt>
      <trkpt lat="46.676462022587657" lon="8.551637968048453">
        <ele>2113.1199999999999</ele>
        <time>2013-08-04T13:28:32Z</time>
      </trkpt>
      <trkpt lat="46.67641868814826" lon="8.551677614450455">
        <ele>2113.5999999999999</ele>
        <time>2013-08-04T13:29:17Z</time>
      </trkpt>
      <trkpt lat="46.676410054787993" lon="8.551650121808052">
        <ele>2113.5999999999999</ele>
        <time>2013-08-04T13:29:54Z</time>
      </trkpt>
      <trkpt lat="46.676420951262116" lon="8.551658755168319">
        <ele>2114.0799999999999</ele>
        <time>2013-08-04T13:30:45Z</time>
      </trkpt>
      <trkpt lat="46.676416927948594" lon="8.551664873957634">
        <ele>2114.0799999999999</ele>
        <time>2013-08-04T13:31:26Z</time>
      </trkpt>
      <trkpt lat="46.676403684541583" lon="8.551677027717233">
        <ele>2114.0799999999999</ele>
        <time>2013-08-04T13:32:07Z</time>
      </trkpt>
      <trkpt lat="46.676396308466792" lon="8.55167543515563">
        <ele>2114.0799999999999</ele>
        <time>2013-08-04T13:32:59Z</time>
      </trkpt>
      <trkpt lat="46.676385831087828" lon="8.551679542288184">
        <ele>2114.5599999999999</ele>
        <time>2013-08-04T13:33:49Z</time>
      </trkpt>
      <trkpt lat="46.676393961533904" lon="8.551664119586349">
        <ele>2114.0799999999999</ele>
        <time>2013-08-04T13:34:27Z</time>
      </trkpt>
      <trkpt lat="46.676381640136242" lon="8.551691276952624">
        <ele>2114.5599999999999</ele>
        <time>2013-08-04T13:35:02Z</time>
      </trkpt>
      <trkpt lat="46.676389519125223" lon="8.5516959708184">
        <ele>2114.0799999999999</ele>
        <time>2013-08-04T13:35:44Z</time>
      </trkpt>
      <trkpt lat="46.67638641782105" lon="8.551697982475162">
        <ele>2113.5999999999999</ele>
        <time>2013-08-04T13:36:29Z</time>
      </trkpt>
      <trkpt lat="46.67641919106245" lon="8.551658000797033">
        <ele>2113.1199999999999</ele>
        <time>2013-08-04T13:37:12Z</time>
      </trkpt>
      <trkpt lat="46.676416005939245" lon="8.551666382700205">
        <ele>2113.1199999999999</ele>
        <time>2013-08-04T13:37:51Z</time>
      </trkpt>
      <trkpt lat="46.676398906856775" lon="8.551655821502209">
        <ele>2113.1199999999999</ele>
        <time>2013-08-04T13:38:28Z</time>
      </trkpt>
      <trkpt lat="46.676399828866124" lon="8.551657414063811">
        <ele>2113.5999999999999</ele>
        <time>2013-08-04T13:39:15Z</time>
      </trkpt>
      <trkpt lat="46.676416005939245" lon="8.551657497882843">
        <ele>2113.5999999999999</ele>
        <time>2013-08-04T13:39:58Z</time>
      </trkpt>
      <trkpt lat="46.676432266831398" lon="8.551646852865815">
        <ele>2113.1199999999999</ele>
        <time>2013-08-04T13:40:39Z</time>
      </trkpt>
      <trkpt lat="46.676435954868793" lon="8.551672752946615">
        <ele>2113.1199999999999</ele>
        <time>2013-08-04T13:41:18Z</time>
      </trkpt>
      <trkpt lat="46.676435451954603" lon="8.551670741289854">
        <ele>2113.1199999999999</ele>
        <time>2013-08-04T13:41:56Z</time>
      </trkpt>
      <trkpt lat="46.676436038687825" lon="8.551666382700205">
        <ele>2113.1199999999999</ele>
        <time>2013-08-04T13:42:40Z</time>
      </trkpt>
      <trkpt lat="46.676462776958942" lon="8.551653223112226">
        <ele>2113.1199999999999</ele>
        <time>2013-08-04T13:43:12Z</time>
      </trkpt>
      <trkpt lat="46.676454646512866" lon="8.551651295274496">
        <ele>2113.1199999999999</ele>
        <time>2013-08-04T13:43:49Z</time>
      </trkpt>
      <trkpt lat="46.676444336771965" lon="8.55166613124311">
        <ele>2113.1199999999999</ele>
        <time>2013-08-04T13:44:28Z</time>
      </trkpt>
      <trkpt lat="46.676447857171297" lon="8.551651798188686">
        <ele>2113.1199999999999</ele>
        <time>2013-08-04T13:45:16Z</time>
      </trkpt>
      <trkpt lat="46.676421789452434" lon="8.551665209233761">
        <ele>2113.1199999999999</ele>
        <time>2013-08-04T13:46:08Z</time>
      </trkpt>
      <trkpt lat="46.676423214375973" lon="8.551660850644112">
        <ele>2113.1199999999999</ele>
        <time>2013-08-04T13:46:57Z</time>
      </trkpt>
      <trkpt lat="46.67643821798265" lon="8.551648277789354">
        <ele>2113.1199999999999</ele>
        <time>2013-08-04T13:47:41Z</time>
      </trkpt>
      <trkpt lat="46.676445845514536" lon="8.551638973876834">
        <ele>2113.1199999999999</ele>
        <time>2013-08-04T13:48:24Z</time>
      </trkpt>
      <trkpt lat="46.676454562693834" lon="8.55162849649787">
        <ele>2113.1199999999999</ele>
        <time>2013-08-04T13:49:00Z</time>
      </trkpt>
      <trkpt lat="46.676505440846086" lon="8.551621120423079">
        <ele>2112.1500000000001</ele>
        <time>2013-08-04T13:49:39Z</time>
      </trkpt>
      <trkpt lat="46.676501836627722" lon="8.551634782925248">
        <ele>2112.6300000000001</ele>
        <time>2013-08-04T13:50:11Z</time>
      </trkpt>
      <trkpt lat="46.67650518938899" lon="8.551628580316901">
        <ele>2113.1199999999999</ele>
        <time>2013-08-04T13:50:41Z</time>
      </trkpt>
      <trkpt lat="46.676463866606355" lon="8.551629250869155">
        <ele>2113.1199999999999</ele>
        <time>2013-08-04T13:51:22Z</time>
      </trkpt>
      <trkpt lat="46.676488677039742" lon="8.551669484004378">
        <ele>2112.6300000000001</ele>
        <time>2013-08-04T13:52:03Z</time>
      </trkpt>
      <trkpt lat="46.676471410319209" lon="8.551641320809722">
        <ele>2113.1199999999999</ele>
        <time>2013-08-04T13:52:46Z</time>
      </trkpt>
      <trkpt lat="46.676450623199344" lon="8.55159136466682">
        <ele>2115.04</ele>
        <time>2013-08-04T13:53:04Z</time>
      </trkpt>
      <trkpt lat="46.676459675654769" lon="8.551600081846118">
        <ele>2114.5599999999999</ele>
        <time>2013-08-04T13:53:19Z</time>
      </trkpt>
      <trkpt lat="46.676460513845086" lon="8.551611062139273">
        <ele>2114.5599999999999</ele>
        <time>2013-08-04T13:53:37Z</time>
      </trkpt>
      <trkpt lat="46.676479540765285" lon="8.551592538133264">
        <ele>2114.5599999999999</ele>
        <time>2013-08-04T13:53:55Z</time>
      </trkpt>
      <trkpt lat="46.676445174962282" lon="8.551682308316231">
        <ele>2114.5599999999999</ele>
        <time>2013-08-04T13:54:07Z</time>
      </trkpt>
      <trkpt lat="46.676466129720211" lon="8.551873415708542">
        <ele>2114.5599999999999</ele>
        <time>2013-08-04T13:54:24Z</time>
      </trkpt>
      <trkpt lat="46.676517343148589" lon="8.551983134821057">
        <ele>2114.0799999999999</ele>
        <time>2013-08-04T13:54:36Z</time>
      </trkpt>
      <trkpt lat="46.676531340926886" lon="8.552015572786331">
        <ele>2113.5999999999999</ele>
        <time>2013-08-04T13:54:39Z</time>
      </trkpt>
      <trkpt lat="46.676586577668786" lon="8.552269376814365">
        <ele>2112.1500000000001</ele>
        <time>2013-08-04T13:54:55Z</time>
      </trkpt>
      <trkpt lat="46.676600994542241" lon="8.552413629367948">
        <ele>2111.1900000000001</ele>
        <time>2013-08-04T13:55:09Z</time>
      </trkpt>
      <trkpt lat="46.676597474142909" lon="8.55238244868815">
        <ele>2110.71</ele>
        <time>2013-08-04T13:55:26Z</time>
      </trkpt>
      <trkpt lat="46.676630917936563" lon="8.55251538567245">
        <ele>2109.27</ele>
        <time>2013-08-04T13:55:36Z</time>
      </trkpt>
      <trkpt lat="46.676631756126881" lon="8.552532317116857">
        <ele>2109.27</ele>
        <time>2013-08-04T13:55:37Z</time>
      </trkpt>
      <trkpt lat="46.676685232669115" lon="8.552682269364595">
        <ele>2108.3099999999999</ele>
        <time>2013-08-04T13:55:48Z</time>
      </trkpt>
      <trkpt lat="46.676709959283471" lon="8.552964823320508">
        <ele>2106.3899999999999</ele>
        <time>2013-08-04T13:56:05Z</time>
      </trkpt>
      <trkpt lat="46.676721023395658" lon="8.553104214370251">
        <ele>2106.3899999999999</ele>
        <time>2013-08-04T13:56:14Z</time>
      </trkpt>
      <trkpt lat="46.67672798037529" lon="8.553153332322836">
        <ele>2105.4200000000001</ele>
        <time>2013-08-04T13:56:18Z</time>
      </trkpt>
      <trkpt lat="46.676769722253084" lon="8.553360449150205">
        <ele>2103.5</ele>
        <time>2013-08-04T13:56:31Z</time>
      </trkpt>
      <trkpt lat="46.676795706152916" lon="8.553672675043345">
        <ele>2102.54</ele>
        <time>2013-08-04T13:56:48Z</time>
      </trkpt>
      <trkpt lat="46.676855217665434" lon="8.553939890116453">
        <ele>2100.6199999999999</ele>
        <time>2013-08-04T13:57:05Z</time>
      </trkpt>
      <trkpt lat="46.676884302869439" lon="8.554132003337145">
        <ele>2099.1799999999998</ele>
        <time>2013-08-04T13:57:17Z</time>
      </trkpt>
      <trkpt lat="46.676970720291138" lon="8.554327636957169">
        <ele>2095.8099999999999</ele>
        <time>2013-08-04T13:57:30Z</time>
      </trkpt>
      <trkpt lat="46.676961919292808" lon="8.55450801551342">
        <ele>2093.4099999999999</ele>
        <time>2013-08-04T13:57:41Z</time>
      </trkpt>
      <trkpt lat="46.676965858787298" lon="8.55459937825799">
        <ele>2092.4499999999998</ele>
        <time>2013-08-04T13:57:47Z</time>
      </trkpt>
      <trkpt lat="46.676978347823024" lon="8.554623518139124">
        <ele>2092.4499999999998</ele>
        <time>2013-08-04T13:57:49Z</time>
      </trkpt>
      <trkpt lat="46.676983209326863" lon="8.554721334949136">
        <ele>2091.9699999999998</ele>
        <time>2013-08-04T13:57:56Z</time>
      </trkpt>
      <trkpt lat="46.677015982568264" lon="8.554819151759148">
        <ele>2090.04</ele>
        <time>2013-08-04T13:58:03Z</time>
      </trkpt>
      <trkpt lat="46.677082953974605" lon="8.554972875863314">
        <ele>2087.6399999999999</ele>
        <time>2013-08-04T13:58:16Z</time>
      </trkpt>
      <trkpt lat="46.677100723609328" lon="8.55511830188334">
        <ele>2085.7199999999998</ele>
        <time>2013-08-04T13:58:29Z</time>
      </trkpt>
      <trkpt lat="46.677073901519179" lon="8.55523849837482">
        <ele>2083.79</ele>
        <time>2013-08-04T13:58:39Z</time>
      </trkpt>
      <trkpt lat="46.677068620920181" lon="8.555412003770471">
        <ele>2080.9099999999999</ele>
        <time>2013-08-04T13:58:54Z</time>
      </trkpt>
      <trkpt lat="46.677062418311834" lon="8.555493978783488">
        <ele>2079.4699999999998</ele>
        <time>2013-08-04T13:59:01Z</time>
      </trkpt>
      <trkpt lat="46.677047163248062" lon="8.555683996528387">
        <ele>2077.0700000000002</ele>
        <time>2013-08-04T13:59:16Z</time>
      </trkpt>
      <trkpt lat="46.677053365856409" lon="8.55575742200017">
        <ele>2075.6199999999999</ele>
        <time>2013-08-04T13:59:25Z</time>
      </trkpt>
      <trkpt lat="46.677067195996642" lon="8.555796900764108">
        <ele>2075.1399999999999</ele>
        <time>2013-08-04T13:59:29Z</time>
      </trkpt>
      <trkpt lat="46.677069291472435" lon="8.555930005386472">
        <ele>2073.2199999999998</ele>
        <time>2013-08-04T13:59:43Z</time>
      </trkpt>
      <trkpt lat="46.677047666162252" lon="8.555964035913348">
        <ele>2072.2600000000002</ele>
        <time>2013-08-04T13:59:48Z</time>
      </trkpt>
      <trkpt lat="46.676961332559586" lon="8.556069899350405">
        <ele>2070.3400000000001</ele>
        <time>2013-08-04T14:00:03Z</time>
      </trkpt>
      <trkpt lat="46.676899809390306" lon="8.556135781109333">
        <ele>2067.9299999999998</ele>
        <time>2013-08-04T14:00:16Z</time>
      </trkpt>
      <trkpt lat="46.676865443587303" lon="8.55623435229063">
        <ele>2066.4899999999998</ele>
        <time>2013-08-04T14:00:25Z</time>
      </trkpt>
      <trkpt lat="46.676846668124199" lon="8.556297300383449">
        <ele>2064.5700000000002</ele>
        <time>2013-08-04T14:00:31Z</time>
      </trkpt>
      <trkpt lat="46.676823785528541" lon="8.556418251246214">
        <ele>2061.6799999999998</ele>
        <time>2013-08-04T14:00:44Z</time>
      </trkpt>
      <trkpt lat="46.676818085834384" lon="8.556411294266582">
        <ele>2061.6799999999998</ele>
        <time>2013-08-04T14:00:45Z</time>
      </trkpt>
      <trkpt lat="46.67680274695158" lon="8.556394781917334">
        <ele>2061.6799999999998</ele>
        <time>2013-08-04T14:00:47Z</time>
      </trkpt>
      <trkpt lat="46.676722448319197" lon="8.556304592639208">
        <ele>2058.8000000000002</ele>
        <time>2013-08-04T14:01:00Z</time>
      </trkpt>
      <trkpt lat="46.676722783595324" lon="8.556378185749054">
        <ele>2057.8400000000001</ele>
        <time>2013-08-04T14:01:09Z</time>
      </trkpt>
      <trkpt lat="46.67669721879065" lon="8.556493856012821">
        <ele>2055.4400000000001</ele>
        <time>2013-08-04T14:01:21Z</time>
      </trkpt>
      <trkpt lat="46.676641227677464" lon="8.556528054177761">
        <ele>2052.5500000000002</ele>
        <time>2013-08-04T14:01:33Z</time>
      </trkpt>
      <trkpt lat="46.676564197987318" lon="8.556515732780099">
        <ele>2049.6700000000001</ele>
        <time>2013-08-04T14:01:46Z</time>
      </trkpt>
      <trkpt lat="46.676538465544581" lon="8.556480947881937">
        <ele>2049.1900000000001</ele>
        <time>2013-08-04T14:01:50Z</time>
      </trkpt>
      <trkpt lat="46.676473002880812" lon="8.556352620944381">
        <ele>2046.3</ele>
        <time>2013-08-04T14:02:03Z</time>
      </trkpt>
      <trkpt lat="46.676449198275805" lon="8.556322194635868">
        <ele>2045.8199999999999</ele>
        <time>2013-08-04T14:02:08Z</time>
      </trkpt>
      <trkpt lat="46.676380382850766" lon="8.556216498836875">
        <ele>2042.9400000000001</ele>
        <time>2013-08-04T14:02:23Z</time>
      </trkpt>
      <trkpt lat="46.676306035369635" lon="8.556172326207161">
        <ele>2040.54</ele>
        <time>2013-08-04T14:02:36Z</time>
      </trkpt>
      <trkpt lat="46.676260270178318" lon="8.55611558072269">
        <ele>2038.1300000000001</ele>
        <time>2013-08-04T14:02:47Z</time>
      </trkpt>
      <trkpt lat="46.676202267408371" lon="8.556021619588137">
        <ele>2035.25</ele>
        <time>2013-08-04T14:03:01Z</time>
      </trkpt>
      <trkpt lat="46.676162956282496" lon="8.556087082251906">
        <ele>2032.8399999999999</ele>
        <time>2013-08-04T14:03:13Z</time>
      </trkpt>
      <trkpt lat="46.676124902442098" lon="8.556141648441553">
        <ele>2029.96</ele>
        <time>2013-08-04T14:03:26Z</time>
      </trkpt>
      <trkpt lat="46.676102438941598" lon="8.556179534643889">
        <ele>2029</ele>
        <time>2013-08-04T14:03:32Z</time>
      </trkpt>
      <trkpt lat="46.676086178049445" lon="8.556299479678273">
        <ele>2025.1500000000001</ele>
        <time>2013-08-04T14:03:44Z</time>
      </trkpt>
      <trkpt lat="46.67609179392457" lon="8.556357817724347">
        <ele>2023.71</ele>
        <time>2013-08-04T14:03:49Z</time>
      </trkpt>
      <trkpt lat="46.676099840551615" lon="8.556397883221507">
        <ele>2023.23</ele>
        <time>2013-08-04T14:03:52Z</time>
      </trkpt>
      <trkpt lat="46.676112078130245" lon="8.556482205167413">
        <ele>2021.79</ele>
        <time>2013-08-04T14:03:59Z</time>
      </trkpt>
      <trkpt lat="46.676135715097189" lon="8.556665685027838">
        <ele>2018.9100000000001</ele>
        <time>2013-08-04T14:04:13Z</time>
      </trkpt>
      <trkpt lat="46.676153820008039" lon="8.556716311722994">
        <ele>2016.98</ele>
        <time>2013-08-04T14:04:17Z</time>
      </trkpt>
      <trkpt lat="46.676159435883164" lon="8.556789653375745">
        <ele>2016.02</ele>
        <time>2013-08-04T14:04:23Z</time>
      </trkpt>
      <trkpt lat="46.676176534965634" lon="8.557014372199774">
        <ele>2011.7</ele>
        <time>2013-08-04T14:04:38Z</time>
      </trkpt>
      <trkpt lat="46.676174188032746" lon="8.557088132947683">
        <ele>2010.25</ele>
        <time>2013-08-04T14:04:43Z</time>
      </trkpt>
      <trkpt lat="46.676189694553614" lon="8.557152086868882">
        <ele>2009.29</ele>
        <time>2013-08-04T14:04:48Z</time>
      </trkpt>
      <trkpt lat="46.676180055364966" lon="8.557177484035492">
        <ele>2007.8499999999999</ele>
        <time>2013-08-04T14:04:51Z</time>
      </trkpt>
      <trkpt lat="46.67615725658834" lon="8.557158121839166">
        <ele>2007.3699999999999</ele>
        <time>2013-08-04T14:04:54Z</time>
      </trkpt>
      <trkpt lat="46.676075616851449" lon="8.557050749659538">
        <ele>2004.01</ele>
        <time>2013-08-04T14:05:07Z</time>
      </trkpt>
      <trkpt lat="46.676021553575993" lon="8.556967601180077">
        <ele>2002.5599999999999</ele>
        <time>2013-08-04T14:05:17Z</time>
      </trkpt>
      <trkpt lat="46.676056254655123" lon="8.557179495692253">
        <ele>1999.6800000000001</ele>
        <time>2013-08-04T14:05:33Z</time>
      </trkpt>
      <trkpt lat="46.676053823903203" lon="8.55732006020844">
        <ele>1997.28</ele>
        <time>2013-08-04T14:05:46Z</time>
      </trkpt>
      <trkpt lat="46.676024487242103" lon="8.557371692731977">
        <ele>1994.8699999999999</ele>
        <time>2013-08-04T14:05:59Z</time>
      </trkpt>
      <trkpt lat="46.676014764234424" lon="8.557366412132978">
        <ele>1994.8699999999999</ele>
        <time>2013-08-04T14:06:00Z</time>
      </trkpt>
      <trkpt lat="46.675956845283508" lon="8.557313438504934">
        <ele>1993.4300000000001</ele>
        <time>2013-08-04T14:06:08Z</time>
      </trkpt>
      <trkpt lat="46.675868248566985" lon="8.557237917557359">
        <ele>1991.51</ele>
        <time>2013-08-04T14:06:22Z</time>
      </trkpt>
      <trkpt lat="46.675867913290858" lon="8.557251831516624">
        <ele>1989.5899999999999</ele>
        <time>2013-08-04T14:06:33Z</time>
      </trkpt>
      <trkpt lat="46.675897752866149" lon="8.557359371334314">
        <ele>1987.1800000000001</ele>
        <time>2013-08-04T14:06:48Z</time>
      </trkpt>
      <trkpt lat="46.675926754251122" lon="8.557530781254172">
        <ele>1984.3</ele>
        <time>2013-08-04T14:07:03Z</time>
      </trkpt>
      <trkpt lat="46.675871685147285" lon="8.557515107095242">
        <ele>1982.3800000000001</ele>
        <time>2013-08-04T14:07:10Z</time>
      </trkpt>
      <trkpt lat="46.675847880542278" lon="8.557507898658514">
        <ele>1981.9000000000001</ele>
        <time>2013-08-04T14:07:13Z</time>
      </trkpt>
      <trkpt lat="46.675755763426423" lon="8.557430617511272">
        <ele>1979.01</ele>
        <time>2013-08-04T14:07:27Z</time>
      </trkpt>
      <trkpt lat="46.675726342946291" lon="8.55743539519608">
        <ele>1978.05</ele>
        <time>2013-08-04T14:07:33Z</time>
      </trkpt>
      <trkpt lat="46.675654426217079" lon="8.557415697723627">
        <ele>1976.1300000000001</ele>
        <time>2013-08-04T14:07:45Z</time>
      </trkpt>
      <trkpt lat="46.675647804513574" lon="8.557526506483555">
        <ele>1973.24</ele>
        <time>2013-08-04T14:07:59Z</time>
      </trkpt>
      <trkpt lat="46.675603464245796" lon="8.557599429041147">
        <ele>1969.8800000000001</ele>
        <time>2013-08-04T14:08:11Z</time>
      </trkpt>
      <trkpt lat="46.675585443153977" lon="8.557732198387384">
        <ele>1966.99</ele>
        <time>2013-08-04T14:08:25Z</time>
      </trkpt>
      <trkpt lat="46.67557186447084" lon="8.557808641344309">
        <ele>1966.03</ele>
        <time>2013-08-04T14:08:33Z</time>
      </trkpt>
      <trkpt lat="46.675579324364662" lon="8.557860441505909">
        <ele>1964.5899999999999</ele>
        <time>2013-08-04T14:08:38Z</time>
      </trkpt>
      <trkpt lat="46.675563398748636" lon="8.557991031557322">
        <ele>1962.1900000000001</ele>
        <time>2013-08-04T14:08:51Z</time>
      </trkpt>
      <trkpt lat="46.675564991310239" lon="8.558007460087538">
        <ele>1962.1900000000001</ele>
        <time>2013-08-04T14:08:52Z</time>
      </trkpt>
      <trkpt lat="46.675594160333276" lon="8.558176858350635">
        <ele>1960.75</ele>
        <time>2013-08-04T14:09:04Z</time>
      </trkpt>
      <trkpt lat="46.675592735409737" lon="8.558330750092864">
        <ele>1957.8599999999999</ele>
        <time>2013-08-04T14:09:17Z</time>
      </trkpt>
      <trkpt lat="46.675594747066498" lon="8.558397134765983">
        <ele>1957.3800000000001</ele>
        <time>2013-08-04T14:09:22Z</time>
      </trkpt>
      <trkpt lat="46.675549484789371" lon="8.558567622676492">
        <ele>1955.9400000000001</ele>
        <time>2013-08-04T14:09:36Z</time>
      </trkpt>
      <trkpt lat="46.67554160580039" lon="8.558604754507542">
        <ele>1955.46</ele>
        <time>2013-08-04T14:09:39Z</time>
      </trkpt>
      <trkpt lat="46.675565578043461" lon="8.558765687048435">
        <ele>1953.54</ele>
        <time>2013-08-04T14:09:53Z</time>
      </trkpt>
      <trkpt lat="46.675554011017084" lon="8.558803992345929">
        <ele>1952.5699999999999</ele>
        <time>2013-08-04T14:09:56Z</time>
      </trkpt>
      <trkpt lat="46.675516292452812" lon="8.55896676890552">
        <ele>1951.6099999999999</ele>
        <time>2013-08-04T14:10:10Z</time>
      </trkpt>
      <trkpt lat="46.675568092614412" lon="8.559088138863444">
        <ele>1950.6500000000001</ele>
        <time>2013-08-04T14:10:23Z</time>
      </trkpt>
      <trkpt lat="46.675603128969669" lon="8.559162234887481">
        <ele>1948.25</ele>
        <time>2013-08-04T14:10:35Z</time>
      </trkpt>
      <trkpt lat="46.675595417618752" lon="8.559270864352584">
        <ele>1946.3299999999999</ele>
        <time>2013-08-04T14:10:47Z</time>
      </trkpt>
      <trkpt lat="46.675565242767334" lon="8.559395670890808">
        <ele>1943.9200000000001</ele>
        <time>2013-08-04T14:10:59Z</time>
      </trkpt>
      <trkpt lat="46.675561470910907" lon="8.55942509137094">
        <ele>1943.9200000000001</ele>
        <time>2013-08-04T14:11:01Z</time>
      </trkpt>
      <trkpt lat="46.675517549738288" lon="8.559509413316846">
        <ele>1942.96</ele>
        <time>2013-08-04T14:11:08Z</time>
      </trkpt>
      <trkpt lat="46.675464827567339" lon="8.559708315879107">
        <ele>1942</ele>
        <time>2013-08-04T14:11:23Z</time>
      </trkpt>
      <trkpt lat="46.675464911386371" lon="8.559727845713496">
        <ele>1941.52</ele>
        <time>2013-08-04T14:11:25Z</time>
      </trkpt>
      <trkpt lat="46.675484860315919" lon="8.559848042204976">
        <ele>1939.5999999999999</ele>
        <time>2013-08-04T14:11:39Z</time>
      </trkpt>
      <trkpt lat="46.675482261925936" lon="8.559942338615656">
        <ele>1938.1600000000001</ele>
        <time>2013-08-04T14:11:49Z</time>
      </trkpt>
      <trkpt lat="46.675444627180696" lon="8.560083825141192">
        <ele>1935.75</ele>
        <time>2013-08-04T14:12:04Z</time>
      </trkpt>
      <trkpt lat="46.675372710451484" lon="8.560148198157549">
        <ele>1933.8299999999999</ele>
        <time>2013-08-04T14:12:17Z</time>
      </trkpt>
      <trkpt lat="46.675311857834458" lon="8.560203686356545">
        <ele>1930.46</ele>
        <time>2013-08-04T14:12:32Z</time>
      </trkpt>
      <trkpt lat="46.675298530608416" lon="8.560334108769894">
        <ele>1928.54</ele>
        <time>2013-08-04T14:12:44Z</time>
      </trkpt>
      <trkpt lat="46.675257291644812" lon="8.560435781255364">
        <ele>1926.6199999999999</ele>
        <time>2013-08-04T14:12:57Z</time>
      </trkpt>
      <trkpt lat="46.675223764032125" lon="8.560562264174223">
        <ele>1923.74</ele>
        <time>2013-08-04T14:13:11Z</time>
      </trkpt>
      <trkpt lat="46.675226613879204" lon="8.560603000223637">
        <ele>1922.29</ele>
        <time>2013-08-04T14:13:14Z</time>
      </trkpt>
      <trkpt lat="46.675238683819771" lon="8.560659158974886">
        <ele>1921.3299999999999</ele>
        <time>2013-08-04T14:13:21Z</time>
      </trkpt>
      <trkpt lat="46.675226278603077" lon="8.560707774013281">
        <ele>1920.3699999999999</ele>
        <time>2013-08-04T14:13:26Z</time>
      </trkpt>
      <trkpt lat="46.675243461504579" lon="8.560723615810275">
        <ele>1919.4100000000001</ele>
        <time>2013-08-04T14:13:28Z</time>
      </trkpt>
      <trkpt lat="46.675259303301573" lon="8.560872478410602">
        <ele>1917.49</ele>
        <time>2013-08-04T14:13:40Z</time>
      </trkpt>
      <trkpt lat="46.675290986895561" lon="8.560967529192567">
        <ele>1914.1199999999999</ele>
        <time>2013-08-04T14:13:51Z</time>
      </trkpt>
      <trkpt lat="46.675311354920268" lon="8.561069956049323">
        <ele>1911.72</ele>
        <time>2013-08-04T14:14:04Z</time>
      </trkpt>
      <trkpt lat="46.675323005765676" lon="8.561107339337468">
        <ele>1911.24</ele>
        <time>2013-08-04T14:14:08Z</time>
      </trkpt>
      <trkpt lat="46.675276653841138" lon="8.56125351972878">
        <ele>1909.3199999999999</ele>
        <time>2013-08-04T14:14:21Z</time>
      </trkpt>
      <trkpt lat="46.67529090307653" lon="8.561371369287372">
        <ele>1906.4300000000001</ele>
        <time>2013-08-04T14:14:33Z</time>
      </trkpt>
      <trkpt lat="46.675207503139973" lon="8.561394168063998">
        <ele>1904.03</ele>
        <time>2013-08-04T14:14:46Z</time>
      </trkpt>
      <trkpt lat="46.675123432651162" lon="8.561336668208242">
        <ele>1900.6600000000001</ele>
        <time>2013-08-04T14:15:00Z</time>
      </trkpt>
      <trkpt lat="46.67506760917604" lon="8.561292914673686">
        <ele>1896.8199999999999</ele>
        <time>2013-08-04T14:15:12Z</time>
      </trkpt>
      <trkpt lat="46.675011198967695" lon="8.56124865822494">
        <ele>1895.3800000000001</ele>
        <time>2013-08-04T14:15:22Z</time>
      </trkpt>
      <trkpt lat="46.674980521202087" lon="8.561246311292052">
        <ele>1893.9300000000001</ele>
        <time>2013-08-04T14:15:32Z</time>
      </trkpt>
      <trkpt lat="46.674911957234144" lon="8.561290148645639">
        <ele>1892.49</ele>
        <time>2013-08-04T14:15:44Z</time>
      </trkpt>
      <trkpt lat="46.674897791817784" lon="8.561248406767845">
        <ele>1891.05</ele>
        <time>2013-08-04T14:15:47Z</time>
      </trkpt>
      <trkpt lat="46.67483258061111" lon="8.561177495867014">
        <ele>1889.1300000000001</ele>
        <time>2013-08-04T14:16:01Z</time>
      </trkpt>
      <trkpt lat="46.674824617803097" lon="8.561168108135462">
        <ele>1888.1700000000001</ele>
        <time>2013-08-04T14:16:03Z</time>
      </trkpt>
      <trkpt lat="46.674754545092583" lon="8.561167437583208">
        <ele>1886.24</ele>
        <time>2013-08-04T14:16:16Z</time>
      </trkpt>
      <trkpt lat="46.67470115236938" lon="8.561165509745479">
        <ele>1883.8399999999999</ele>
        <time>2013-08-04T14:16:28Z</time>
      </trkpt>
      <trkpt lat="46.674648262560368" lon="8.561187470331788">
        <ele>1881.4400000000001</ele>
        <time>2013-08-04T14:16:40Z</time>
      </trkpt>
      <trkpt lat="46.674569388851523" lon="8.561214879155159">
        <ele>1878.55</ele>
        <time>2013-08-04T14:16:53Z</time>
      </trkpt>
      <trkpt lat="46.6745066922158" lon="8.561221500858665">
        <ele>1878.0699999999999</ele>
        <time>2013-08-04T14:17:02Z</time>
      </trkpt>
      <trkpt lat="46.674404097720981" lon="8.561155535280705">
        <ele>1875.6700000000001</ele>
        <time>2013-08-04T14:17:14Z</time>
      </trkpt>
      <trkpt lat="46.674343328922987" lon="8.561180429533124">
        <ele>1873.75</ele>
        <time>2013-08-04T14:17:22Z</time>
      </trkpt>
      <trkpt lat="46.674249703064561" lon="8.561229463666678">
        <ele>1870.8599999999999</ele>
        <time>2013-08-04T14:17:34Z</time>
      </trkpt>
      <trkpt lat="46.674172170460224" lon="8.561336668208242">
        <ele>1869.4200000000001</ele>
        <time>2013-08-04T14:17:47Z</time>
      </trkpt>
      <trkpt lat="46.674111150205135" lon="8.561335159465671">
        <ele>1867.98</ele>
        <time>2013-08-04T14:17:56Z</time>
      </trkpt>
      <trkpt lat="46.673980979248881" lon="8.561257962137461">
        <ele>1865.0899999999999</ele>
        <time>2013-08-04T14:18:11Z</time>
      </trkpt>
      <trkpt lat="46.673922641202807" lon="8.561267098411918">
        <ele>1862.6900000000001</ele>
        <time>2013-08-04T14:18:23Z</time>
      </trkpt>
      <trkpt lat="46.673906296491623" lon="8.561247065663338">
        <ele>1862.21</ele>
        <time>2013-08-04T14:18:28Z</time>
      </trkpt>
      <trkpt lat="46.673876876011491" lon="8.561259470880032">
        <ele>1861.73</ele>
        <time>2013-08-04T14:18:31Z</time>
      </trkpt>
      <trkpt lat="46.673833038657904" lon="8.561257626861334">
        <ele>1860.29</ele>
        <time>2013-08-04T14:18:35Z</time>
      </trkpt>
      <trkpt lat="46.673725498840213" lon="8.561301380395889">
        <ele>1857.8900000000001</ele>
        <time>2013-08-04T14:18:49Z</time>
      </trkpt>
      <trkpt lat="46.673636818304658" lon="8.561345133930445">
        <ele>1855</ele>
        <time>2013-08-04T14:19:02Z</time>
      </trkpt>
      <trkpt lat="46.673583257943392" lon="8.561406657099724">
        <ele>1853.5599999999999</ele>
        <time>2013-08-04T14:19:11Z</time>
      </trkpt>
      <trkpt lat="46.67354553937912" lon="8.561484357342124">
        <ele>1852.5999999999999</ele>
        <time>2013-08-04T14:19:19Z</time>
      </trkpt>
      <trkpt lat="46.673535062000155" lon="8.561554765328765">
        <ele>1851.6400000000001</ele>
        <time>2013-08-04T14:19:24Z</time>
      </trkpt>
      <trkpt lat="46.673504887148738" lon="8.56170698069036">
        <ele>1849.71</ele>
        <time>2013-08-04T14:19:39Z</time>
      </trkpt>
      <trkpt lat="46.673451578244567" lon="8.561582425609231">
        <ele>1847.79</ele>
        <time>2013-08-04T14:19:51Z</time>
      </trkpt>
      <trkpt lat="46.673431294038892" lon="8.561572702601552">
        <ele>1846.8299999999999</ele>
        <time>2013-08-04T14:19:53Z</time>
      </trkpt>
      <trkpt lat="46.673368848860264" lon="8.561498355120421">
        <ele>1845.3900000000001</ele>
        <time>2013-08-04T14:20:06Z</time>
      </trkpt>
      <trkpt lat="46.673355018720031" lon="8.561600865796208">
        <ele>1843.47</ele>
        <time>2013-08-04T14:20:16Z</time>
      </trkpt>
      <trkpt lat="46.673314953222871" lon="8.56156088411808">
        <ele>1841.0599999999999</ele>
        <time>2013-08-04T14:20:28Z</time>
      </trkpt>
      <trkpt lat="46.673298021778464" lon="8.561598854139447">
        <ele>1840.0999999999999</ele>
        <time>2013-08-04T14:20:34Z</time>
      </trkpt>
      <trkpt lat="46.673223758116364" lon="8.56153255328536">
        <ele>1837.22</ele>
        <time>2013-08-04T14:20:46Z</time>
      </trkpt>
      <trkpt lat="46.673186961561441" lon="8.561493074521422">
        <ele>1835.29</ele>
        <time>2013-08-04T14:20:56Z</time>
      </trkpt>
      <trkpt lat="46.67318494990468" lon="8.561514196917415">
        <ele>1834.3299999999999</ele>
        <time>2013-08-04T14:20:58Z</time>
      </trkpt>
      <trkpt lat="46.67317908257246" lon="8.561637662351131">
        <ele>1831.9300000000001</ele>
        <time>2013-08-04T14:21:11Z</time>
      </trkpt>
      <trkpt lat="46.67316097766161" lon="8.56172894127667">
        <ele>1829.53</ele>
        <time>2013-08-04T14:21:24Z</time>
      </trkpt>
      <trkpt lat="46.673086378723383" lon="8.56168745085597">
        <ele>1826.1600000000001</ele>
        <time>2013-08-04T14:21:37Z</time>
      </trkpt>
      <trkpt lat="46.67291765101254" lon="8.561714440584183">
        <ele>1824.72</ele>
        <time>2013-08-04T14:21:53Z</time>
      </trkpt>
      <trkpt lat="46.672843219712377" lon="8.561674542725086">
        <ele>1822.8</ele>
        <time>2013-08-04T14:22:03Z</time>
      </trkpt>
      <trkpt lat="46.672801394015551" lon="8.561639003455639">
        <ele>1821.3499999999999</ele>
        <time>2013-08-04T14:22:12Z</time>
      </trkpt>
      <trkpt lat="46.672781109809875" lon="8.561794823035598">
        <ele>1818.47</ele>
        <time>2013-08-04T14:22:25Z</time>
      </trkpt>
      <trkpt lat="46.672771973535419" lon="8.561958856880665">
        <ele>1817.03</ele>
        <time>2013-08-04T14:22:40Z</time>
      </trkpt>
      <trkpt lat="46.672747833654284" lon="8.561931699514389">
        <ele>1816.55</ele>
        <time>2013-08-04T14:22:44Z</time>
      </trkpt>
      <trkpt lat="46.672661248594522" lon="8.56187948025763">
        <ele>1814.1500000000001</ele>
        <time>2013-08-04T14:22:58Z</time>
      </trkpt>
      <trkpt lat="46.672594025731087" lon="8.561844192445278">
        <ele>1811.74</ele>
        <time>2013-08-04T14:23:11Z</time>
      </trkpt>
      <trkpt lat="46.672525629401207" lon="8.561818627640605">
        <ele>1809.3399999999999</ele>
        <time>2013-08-04T14:23:24Z</time>
      </trkpt>
      <trkpt lat="46.672500902786851" lon="8.561833631247282">
        <ele>1806.9400000000001</ele>
        <time>2013-08-04T14:23:37Z</time>
      </trkpt>
      <trkpt lat="46.672520348802209" lon="8.561952570453286">
        <ele>1804.05</ele>
        <time>2013-08-04T14:23:52Z</time>
      </trkpt>
      <trkpt lat="46.672452371567488" lon="8.562023397535086">
        <ele>1801.6500000000001</ele>
        <time>2013-08-04T14:24:06Z</time>
      </trkpt>
      <trkpt lat="46.672352040186524" lon="8.561922982335091">
        <ele>1798.76</ele>
        <time>2013-08-04T14:24:19Z</time>
      </trkpt>
      <trkpt lat="46.67228682897985" lon="8.561814269050956">
        <ele>1796.3599999999999</ele>
        <time>2013-08-04T14:24:31Z</time>
      </trkpt>
      <trkpt lat="46.672257576137781" lon="8.561704801395536">
        <ele>1795.4000000000001</ele>
        <time>2013-08-04T14:24:44Z</time>
      </trkpt>
      <trkpt lat="46.672217091545463" lon="8.56183254159987">
        <ele>1792.03</ele>
        <time>2013-08-04T14:24:57Z</time>
      </trkpt>
      <trkpt lat="46.672181971371174" lon="8.561892807483673">
        <ele>1790.5899999999999</ele>
        <time>2013-08-04T14:25:10Z</time>
      </trkpt>
      <trkpt lat="46.672175768762827" lon="8.561990121379495">
        <ele>1787.71</ele>
        <time>2013-08-04T14:25:25Z</time>
      </trkpt>
      <trkpt lat="46.672069150954485" lon="8.561911750584841">
        <ele>1785.79</ele>
        <time>2013-08-04T14:25:41Z</time>
      </trkpt>
      <trkpt lat="46.67200637049973" lon="8.561833631247282">
        <ele>1783.3800000000001</ele>
        <time>2013-08-04T14:25:51Z</time>
      </trkpt>
      <trkpt lat="46.671980889514089" lon="8.561840504407883">
        <ele>1781.46</ele>
        <time>2013-08-04T14:25:54Z</time>
      </trkpt>
      <trkpt lat="46.672021122649312" lon="8.561939913779497">
        <ele>1779.54</ele>
        <time>2013-08-04T14:26:06Z</time>
      </trkpt>
      <trkpt lat="46.672001928091049" lon="8.562069917097688">
        <ele>1776.6500000000001</ele>
        <time>2013-08-04T14:26:22Z</time>
      </trkpt>
      <trkpt lat="46.671931771561503" lon="8.562210062518716">
        <ele>1774.25</ele>
        <time>2013-08-04T14:26:38Z</time>
      </trkpt>
      <trkpt lat="46.671855915337801" lon="8.562136804684997">
        <ele>1770.8900000000001</ele>
        <time>2013-08-04T14:26:50Z</time>
      </trkpt>
      <trkpt lat="46.671741167083383" lon="8.56201970949769">
        <ele>1767.52</ele>
        <time>2013-08-04T14:27:03Z</time>
      </trkpt>
      <trkpt lat="46.671712920069695" lon="8.561967154964805">
        <ele>1766.5599999999999</ele>
        <time>2013-08-04T14:27:07Z</time>
      </trkpt>
      <trkpt lat="46.671702275052667" lon="8.561921892687678">
        <ele>1765.5999999999999</ele>
        <time>2013-08-04T14:27:11Z</time>
      </trkpt>
      <trkpt lat="46.671658353880048" lon="8.561746627092362">
        <ele>1762.23</ele>
        <time>2013-08-04T14:27:22Z</time>
      </trkpt>
      <trkpt lat="46.671654246747494" lon="8.561731707304716">
        <ele>1761.75</ele>
        <time>2013-08-04T14:27:24Z</time>
      </trkpt>
      <trkpt lat="46.671636309474707" lon="8.561665993183851">
        <ele>1759.8299999999999</ele>
        <time>2013-08-04T14:27:29Z</time>
      </trkpt>
      <trkpt lat="46.67166480794549" lon="8.561450075358152">
        <ele>1757.4300000000001</ele>
        <time>2013-08-04T14:27:43Z</time>
      </trkpt>
      <trkpt lat="46.6716902051121" lon="8.561231894418597">
        <ele>1754.54</ele>
        <time>2013-08-04T14:27:57Z</time>
      </trkpt>
      <trkpt lat="46.671665729954839" lon="8.561161067336798">
        <ele>1754.0599999999999</ele>
        <time>2013-08-04T14:28:09Z</time>
      </trkpt>
      <trkpt lat="46.671646954491735" lon="8.56114556081593">
        <ele>1753.0999999999999</ele>
        <time>2013-08-04T14:28:12Z</time>
      </trkpt>
      <trkpt lat="46.671580150723457" lon="8.561066519469023">
        <ele>1750.7</ele>
        <time>2013-08-04T14:28:26Z</time>
      </trkpt>
      <trkpt lat="46.671532038599253" lon="8.560958560556173">
        <ele>1748.29</ele>
        <time>2013-08-04T14:28:40Z</time>
      </trkpt>
      <trkpt lat="46.671475879848003" lon="8.560800980776548">
        <ele>1746.3699999999999</ele>
        <time>2013-08-04T14:28:54Z</time>
      </trkpt>
      <trkpt lat="46.671434137970209" lon="8.560662847012281">
        <ele>1743.97</ele>
        <time>2013-08-04T14:29:08Z</time>
      </trkpt>
      <trkpt lat="46.671406058594584" lon="8.560520354658365">
        <ele>1741.5699999999999</ele>
        <time>2013-08-04T14:29:18Z</time>
      </trkpt>
      <trkpt lat="46.671394575387239" lon="8.560513900592923">
        <ele>1739.1600000000001</ele>
        <time>2013-08-04T14:29:32Z</time>
      </trkpt>
      <trkpt lat="46.671371357515454" lon="8.560655135661364">
        <ele>1736.76</ele>
        <time>2013-08-04T14:29:46Z</time>
      </trkpt>
      <trkpt lat="46.671316791325808" lon="8.560744822025299">
        <ele>1733.8800000000001</ele>
        <time>2013-08-04T14:29:57Z</time>
      </trkpt>
      <trkpt lat="46.671294830739498" lon="8.56085772626102">
        <ele>1731.47</ele>
        <time>2013-08-04T14:30:11Z</time>
      </trkpt>
      <trkpt lat="46.67125828564167" lon="8.560722107067704">
        <ele>1728.1099999999999</ele>
        <time>2013-08-04T14:30:22Z</time>
      </trkpt>
      <trkpt lat="46.67120891623199" lon="8.560614148154855">
        <ele>1725.7</ele>
        <time>2013-08-04T14:30:33Z</time>
      </trkpt>
      <trkpt lat="46.67119475081563" lon="8.560578189790249">
        <ele>1725.22</ele>
        <time>2013-08-04T14:30:36Z</time>
      </trkpt>
      <trkpt lat="46.671208497136831" lon="8.560439301654697">
        <ele>1723.3</ele>
        <time>2013-08-04T14:30:46Z</time>
      </trkpt>
      <trkpt lat="46.671156948432326" lon="8.560263784602284">
        <ele>1720.9000000000001</ele>
        <time>2013-08-04T14:31:01Z</time>
      </trkpt>
      <trkpt lat="46.671109506860375" lon="8.560105618089438">
        <ele>1718.49</ele>
        <time>2013-08-04T14:31:16Z</time>
      </trkpt>
      <trkpt lat="46.67111218906939" lon="8.560142833739519">
        <ele>1715.6099999999999</ele>
        <time>2013-08-04T14:31:30Z</time>
      </trkpt>
      <trkpt lat="46.6710892226547" lon="8.560266885906458">
        <ele>1712.25</ele>
        <time>2013-08-04T14:31:45Z</time>
      </trkpt>
      <trkpt lat="46.671050665900111" lon="8.56033586896956">
        <ele>1711.76</ele>
        <time>2013-08-04T14:31:51Z</time>
      </trkpt>
      <trkpt lat="46.67100221849978" lon="8.560475762933493">
        <ele>1708.8800000000001</ele>
        <time>2013-08-04T14:32:04Z</time>
      </trkpt>
      <trkpt lat="46.671004230156541" lon="8.560521611943841">
        <ele>1707.4400000000001</ele>
        <time>2013-08-04T14:32:07Z</time>
      </trkpt>
      <trkpt lat="46.670938767492771" lon="8.560653040185571">
        <ele>1705.04</ele>
        <time>2013-08-04T14:32:22Z</time>
      </trkpt>
      <trkpt lat="46.670933654531837" lon="8.560707606375217">
        <ele>1703.1099999999999</ele>
        <time>2013-08-04T14:32:33Z</time>
      </trkpt>
      <trkpt lat="46.67088495567441" lon="8.56073996052146">
        <ele>1702.1500000000001</ele>
        <time>2013-08-04T14:32:44Z</time>
      </trkpt>
      <trkpt lat="46.670859977602959" lon="8.560693189501762">
        <ele>1701.6700000000001</ele>
        <time>2013-08-04T14:32:49Z</time>
      </trkpt>
      <trkpt lat="46.670806165784597" lon="8.560589924454689">
        <ele>1700.23</ele>
        <time>2013-08-04T14:32:59Z</time>
      </trkpt>
      <trkpt lat="46.670794263482094" lon="8.560557570308447">
        <ele>1699.27</ele>
        <time>2013-08-04T14:33:08Z</time>
      </trkpt>
      <trkpt lat="46.670794598758221" lon="8.560518510639668">
        <ele>1699.27</ele>
        <time>2013-08-04T14:33:36Z</time>
      </trkpt>
      <trkpt lat="46.670785127207637" lon="8.560549020767212">
        <ele>1699.27</ele>
        <time>2013-08-04T14:34:14Z</time>
      </trkpt>
      <trkpt lat="46.67078479193151" lon="8.560539046302438">
        <ele>1698.79</ele>
        <time>2013-08-04T14:34:49Z</time>
      </trkpt>
      <trkpt lat="46.670777164399624" lon="8.560534017160535">
        <ele>1698.79</ele>
        <time>2013-08-04T14:35:23Z</time>
      </trkpt>
      <trkpt lat="46.670786803588271" lon="8.56056259945035">
        <ele>1698.79</ele>
        <time>2013-08-04T14:35:48Z</time>
      </trkpt>
      <trkpt lat="46.67077699676156" lon="8.560553127899766">
        <ele>1698.3099999999999</ele>
        <time>2013-08-04T14:36:04Z</time>
      </trkpt>
      <trkpt lat="46.670796442776918" lon="8.560577183961868">
        <ele>1699.27</ele>
        <time>2013-08-04T14:36:10Z</time>
      </trkpt>
      <trkpt lat="46.670719245448709" lon="8.560449611395598">
        <ele>1697.3399999999999</ele>
        <time>2013-08-04T14:36:24Z</time>
      </trkpt>
      <trkpt lat="46.670702314004302" lon="8.56044240295887">
        <ele>1696.8599999999999</ele>
        <time>2013-08-04T14:36:39Z</time>
      </trkpt>
      <trkpt lat="46.670678509399295" lon="8.560446593910456">
        <ele>1696.3800000000001</ele>
        <time>2013-08-04T14:36:58Z</time>
      </trkpt>
      <trkpt lat="46.670703822746873" lon="8.560420777648687">
        <ele>1696.8599999999999</ele>
        <time>2013-08-04T14:37:22Z</time>
      </trkpt>
      <trkpt lat="46.6707110311836" lon="8.560422705486417">
        <ele>1695.9000000000001</ele>
        <time>2013-08-04T14:37:36Z</time>
      </trkpt>
      <trkpt lat="46.670712707564235" lon="8.560445252805948">
        <ele>1696.3800000000001</ele>
        <time>2013-08-04T14:37:54Z</time>
      </trkpt>
      <trkpt lat="46.670662751421332" lon="8.560346513986588">
        <ele>1693.98</ele>
        <time>2013-08-04T14:38:07Z</time>
      </trkpt>
      <trkpt lat="46.670655626803637" lon="8.560327906161547">
        <ele>1693.5</ele>
        <time>2013-08-04T14:38:09Z</time>
      </trkpt>
      <trkpt lat="46.670626625418663" lon="8.560183821246028">
        <ele>1690.6199999999999</ele>
        <time>2013-08-04T14:38:24Z</time>
      </trkpt>
      <trkpt lat="46.670622183009982" lon="8.560165716335177">
        <ele>1689.6500000000001</ele>
        <time>2013-08-04T14:38:45Z</time>
      </trkpt>
      <trkpt lat="46.670602569356561" lon="8.56015901081264">
        <ele>1690.1400000000001</ele>
        <time>2013-08-04T14:39:30Z</time>
      </trkpt>
      <trkpt lat="46.670624949038029" lon="8.560141576454043">
        <ele>1690.1400000000001</ele>
        <time>2013-08-04T14:40:10Z</time>
      </trkpt>
      <trkpt lat="46.670579686760902" lon="8.560076784342527">
        <ele>1690.1400000000001</ele>
        <time>2013-08-04T14:40:39Z</time>
      </trkpt>
      <trkpt lat="46.670574573799968" lon="8.560143336653709">
        <ele>1690.6199999999999</ele>
        <time>2013-08-04T14:41:18Z</time>
      </trkpt>
      <trkpt lat="46.670571304857731" lon="8.560082484036684">
        <ele>1691.0999999999999</ele>
        <time>2013-08-04T14:41:47Z</time>
      </trkpt>
      <trkpt lat="46.670589996501803" lon="8.560090446844697">
        <ele>1690.6199999999999</ele>
        <time>2013-08-04T14:42:12Z</time>
      </trkpt>
      <trkpt lat="46.670585637912154" lon="8.560059349983931">
        <ele>1690.1400000000001</ele>
        <time>2013-08-04T14:42:46Z</time>
      </trkpt>
      <trkpt lat="46.670588403940201" lon="8.560105869546533">
        <ele>1689.6500000000001</ele>
        <time>2013-08-04T14:43:13Z</time>
      </trkpt>
      <trkpt lat="46.670611454173923" lon="8.560017021372914">
        <ele>1688.21</ele>
        <time>2013-08-04T14:43:29Z</time>
      </trkpt>
      <trkpt lat="46.670563677325845" lon="8.559881988912821">
        <ele>1686.29</ele>
        <time>2013-08-04T14:43:43Z</time>
      </trkpt>
      <trkpt lat="46.670495700091124" lon="8.559743938967586">
        <ele>1683.4100000000001</ele>
        <time>2013-08-04T14:44:00Z</time>
      </trkpt>
      <trkpt lat="46.670413725078106" lon="8.559648972004652">
        <ele>1680.52</ele>
        <time>2013-08-04T14:44:14Z</time>
      </trkpt>
      <trkpt lat="46.670354632660747" lon="8.559526680037379">
        <ele>1677.1600000000001</ele>
        <time>2013-08-04T14:44:28Z</time>
      </trkpt>
      <trkpt lat="46.670299144461751" lon="8.559432635083795">
        <ele>1674.75</ele>
        <time>2013-08-04T14:44:41Z</time>
      </trkpt>
      <trkpt lat="46.670264108106494" lon="8.559309085831046">
        <ele>1671.3900000000001</ele>
        <time>2013-08-04T14:44:55Z</time>
      </trkpt>
      <trkpt lat="46.670181713998318" lon="8.559233900159597">
        <ele>1668.51</ele>
        <time>2013-08-04T14:45:07Z</time>
      </trkpt>
      <trkpt lat="46.670128656551242" lon="8.55914899148047">
        <ele>1665.6199999999999</ele>
        <time>2013-08-04T14:45:21Z</time>
      </trkpt>
      <trkpt lat="46.670096302405" lon="8.559057544916868">
        <ele>1662.74</ele>
        <time>2013-08-04T14:45:34Z</time>
      </trkpt>
      <trkpt lat="46.6700738389045" lon="8.559019323438406">
        <ele>1660.8099999999999</ele>
        <time>2013-08-04T14:45:41Z</time>
      </trkpt>
      <trkpt lat="46.670032935217023" lon="8.558865515515208">
        <ele>1657.9300000000001</ele>
        <time>2013-08-04T14:45:56Z</time>
      </trkpt>
      <trkpt lat="46.67003720998764" lon="8.558736350387335">
        <ele>1656.49</ele>
        <time>2013-08-04T14:46:09Z</time>
      </trkpt>
      <trkpt lat="46.669995468109846" lon="8.558686980977655">
        <ele>1653.5999999999999</ele>
        <time>2013-08-04T14:46:22Z</time>
      </trkpt>
      <trkpt lat="46.669947188347578" lon="8.558660326525569">
        <ele>1650.24</ele>
        <time>2013-08-04T14:46:33Z</time>
      </trkpt>
      <trkpt lat="46.669884994626045" lon="8.55861347168684">
        <ele>1647.3599999999999</ele>
        <time>2013-08-04T14:46:48Z</time>
      </trkpt>
      <trkpt lat="46.669829254969954" lon="8.558571143075824">
        <ele>1644.47</ele>
        <time>2013-08-04T14:47:03Z</time>
      </trkpt>
      <trkpt lat="46.669777287170291" lon="8.558591092005372">
        <ele>1641.1099999999999</ele>
        <time>2013-08-04T14:47:16Z</time>
      </trkpt>
      <trkpt lat="46.669735377654433" lon="8.55849914252758">
        <ele>1638.7</ele>
        <time>2013-08-04T14:47:27Z</time>
      </trkpt>
      <trkpt lat="46.669708471745253" lon="8.558344077318907">
        <ele>1635.8199999999999</ele>
        <time>2013-08-04T14:47:40Z</time>
      </trkpt>
      <trkpt lat="46.669740742072463" lon="8.558254055678845">
        <ele>1632.9400000000001</ele>
        <time>2013-08-04T14:47:52Z</time>
      </trkpt>
      <trkpt lat="46.66971324943006" lon="8.558084741234779">
        <ele>1630.05</ele>
        <time>2013-08-04T14:48:07Z</time>
      </trkpt>
      <trkpt lat="46.669689947739244" lon="8.558163531124592">
        <ele>1627.1700000000001</ele>
        <time>2013-08-04T14:48:20Z</time>
      </trkpt>
      <trkpt lat="46.669636555016041" lon="8.558068228885531">
        <ele>1624.28</ele>
        <time>2013-08-04T14:48:33Z</time>
      </trkpt>
      <trkpt lat="46.669630687683821" lon="8.557948283851147">
        <ele>1621.4000000000001</ele>
        <time>2013-08-04T14:48:47Z</time>
      </trkpt>
      <trkpt lat="46.669575702399015" lon="8.557867398485541">
        <ele>1618.04</ele>
        <time>2013-08-04T14:49:00Z</time>
      </trkpt>
      <trkpt lat="46.669531110674143" lon="8.557786848396063">
        <ele>1615.6300000000001</ele>
        <time>2013-08-04T14:49:12Z</time>
      </trkpt>
      <trkpt lat="46.669536726549268" lon="8.55764108709991">
        <ele>1612.75</ele>
        <time>2013-08-04T14:49:26Z</time>
      </trkpt>
      <trkpt lat="46.669552316889167" lon="8.557574199512601">
        <ele>1609.8599999999999</ele>
        <time>2013-08-04T14:49:38Z</time>
      </trkpt>
      <trkpt lat="46.669545359909534" lon="8.557563051581383">
        <ele>1608.9000000000001</ele>
        <time>2013-08-04T14:49:40Z</time>
      </trkpt>
      <trkpt lat="46.66954955086112" lon="8.557539749890566">
        <ele>1608.4200000000001</ele>
        <time>2013-08-04T14:49:42Z</time>
      </trkpt>
      <trkpt lat="46.669576875865459" lon="8.557420391589403">
        <ele>1605.54</ele>
        <time>2013-08-04T14:49:56Z</time>
      </trkpt>
      <trkpt lat="46.669582910835743" lon="8.557316288352013">
        <ele>1602.1700000000001</ele>
        <time>2013-08-04T14:50:09Z</time>
      </trkpt>
      <trkpt lat="46.669636303558946" lon="8.557205814868212">
        <ele>1599.29</ele>
        <time>2013-08-04T14:50:23Z</time>
      </trkpt>
      <trkpt lat="46.669647535309196" lon="8.557171281427145">
        <ele>1597.3699999999999</ele>
        <time>2013-08-04T14:50:28Z</time>
      </trkpt>
      <trkpt lat="46.669673016294837" lon="8.557094922289252">
        <ele>1594.48</ele>
        <time>2013-08-04T14:50:40Z</time>
      </trkpt>
      <trkpt lat="46.669667484238744" lon="8.556993920356035">
        <ele>1592.0799999999999</ele>
        <time>2013-08-04T14:50:56Z</time>
      </trkpt>
      <trkpt lat="46.669626412913203" lon="8.556995512917638">
        <ele>1593.04</ele>
        <time>2013-08-04T14:51:02Z</time>
      </trkpt>
      <trkpt lat="46.669494146481156" lon="8.556931391358376">
        <ele>1590.1600000000001</ele>
        <time>2013-08-04T14:51:16Z</time>
      </trkpt>
      <trkpt lat="46.669414937496185" lon="8.556882021948695">
        <ele>1588.24</ele>
        <time>2013-08-04T14:51:29Z</time>
      </trkpt>
      <trkpt lat="46.6693399194628" lon="8.55681873857975">
        <ele>1586.79</ele>
        <time>2013-08-04T14:51:43Z</time>
      </trkpt>
      <trkpt lat="46.669305637478828" lon="8.556793257594109">
        <ele>1583.9100000000001</ele>
        <time>2013-08-04T14:51:59Z</time>
      </trkpt>
      <trkpt lat="46.669259369373322" lon="8.556679682806134">
        <ele>1581.03</ele>
        <time>2013-08-04T14:52:11Z</time>
      </trkpt>
      <trkpt lat="46.669205222278833" lon="8.556615980342031">
        <ele>1578.1400000000001</ele>
        <time>2013-08-04T14:52:24Z</time>
      </trkpt>
      <trkpt lat="46.669137747958302" lon="8.556575998663902">
        <ele>1574.78</ele>
        <time>2013-08-04T14:52:38Z</time>
      </trkpt>
      <trkpt lat="46.669132383540273" lon="8.556571556255221">
        <ele>1573.8199999999999</ele>
        <time>2013-08-04T14:52:40Z</time>
      </trkpt>
      <trkpt lat="46.669057868421078" lon="8.556531071662903">
        <ele>1571.4100000000001</ele>
        <time>2013-08-04T14:52:54Z</time>
      </trkpt>
      <trkpt lat="46.668997267261147" lon="8.556526713073254">
        <ele>1568.53</ele>
        <time>2013-08-04T14:53:06Z</time>
      </trkpt>
      <trkpt lat="46.668936163187027" lon="8.556524617597461">
        <ele>1565.6400000000001</ele>
        <time>2013-08-04T14:53:18Z</time>
      </trkpt>
      <trkpt lat="46.668877908959985" lon="8.556484635919333">
        <ele>1562.28</ele>
        <time>2013-08-04T14:53:32Z</time>
      </trkpt>
      <trkpt lat="46.668833065778017" lon="8.556478265672922">
        <ele>1559.4000000000001</ele>
        <time>2013-08-04T14:53:45Z</time>
      </trkpt>
      <trkpt lat="46.668774057179689" lon="8.556454544886947">
        <ele>1556.03</ele>
        <time>2013-08-04T14:53:58Z</time>
      </trkpt>
      <trkpt lat="46.668722089380026" lon="8.5564517788589">
        <ele>1553.1500000000001</ele>
        <time>2013-08-04T14:54:10Z</time>
      </trkpt>
      <trkpt lat="46.668636258691549" lon="8.556453203782439">
        <ele>1549.78</ele>
        <time>2013-08-04T14:54:23Z</time>
      </trkpt>
      <trkpt lat="46.668551852926612" lon="8.556422861292958">
        <ele>1546.9000000000001</ele>
        <time>2013-08-04T14:54:38Z</time>
      </trkpt>
      <trkpt lat="46.668502148240805" lon="8.556460831314325">
        <ele>1543.53</ele>
        <time>2013-08-04T14:54:50Z</time>
      </trkpt>
      <trkpt lat="46.668441966176033" lon="8.556391596794128">
        <ele>1540.1700000000001</ele>
        <time>2013-08-04T14:55:04Z</time>
      </trkpt>
      <trkpt lat="46.668417323380709" lon="8.556345412507653">
        <ele>1538.25</ele>
        <time>2013-08-04T14:55:09Z</time>
      </trkpt>
      <trkpt lat="46.668361416086555" lon="8.556288750842214">
        <ele>1534.8800000000001</ele>
        <time>2013-08-04T14:55:22Z</time>
      </trkpt>
      <trkpt lat="46.668298216536641" lon="8.55622848495841">
        <ele>1532</ele>
        <time>2013-08-04T14:55:35Z</time>
      </trkpt>
      <trkpt lat="46.66826737113297" lon="8.556129829958081">
        <ele>1529.1099999999999</ele>
        <time>2013-08-04T14:55:49Z</time>
      </trkpt>
      <trkpt lat="46.668209619820118" lon="8.55599345639348">
        <ele>1525.75</ele>
        <time>2013-08-04T14:56:03Z</time>
      </trkpt>
      <trkpt lat="46.668172655627131" lon="8.555927574634552">
        <ele>1522.8699999999999</ele>
        <time>2013-08-04T14:56:16Z</time>
      </trkpt>
      <trkpt lat="46.668108869343996" lon="8.555844090878964">
        <ele>1519.5</ele>
        <time>2013-08-04T14:56:30Z</time>
      </trkpt>
      <trkpt lat="46.668048352003098" lon="8.555779047310352">
        <ele>1517.0999999999999</ele>
        <time>2013-08-04T14:56:42Z</time>
      </trkpt>
      <trkpt lat="46.668013567104936" lon="8.555667735636234">
        <ele>1513.25</ele>
        <time>2013-08-04T14:56:54Z</time>
      </trkpt>
      <trkpt lat="46.667988924309611" lon="8.555589197203517">
        <ele>1510.3699999999999</ele>
        <time>2013-08-04T14:57:08Z</time>
      </trkpt>
      <trkpt lat="46.667954809963703" lon="8.555532703176141">
        <ele>1507</ele>
        <time>2013-08-04T14:57:20Z</time>
      </trkpt>
      <trkpt lat="46.667927065864205" lon="8.555517196655273">
        <ele>1504.1199999999999</ele>
        <time>2013-08-04T14:57:33Z</time>
      </trkpt>
      <trkpt lat="46.667901920154691" lon="8.555426169186831">
        <ele>1501.24</ele>
        <time>2013-08-04T14:57:46Z</time>
      </trkpt>
      <trkpt lat="46.667859088629484" lon="8.5553845949471">
        <ele>1497.8699999999999</ele>
        <time>2013-08-04T14:58:00Z</time>
      </trkpt>
      <trkpt lat="46.667834278196096" lon="8.55530203320086">
        <ele>1494.99</ele>
        <time>2013-08-04T14:58:12Z</time>
      </trkpt>
      <trkpt lat="46.667795050889254" lon="8.555256770923734">
        <ele>1492.0999999999999</ele>
        <time>2013-08-04T14:58:25Z</time>
      </trkpt>
      <trkpt lat="46.667775940150023" lon="8.555227098986507">
        <ele>1490.6600000000001</ele>
        <time>2013-08-04T14:58:30Z</time>
      </trkpt>
      <trkpt lat="46.667766636237502" lon="8.555237660184503">
        <ele>1487.3</ele>
        <time>2013-08-04T14:58:43Z</time>
      </trkpt>
      <trkpt lat="46.667795134708285" lon="8.555320473387837">
        <ele>1484.4100000000001</ele>
        <time>2013-08-04T14:58:58Z</time>
      </trkpt>
      <trkpt lat="46.667802175506949" lon="8.555416529998183">
        <ele>1481.05</ele>
        <time>2013-08-04T14:59:14Z</time>
      </trkpt>
      <trkpt lat="46.667760098353028" lon="8.555504037067294">
        <ele>1477.6800000000001</ele>
        <time>2013-08-04T14:59:27Z</time>
      </trkpt>
      <trkpt lat="46.66772204451263" lon="8.555525578558445">
        <ele>1475.28</ele>
        <time>2013-08-04T14:59:34Z</time>
      </trkpt>
      <trkpt lat="46.667702347040176" lon="8.555503617972136">
        <ele>1472.4000000000001</ele>
        <time>2013-08-04T14:59:46Z</time>
      </trkpt>
      <trkpt lat="46.667666053399444" lon="8.555489620193839">
        <ele>1469.03</ele>
        <time>2013-08-04T15:00:02Z</time>
      </trkpt>
      <trkpt lat="46.667626490816474" lon="8.555427845567465">
        <ele>1466.1500000000001</ele>
        <time>2013-08-04T15:00:16Z</time>
      </trkpt>
      <trkpt lat="46.667610481381416" lon="8.555382331833243">
        <ele>1462.78</ele>
        <time>2013-08-04T15:00:31Z</time>
      </trkpt>
      <trkpt lat="46.66757988743484" lon="8.55540462769568">
        <ele>1459.9000000000001</ele>
        <time>2013-08-04T15:00:46Z</time>
      </trkpt>
      <trkpt lat="46.667531272396445" lon="8.555369256064296">
        <ele>1456.53</ele>
        <time>2013-08-04T15:00:58Z</time>
      </trkpt>
      <trkpt lat="46.667479388415813" lon="8.555271103978157">
        <ele>1453.1700000000001</ele>
        <time>2013-08-04T15:01:10Z</time>
      </trkpt>
      <trkpt lat="46.667432952672243" lon="8.55524780228734">
        <ele>1451.25</ele>
        <time>2013-08-04T15:01:19Z</time>
      </trkpt>
      <trkpt lat="46.667366567999125" lon="8.555188039317727">
        <ele>1447.8800000000001</ele>
        <time>2013-08-04T15:01:32Z</time>
      </trkpt>
      <trkpt lat="46.667297668755054" lon="8.555146465077996">
        <ele>1444.52</ele>
        <time>2013-08-04T15:01:46Z</time>
      </trkpt>
      <trkpt lat="46.667237905785441" lon="8.555156523361802">
        <ele>1441.6300000000001</ele>
        <time>2013-08-04T15:01:59Z</time>
      </trkpt>
      <trkpt lat="46.667218124493957" lon="8.555182088166475">
        <ele>1438.27</ele>
        <time>2013-08-04T15:02:11Z</time>
      </trkpt>
      <trkpt lat="46.667251233011484" lon="8.555215196684003">
        <ele>1435.3900000000001</ele>
        <time>2013-08-04T15:02:25Z</time>
      </trkpt>
      <trkpt lat="46.667230194434524" lon="8.555277809500694">
        <ele>1432.98</ele>
        <time>2013-08-04T15:02:39Z</time>
      </trkpt>
      <trkpt lat="46.667221561074257" lon="8.555383253842592">
        <ele>1430.0999999999999</ele>
        <time>2013-08-04T15:02:52Z</time>
      </trkpt>
      <trkpt lat="46.667238576337695" lon="8.555488446727395">
        <ele>1427.7</ele>
        <time>2013-08-04T15:03:05Z</time>
      </trkpt>
      <trkpt lat="46.667225249111652" lon="8.555566230788827">
        <ele>1424.3299999999999</ele>
        <time>2013-08-04T15:03:17Z</time>
      </trkpt>
      <trkpt lat="46.667205635458231" lon="8.55568366125226">
        <ele>1421.45</ele>
        <time>2013-08-04T15:03:31Z</time>
      </trkpt>
      <trkpt lat="46.667190045118332" lon="8.555679051205516">
        <ele>1418.0799999999999</ele>
        <time>2013-08-04T15:03:45Z</time>
      </trkpt>
      <trkpt lat="46.667170431464911" lon="8.555754404515028">
        <ele>1415.6800000000001</ele>
        <time>2013-08-04T15:04:00Z</time>
      </trkpt>
      <trkpt lat="46.667145453393459" lon="8.555823974311352">
        <ele>1412.79</ele>
        <time>2013-08-04T15:04:12Z</time>
      </trkpt>
      <trkpt lat="46.667165569961071" lon="8.555960096418858">
        <ele>1409.4300000000001</ele>
        <time>2013-08-04T15:04:25Z</time>
      </trkpt>
      <trkpt lat="46.667068591341376" lon="8.556037712842226">
        <ele>1406.55</ele>
        <time>2013-08-04T15:04:39Z</time>
      </trkpt>
      <trkpt lat="46.667050318792462" lon="8.556029247120023">
        <ele>1404.1400000000001</ele>
        <time>2013-08-04T15:04:52Z</time>
      </trkpt>
      <trkpt lat="46.666998937726021" lon="8.555983314290643">
        <ele>1400.78</ele>
        <time>2013-08-04T15:05:06Z</time>
      </trkpt>
      <trkpt lat="46.666916962713003" lon="8.555907625705004">
        <ele>1397.8900000000001</ele>
        <time>2013-08-04T15:05:21Z</time>
      </trkpt>
      <trkpt lat="46.666902378201485" lon="8.555902596563101">
        <ele>1394.53</ele>
        <time>2013-08-04T15:05:34Z</time>
      </trkpt>
      <trkpt lat="46.666923081502318" lon="8.555958671495318">
        <ele>1392.6099999999999</ele>
        <time>2013-08-04T15:05:42Z</time>
      </trkpt>
      <trkpt lat="46.666945880278945" lon="8.556119687855244">
        <ele>1391.1700000000001</ele>
        <time>2013-08-04T15:05:58Z</time>
      </trkpt>
      <trkpt lat="46.666927775368094" lon="8.556281290948391">
        <ele>1388.76</ele>
        <time>2013-08-04T15:06:15Z</time>
      </trkpt>
      <trkpt lat="46.666894163936377" lon="8.556246589869261">
        <ele>1387.3199999999999</ele>
        <time>2013-08-04T15:06:21Z</time>
      </trkpt>
      <trkpt lat="46.666841693222523" lon="8.556201327592135">
        <ele>1384.9200000000001</ele>
        <time>2013-08-04T15:06:36Z</time>
      </trkpt>
      <trkpt lat="46.666829455643892" lon="8.556268885731697">
        <ele>1381.55</ele>
        <time>2013-08-04T15:06:49Z</time>
      </trkpt>
      <trkpt lat="46.666821157559752" lon="8.556353123858571">
        <ele>1378.1900000000001</ele>
        <time>2013-08-04T15:07:02Z</time>
      </trkpt>
      <trkpt lat="46.666795844212174" lon="8.556524869054556">
        <ele>1375.3</ele>
        <time>2013-08-04T15:07:17Z</time>
      </trkpt>
      <trkpt lat="46.666769692674279" lon="8.55658077634871">
        <ele>1372.4200000000001</ele>
        <time>2013-08-04T15:07:27Z</time>
      </trkpt>
      <trkpt lat="46.666737506166101" lon="8.556638360023499">
        <ele>1369.05</ele>
        <time>2013-08-04T15:07:40Z</time>
      </trkpt>
      <trkpt lat="46.666666259989142" lon="8.556577423587441">
        <ele>1366.6500000000001</ele>
        <time>2013-08-04T15:07:53Z</time>
      </trkpt>
      <trkpt lat="46.666589817032218" lon="8.556456305086613">
        <ele>1364.73</ele>
        <time>2013-08-04T15:08:06Z</time>
      </trkpt>
      <trkpt lat="46.66652393527329" lon="8.556434595957398">
        <ele>1361.3599999999999</ele>
        <time>2013-08-04T15:08:21Z</time>
      </trkpt>
      <trkpt lat="46.666479595005512" lon="8.556342143565416">
        <ele>1358.96</ele>
        <time>2013-08-04T15:08:32Z</time>
      </trkpt>
      <trkpt lat="46.66642377153039" lon="8.556272573769093">
        <ele>1357.04</ele>
        <time>2013-08-04T15:08:47Z</time>
      </trkpt>
      <trkpt lat="46.666390411555767" lon="8.556226892396808">
        <ele>1353.6700000000001</ele>
        <time>2013-08-04T15:08:56Z</time>
      </trkpt>
      <trkpt lat="46.666359147056937" lon="8.556150197982788">
        <ele>1351.75</ele>
        <time>2013-08-04T15:09:08Z</time>
      </trkpt>
      <trkpt lat="46.666322685778141" lon="8.556118346750736">
        <ele>1350.3099999999999</ele>
        <time>2013-08-04T15:09:14Z</time>
      </trkpt>
      <trkpt lat="46.666258312761784" lon="8.556058583781123">
        <ele>1347.4300000000001</ele>
        <time>2013-08-04T15:09:26Z</time>
      </trkpt>
      <trkpt lat="46.666206764057279" lon="8.556003933772445">
        <ele>1343.5799999999999</ele>
        <time>2013-08-04T15:09:41Z</time>
      </trkpt>
      <trkpt lat="46.666205255314708" lon="8.556019775569439">
        <ele>1343.5799999999999</ele>
        <time>2013-08-04T15:09:43Z</time>
      </trkpt>
      <trkpt lat="46.666201399639249" lon="8.556140642613173">
        <ele>1342.6199999999999</ele>
        <time>2013-08-04T15:09:57Z</time>
      </trkpt>
      <trkpt lat="46.666211960837245" lon="8.556202836334705">
        <ele>1341.6600000000001</ele>
        <time>2013-08-04T15:10:27Z</time>
      </trkpt>
      <trkpt lat="46.666170889511704" lon="8.556257402524352">
        <ele>1338.77</ele>
        <time>2013-08-04T15:10:37Z</time>
      </trkpt>
      <trkpt lat="46.666174158453941" lon="8.556364439427853">
        <ele>1335.4100000000001</ele>
        <time>2013-08-04T15:10:46Z</time>
      </trkpt>
      <trkpt lat="46.666170889511704" lon="8.556432081386447">
        <ele>1334.45</ele>
        <time>2013-08-04T15:10:50Z</time>
      </trkpt>
      <trkpt lat="46.666177092120051" lon="8.556481283158064">
        <ele>1334.45</ele>
        <time>2013-08-04T15:10:53Z</time>
      </trkpt>
      <trkpt lat="46.666156472638249" lon="8.556528137996793">
        <ele>1333.01</ele>
        <time>2013-08-04T15:10:56Z</time>
      </trkpt>
      <trkpt lat="46.666134595870972" lon="8.556585051119328">
        <ele>1332.04</ele>
        <time>2013-08-04T15:11:01Z</time>
      </trkpt>
      <trkpt lat="46.666118167340755" lon="8.556673396378756">
        <ele>1330.1199999999999</ele>
        <time>2013-08-04T15:11:08Z</time>
      </trkpt>
      <trkpt lat="46.666106348857284" lon="8.556687477976084">
        <ele>1329.6400000000001</ele>
        <time>2013-08-04T15:11:10Z</time>
      </trkpt>
      <trkpt lat="46.666131410747766" lon="8.556882189586759">
        <ele>1326.28</ele>
        <time>2013-08-04T15:11:25Z</time>
      </trkpt>
      <trkpt lat="46.666112970560789" lon="8.556958213448525">
        <ele>1323.8699999999999</ele>
        <time>2013-08-04T15:11:31Z</time>
      </trkpt>
      <trkpt lat="46.666073659434915" lon="8.556999703869224">
        <ele>1321.95</ele>
        <time>2013-08-04T15:11:38Z</time>
      </trkpt>
      <trkpt lat="46.666000233963132" lon="8.556900881230831">
        <ele>1320.03</ele>
        <time>2013-08-04T15:11:52Z</time>
      </trkpt>
      <trkpt lat="46.66593468748033" lon="8.556786384433508">
        <ele>1317.1400000000001</ele>
        <time>2013-08-04T15:12:07Z</time>
      </trkpt>
      <trkpt lat="46.665881378576159" lon="8.55670440942049">
        <ele>1315.22</ele>
        <time>2013-08-04T15:12:19Z</time>
      </trkpt>
      <trkpt lat="46.665816167369485" lon="8.556635677814484">
        <ele>1312.3399999999999</ele>
        <time>2013-08-04T15:12:32Z</time>
      </trkpt>
      <trkpt lat="46.66577828116715" lon="8.556507853791118">
        <ele>1310.4100000000001</ele>
        <time>2013-08-04T15:12:45Z</time>
      </trkpt>
      <trkpt lat="46.665743328630924" lon="8.556439960375428">
        <ele>1309.45</ele>
        <time>2013-08-04T15:12:52Z</time>
      </trkpt>
      <trkpt lat="46.665674094110727" lon="8.556318590417504">
        <ele>1306.5699999999999</ele>
        <time>2013-08-04T15:13:06Z</time>
      </trkpt>
      <trkpt lat="46.665643583983183" lon="8.556289672851563">
        <ele>1304.6500000000001</ele>
        <time>2013-08-04T15:13:19Z</time>
      </trkpt>
      <trkpt lat="46.665627909824252" lon="8.556382795795798">
        <ele>1301.76</ele>
        <time>2013-08-04T15:13:34Z</time>
      </trkpt>
      <trkpt lat="46.665597567334771" lon="8.55650894343853">
        <ele>1298.8800000000001</ele>
        <time>2013-08-04T15:13:48Z</time>
      </trkpt>
      <trkpt lat="46.665576864033937" lon="8.556660488247871">
        <ele>1295.99</ele>
        <time>2013-08-04T15:14:03Z</time>
      </trkpt>
      <trkpt lat="46.665538558736444" lon="8.556764926761389">
        <ele>1293.1099999999999</ele>
        <time>2013-08-04T15:14:16Z</time>
      </trkpt>
      <trkpt lat="46.665525063872337" lon="8.556877663359046">
        <ele>1290.23</ele>
        <time>2013-08-04T15:14:31Z</time>
      </trkpt>
      <trkpt lat="46.665502013638616" lon="8.556974641978741">
        <ele>1287.8199999999999</ele>
        <time>2013-08-04T15:14:44Z</time>
      </trkpt>
      <trkpt lat="46.66546949185431" lon="8.557061981409788">
        <ele>1284.9400000000001</ele>
        <time>2013-08-04T15:14:56Z</time>
      </trkpt>
      <trkpt lat="46.665458511561155" lon="8.5571856983006">
        <ele>1282.54</ele>
        <time>2013-08-04T15:15:10Z</time>
      </trkpt>
      <trkpt lat="46.665458092465997" lon="8.557317545637488">
        <ele>1280.1300000000001</ele>
        <time>2013-08-04T15:15:23Z</time>
      </trkpt>
      <trkpt lat="46.665459265932441" lon="8.55742558836937">
        <ele>1278.21</ele>
        <time>2013-08-04T15:15:34Z</time>
      </trkpt>
      <trkpt lat="46.665496062487364" lon="8.557619880884886">
        <ele>1274.8499999999999</ele>
        <time>2013-08-04T15:15:52Z</time>
      </trkpt>
      <trkpt lat="46.665532775223255" lon="8.557737143710256">
        <ele>1273.4000000000001</ele>
        <time>2013-08-04T15:16:04Z</time>
      </trkpt>
      <trkpt lat="46.665481897071004" lon="8.557873936370015">
        <ele>1271</ele>
        <time>2013-08-04T15:16:17Z</time>
      </trkpt>
      <trkpt lat="46.665482735261321" lon="8.557944344356656">
        <ele>1268.5999999999999</ele>
        <time>2013-08-04T15:16:27Z</time>
      </trkpt>
      <trkpt lat="46.665437389165163" lon="8.557996647432447">
        <ele>1268.1199999999999</ele>
        <time>2013-08-04T15:16:33Z</time>
      </trkpt>
      <trkpt lat="46.665416602045298" lon="8.557908553630114">
        <ele>1265.71</ele>
        <time>2013-08-04T15:16:46Z</time>
      </trkpt>
      <trkpt lat="46.665335549041629" lon="8.557907715439796">
        <ele>1262.3499999999999</ele>
        <time>2013-08-04T15:17:00Z</time>
      </trkpt>
      <trkpt lat="46.665252987295389" lon="8.557903356850147">
        <ele>1259.46</ele>
        <time>2013-08-04T15:17:15Z</time>
      </trkpt>
      <trkpt lat="46.665194481611252" lon="8.55794602073729">
        <ele>1256.0999999999999</ele>
        <time>2013-08-04T15:17:27Z</time>
      </trkpt>
      <trkpt lat="46.665140250697732" lon="8.557987008243799">
        <ele>1254.1800000000001</ele>
        <time>2013-08-04T15:17:38Z</time>
      </trkpt>
      <trkpt lat="46.66509079746902" lon="8.558034785091877">
        <ele>1252.25</ele>
        <time>2013-08-04T15:17:50Z</time>
      </trkpt>
      <trkpt lat="46.665035728365183" lon="8.558081807568669">
        <ele>1248.8900000000001</ele>
        <time>2013-08-04T15:18:03Z</time>
      </trkpt>
      <trkpt lat="46.664972780272365" lon="8.558124052360654">
        <ele>1246.49</ele>
        <time>2013-08-04T15:18:14Z</time>
      </trkpt>
      <trkpt lat="46.664892816916108" lon="8.558141905814409">
        <ele>1244.5599999999999</ele>
        <time>2013-08-04T15:18:26Z</time>
      </trkpt>
      <trkpt lat="46.664839843288064" lon="8.558109635487199">
        <ele>1242.1600000000001</ele>
        <time>2013-08-04T15:18:38Z</time>
      </trkpt>
      <trkpt lat="46.664777398109436" lon="8.558134026825428">
        <ele>1239.76</ele>
        <time>2013-08-04T15:18:51Z</time>
      </trkpt>
      <trkpt lat="46.664696680381894" lon="8.558044256642461">
        <ele>1237.3499999999999</ele>
        <time>2013-08-04T15:19:04Z</time>
      </trkpt>
      <trkpt lat="46.664623925462365" lon="8.558005280792713">
        <ele>1234.47</ele>
        <time>2013-08-04T15:19:19Z</time>
      </trkpt>
      <trkpt lat="46.66458553634584" lon="8.558042831718922">
        <ele>1231.5899999999999</ele>
        <time>2013-08-04T15:19:31Z</time>
      </trkpt>
      <trkpt lat="46.6645513381809" lon="8.558076275512576">
        <ele>1229.6600000000001</ele>
        <time>2013-08-04T15:19:42Z</time>
      </trkpt>
      <trkpt lat="46.664510266855359" lon="8.55807057581842">
        <ele>1226.3</ele>
        <time>2013-08-04T15:19:55Z</time>
      </trkpt>
      <trkpt lat="46.664484618231654" lon="8.558035707101226">
        <ele>1225.3399999999999</ele>
        <time>2013-08-04T15:19:59Z</time>
      </trkpt>
      <trkpt lat="46.664421837776899" lon="8.557914001867175">
        <ele>1222.45</ele>
        <time>2013-08-04T15:20:12Z</time>
      </trkpt>
      <trkpt lat="46.664381269365549" lon="8.557912074029446">
        <ele>1221.97</ele>
        <time>2013-08-04T15:20:18Z</time>
      </trkpt>
      <trkpt lat="46.66435151360929" lon="8.557906206697226">
        <ele>1221.49</ele>
        <time>2013-08-04T15:20:21Z</time>
      </trkpt>
      <trkpt lat="46.664329385384917" lon="8.55790788307786">
        <ele>1221.49</ele>
        <time>2013-08-04T15:20:23Z</time>
      </trkpt>
      <trkpt lat="46.664296193048358" lon="8.557846443727613">
        <ele>1221.97</ele>
        <time>2013-08-04T15:20:29Z</time>
      </trkpt>
      <trkpt lat="46.664291666820645" lon="8.557819034904242">
        <ele>1221.49</ele>
        <time>2013-08-04T15:20:31Z</time>
      </trkpt>
      <trkpt lat="46.664305832237005" lon="8.557763546705246">
        <ele>1221.49</ele>
        <time>2013-08-04T15:20:39Z</time>
      </trkpt>
      <trkpt lat="46.664372468367219" lon="8.55775885283947">
        <ele>1221.49</ele>
        <time>2013-08-04T15:20:50Z</time>
      </trkpt>
      <trkpt lat="46.664373138919473" lon="8.557814005762339">
        <ele>1221.01</ele>
        <time>2013-08-04T15:21:05Z</time>
      </trkpt>
    </trkseg>
  </trk>

</gpx>